<?xml version="1.0" encoding="UTF-8" standalone="no" ?>
<gpx xmlns="http://www.topografix.com/GPX/1/1" xmlns:xsi="http://www.w3.org/2001/XMLSchema-instance" xsi:schemaLocation="http://www.topografix.com/GPX/1/1 http://www.topografix.com/GPX/1/1/gpx.xsd" version="1.1" creator="VisuGPX - https://www.visugpx.com">
  <metadata>
    <name>Ran*do St Germain Marly</name>
    <desc><![CDATA[Rando sur les deux domaines de St Germain et Marly . 19 km depuis la gare de Poissy (RER A)  jusqu'à celle de Bougival (Ligne L) ]]></desc>
  </metadata>
  <trk>
    <name><![CDATA[31 mars 2024 à 09:21:58]]></name>
    <cmt><![CDATA[31 mars 2024 à 09:21:58]]></cmt>
    <trkseg>
      <trkpt lat="48.93271" lon="2.03837">
        <ele>24</ele>
        <time>2024-03-31T07:21:59Z</time>
      </trkpt>
      <trkpt lat="48.93267" lon="2.03848">
        <ele>24</ele>
        <time>2024-03-31T07:22:23Z</time>
      </trkpt>
      <trkpt lat="48.93268" lon="2.03855">
        <ele>24</ele>
        <time>2024-03-31T07:22:35Z</time>
      </trkpt>
      <trkpt lat="48.93277" lon="2.03855">
        <ele>24</ele>
        <time>2024-03-31T07:22:44Z</time>
      </trkpt>
      <trkpt lat="48.93281" lon="2.03857">
        <ele>24</ele>
        <time>2024-03-31T07:22:48Z</time>
      </trkpt>
      <trkpt lat="48.93301" lon="2.03866">
        <ele>24</ele>
        <time>2024-03-31T07:23:07Z</time>
      </trkpt>
      <trkpt lat="48.93302" lon="2.03865">
        <ele>24</ele>
        <time>2024-03-31T07:23:32Z</time>
      </trkpt>
      <trkpt lat="48.93306" lon="2.0386">
        <ele>24</ele>
        <time>2024-03-31T07:23:35Z</time>
      </trkpt>
      <trkpt lat="48.93312" lon="2.03858">
        <ele>24</ele>
        <time>2024-03-31T07:23:45Z</time>
      </trkpt>
      <trkpt lat="48.93313" lon="2.03847">
        <ele>24</ele>
        <time>2024-03-31T07:23:57Z</time>
      </trkpt>
      <trkpt lat="48.93309" lon="2.03843">
        <ele>24</ele>
        <time>2024-03-31T07:24:02Z</time>
      </trkpt>
      <trkpt lat="48.93304" lon="2.03841">
        <ele>24</ele>
        <time>2024-03-31T07:24:06Z</time>
      </trkpt>
      <trkpt lat="48.933" lon="2.03837">
        <ele>24</ele>
        <time>2024-03-31T07:24:11Z</time>
      </trkpt>
      <trkpt lat="48.93291" lon="2.03821">
        <ele>25</ele>
        <time>2024-03-31T07:24:31Z</time>
      </trkpt>
      <trkpt lat="48.93296" lon="2.03816">
        <ele>25</ele>
        <time>2024-03-31T07:24:44Z</time>
      </trkpt>
      <trkpt lat="48.93304" lon="2.03818">
        <ele>25</ele>
        <time>2024-03-31T07:25:09Z</time>
      </trkpt>
      <trkpt lat="48.93313" lon="2.03807">
        <ele>25</ele>
        <time>2024-03-31T07:25:20Z</time>
      </trkpt>
      <trkpt lat="48.93321" lon="2.03793">
        <ele>26</ele>
        <time>2024-03-31T07:25:32Z</time>
      </trkpt>
      <trkpt lat="48.93328" lon="2.03785">
        <ele>26</ele>
        <time>2024-03-31T07:25:42Z</time>
      </trkpt>
      <trkpt lat="48.93343" lon="2.0376">
        <ele>26</ele>
        <time>2024-03-31T07:26:11Z</time>
      </trkpt>
      <trkpt lat="48.93362" lon="2.03743">
        <ele>26</ele>
        <time>2024-03-31T07:26:35Z</time>
      </trkpt>
      <trkpt lat="48.93366" lon="2.03747">
        <ele>26</ele>
        <time>2024-03-31T07:27:02Z</time>
      </trkpt>
      <trkpt lat="48.93359" lon="2.03753">
        <ele>25</ele>
        <time>2024-03-31T07:27:51Z</time>
      </trkpt>
      <trkpt lat="48.93349" lon="2.03761">
        <ele>25</ele>
        <time>2024-03-31T07:28:07Z</time>
      </trkpt>
      <trkpt lat="48.93324" lon="2.03792">
        <ele>24</ele>
        <time>2024-03-31T07:28:40Z</time>
      </trkpt>
      <trkpt lat="48.93306" lon="2.03817">
        <ele>24</ele>
        <time>2024-03-31T07:29:00Z</time>
      </trkpt>
      <trkpt lat="48.93302" lon="2.0382">
        <ele>23</ele>
        <time>2024-03-31T07:29:04Z</time>
      </trkpt>
      <trkpt lat="48.93291" lon="2.03825">
        <ele>23</ele>
        <time>2024-03-31T07:29:14Z</time>
      </trkpt>
      <trkpt lat="48.93286" lon="2.03822">
        <ele>22</ele>
        <time>2024-03-31T07:29:20Z</time>
      </trkpt>
      <trkpt lat="48.93285" lon="2.03813">
        <ele>22</ele>
        <time>2024-03-31T07:29:25Z</time>
      </trkpt>
      <trkpt lat="48.93279" lon="2.03795">
        <ele>21</ele>
        <time>2024-03-31T07:29:37Z</time>
      </trkpt>
      <trkpt lat="48.93278" lon="2.03787">
        <ele>21</ele>
        <time>2024-03-31T07:29:42Z</time>
      </trkpt>
      <trkpt lat="48.9328" lon="2.03779">
        <ele>20</ele>
        <time>2024-03-31T07:29:47Z</time>
      </trkpt>
      <trkpt lat="48.93279" lon="2.0377">
        <ele>20</ele>
        <time>2024-03-31T07:29:52Z</time>
      </trkpt>
      <trkpt lat="48.9327" lon="2.03751">
        <ele>20</ele>
        <time>2024-03-31T07:30:06Z</time>
      </trkpt>
      <trkpt lat="48.93262" lon="2.03741">
        <ele>20</ele>
        <time>2024-03-31T07:30:15Z</time>
      </trkpt>
      <trkpt lat="48.93236" lon="2.03693">
        <ele>20</ele>
        <time>2024-03-31T07:30:48Z</time>
      </trkpt>
      <trkpt lat="48.93224" lon="2.03666">
        <ele>20</ele>
        <time>2024-03-31T07:31:05Z</time>
      </trkpt>
      <trkpt lat="48.93213" lon="2.03642">
        <ele>20</ele>
        <time>2024-03-31T07:31:22Z</time>
      </trkpt>
      <trkpt lat="48.93207" lon="2.03628">
        <ele>20</ele>
        <time>2024-03-31T07:31:31Z</time>
      </trkpt>
      <trkpt lat="48.9318" lon="2.03581">
        <ele>20</ele>
        <time>2024-03-31T07:32:06Z</time>
      </trkpt>
      <trkpt lat="48.9317" lon="2.03562">
        <ele>20</ele>
        <time>2024-03-31T07:32:19Z</time>
      </trkpt>
      <trkpt lat="48.93165" lon="2.03558">
        <ele>20</ele>
        <time>2024-03-31T07:32:23Z</time>
      </trkpt>
      <trkpt lat="48.93151" lon="2.03535">
        <ele>21</ele>
        <time>2024-03-31T07:32:41Z</time>
      </trkpt>
      <trkpt lat="48.93144" lon="2.03531">
        <ele>21</ele>
        <time>2024-03-31T07:33:01Z</time>
      </trkpt>
      <trkpt lat="48.93138" lon="2.03531">
        <ele>21</ele>
        <time>2024-03-31T07:33:06Z</time>
      </trkpt>
      <trkpt lat="48.93134" lon="2.03529">
        <ele>21</ele>
        <time>2024-03-31T07:33:10Z</time>
      </trkpt>
      <trkpt lat="48.93122" lon="2.03525">
        <ele>21</ele>
        <time>2024-03-31T07:33:25Z</time>
      </trkpt>
      <trkpt lat="48.93117" lon="2.03526">
        <ele>21</ele>
        <time>2024-03-31T07:33:29Z</time>
      </trkpt>
      <trkpt lat="48.93113" lon="2.03531">
        <ele>21</ele>
        <time>2024-03-31T07:33:34Z</time>
      </trkpt>
      <trkpt lat="48.93112" lon="2.03538">
        <ele>22</ele>
        <time>2024-03-31T07:33:39Z</time>
      </trkpt>
      <trkpt lat="48.93114" lon="2.03545">
        <ele>22</ele>
        <time>2024-03-31T07:33:43Z</time>
      </trkpt>
      <trkpt lat="48.93107" lon="2.03554">
        <ele>22</ele>
        <time>2024-03-31T07:33:52Z</time>
      </trkpt>
      <trkpt lat="48.93091" lon="2.03575">
        <ele>21</ele>
        <time>2024-03-31T07:34:08Z</time>
      </trkpt>
      <trkpt lat="48.93082" lon="2.03599">
        <ele>22</ele>
        <time>2024-03-31T07:34:20Z</time>
      </trkpt>
      <trkpt lat="48.93069" lon="2.03616">
        <ele>23</ele>
        <time>2024-03-31T07:34:31Z</time>
      </trkpt>
      <trkpt lat="48.93066" lon="2.03622">
        <ele>23</ele>
        <time>2024-03-31T07:34:34Z</time>
      </trkpt>
      <trkpt lat="48.93053" lon="2.03635">
        <ele>23</ele>
        <time>2024-03-31T07:34:47Z</time>
      </trkpt>
      <trkpt lat="48.93043" lon="2.03641">
        <ele>24</ele>
        <time>2024-03-31T07:34:55Z</time>
      </trkpt>
      <trkpt lat="48.93039" lon="2.03646">
        <ele>24</ele>
        <time>2024-03-31T07:34:59Z</time>
      </trkpt>
      <trkpt lat="48.93032" lon="2.03659">
        <ele>24</ele>
        <time>2024-03-31T07:35:12Z</time>
      </trkpt>
      <trkpt lat="48.93018" lon="2.03674">
        <ele>25</ele>
        <time>2024-03-31T07:35:26Z</time>
      </trkpt>
      <trkpt lat="48.93008" lon="2.0368">
        <ele>25</ele>
        <time>2024-03-31T07:35:34Z</time>
      </trkpt>
      <trkpt lat="48.93002" lon="2.03679">
        <ele>25</ele>
        <time>2024-03-31T07:35:38Z</time>
      </trkpt>
      <trkpt lat="48.92987" lon="2.03687">
        <ele>26</ele>
        <time>2024-03-31T07:36:19Z</time>
      </trkpt>
      <trkpt lat="48.92983" lon="2.0369">
        <ele>26</ele>
        <time>2024-03-31T07:36:23Z</time>
      </trkpt>
      <trkpt lat="48.92975" lon="2.03701">
        <ele>27</ele>
        <time>2024-03-31T07:36:33Z</time>
      </trkpt>
      <trkpt lat="48.92971" lon="2.03704">
        <ele>27</ele>
        <time>2024-03-31T07:36:37Z</time>
      </trkpt>
      <trkpt lat="48.92967" lon="2.03707">
        <ele>27</ele>
        <time>2024-03-31T07:36:41Z</time>
      </trkpt>
      <trkpt lat="48.92946" lon="2.03735">
        <ele>28</ele>
        <time>2024-03-31T07:37:05Z</time>
      </trkpt>
      <trkpt lat="48.92938" lon="2.03748">
        <ele>28</ele>
        <time>2024-03-31T07:37:13Z</time>
      </trkpt>
      <trkpt lat="48.92929" lon="2.03754">
        <ele>29</ele>
        <time>2024-03-31T07:37:21Z</time>
      </trkpt>
      <trkpt lat="48.92922" lon="2.03764">
        <ele>29</ele>
        <time>2024-03-31T07:37:30Z</time>
      </trkpt>
      <trkpt lat="48.92914" lon="2.03783">
        <ele>29</ele>
        <time>2024-03-31T07:37:41Z</time>
      </trkpt>
      <trkpt lat="48.92909" lon="2.03786">
        <ele>29</ele>
        <time>2024-03-31T07:37:45Z</time>
      </trkpt>
      <trkpt lat="48.92905" lon="2.03791">
        <ele>30</ele>
        <time>2024-03-31T07:37:50Z</time>
      </trkpt>
      <trkpt lat="48.929" lon="2.03797">
        <ele>30</ele>
        <time>2024-03-31T07:37:55Z</time>
      </trkpt>
      <trkpt lat="48.92897" lon="2.03804">
        <ele>30</ele>
        <time>2024-03-31T07:38:00Z</time>
      </trkpt>
      <trkpt lat="48.92881" lon="2.0382">
        <ele>30</ele>
        <time>2024-03-31T07:38:16Z</time>
      </trkpt>
      <trkpt lat="48.92873" lon="2.03839">
        <ele>31</ele>
        <time>2024-03-31T07:38:24Z</time>
      </trkpt>
      <trkpt lat="48.92867" lon="2.03838">
        <ele>31</ele>
        <time>2024-03-31T07:38:28Z</time>
      </trkpt>
      <trkpt lat="48.92861" lon="2.03834">
        <ele>31</ele>
        <time>2024-03-31T07:38:32Z</time>
      </trkpt>
      <trkpt lat="48.92856" lon="2.03827">
        <ele>31</ele>
        <time>2024-03-31T07:38:35Z</time>
      </trkpt>
      <trkpt lat="48.92851" lon="2.03826">
        <ele>31</ele>
        <time>2024-03-31T07:38:39Z</time>
      </trkpt>
      <trkpt lat="48.92847" lon="2.03833">
        <ele>31</ele>
        <time>2024-03-31T07:38:45Z</time>
      </trkpt>
      <trkpt lat="48.92847" lon="2.03804">
        <ele>31</ele>
        <time>2024-03-31T07:38:55Z</time>
      </trkpt>
      <trkpt lat="48.92852" lon="2.03799">
        <ele>31</ele>
        <time>2024-03-31T07:38:58Z</time>
      </trkpt>
      <trkpt lat="48.92853" lon="2.03792">
        <ele>31</ele>
        <time>2024-03-31T07:39:03Z</time>
      </trkpt>
      <trkpt lat="48.9285" lon="2.03785">
        <ele>31</ele>
        <time>2024-03-31T07:39:08Z</time>
      </trkpt>
      <trkpt lat="48.92846" lon="2.0378">
        <ele>31</ele>
        <time>2024-03-31T07:39:12Z</time>
      </trkpt>
      <trkpt lat="48.92818" lon="2.03738">
        <ele>31</ele>
        <time>2024-03-31T07:39:43Z</time>
      </trkpt>
      <trkpt lat="48.92806" lon="2.03715">
        <ele>31</ele>
        <time>2024-03-31T07:40:00Z</time>
      </trkpt>
      <trkpt lat="48.92801" lon="2.0371">
        <ele>32</ele>
        <time>2024-03-31T07:40:05Z</time>
      </trkpt>
      <trkpt lat="48.92794" lon="2.03697">
        <ele>32</ele>
        <time>2024-03-31T07:40:15Z</time>
      </trkpt>
      <trkpt lat="48.92783" lon="2.03684">
        <ele>32</ele>
        <time>2024-03-31T07:40:29Z</time>
      </trkpt>
      <trkpt lat="48.92779" lon="2.03674">
        <ele>33</ele>
        <time>2024-03-31T07:40:36Z</time>
      </trkpt>
      <trkpt lat="48.92785" lon="2.03661">
        <ele>33</ele>
        <time>2024-03-31T07:40:43Z</time>
      </trkpt>
      <trkpt lat="48.92789" lon="2.03643">
        <ele>33</ele>
        <time>2024-03-31T07:40:53Z</time>
      </trkpt>
      <trkpt lat="48.92788" lon="2.03636">
        <ele>33</ele>
        <time>2024-03-31T07:40:57Z</time>
      </trkpt>
      <trkpt lat="48.92784" lon="2.03626">
        <ele>34</ele>
        <time>2024-03-31T07:41:04Z</time>
      </trkpt>
      <trkpt lat="48.9278" lon="2.0362">
        <ele>34</ele>
        <time>2024-03-31T07:41:10Z</time>
      </trkpt>
      <trkpt lat="48.92775" lon="2.03616">
        <ele>35</ele>
        <time>2024-03-31T07:41:15Z</time>
      </trkpt>
      <trkpt lat="48.92754" lon="2.03582">
        <ele>36</ele>
        <time>2024-03-31T07:41:42Z</time>
      </trkpt>
      <trkpt lat="48.92752" lon="2.03575">
        <ele>36</ele>
        <time>2024-03-31T07:41:47Z</time>
      </trkpt>
      <trkpt lat="48.92746" lon="2.03561">
        <ele>37</ele>
        <time>2024-03-31T07:42:00Z</time>
      </trkpt>
      <trkpt lat="48.92744" lon="2.03552">
        <ele>38</ele>
        <time>2024-03-31T07:42:07Z</time>
      </trkpt>
      <trkpt lat="48.92738" lon="2.03545">
        <ele>39</ele>
        <time>2024-03-31T07:42:15Z</time>
      </trkpt>
      <trkpt lat="48.92732" lon="2.03543">
        <ele>39</ele>
        <time>2024-03-31T07:42:19Z</time>
      </trkpt>
      <trkpt lat="48.92722" lon="2.03534">
        <ele>40</ele>
        <time>2024-03-31T07:42:29Z</time>
      </trkpt>
      <trkpt lat="48.92717" lon="2.03527">
        <ele>41</ele>
        <time>2024-03-31T07:42:35Z</time>
      </trkpt>
      <trkpt lat="48.92714" lon="2.03518">
        <ele>41</ele>
        <time>2024-03-31T07:42:40Z</time>
      </trkpt>
      <trkpt lat="48.92697" lon="2.03489">
        <ele>43</ele>
        <time>2024-03-31T07:43:06Z</time>
      </trkpt>
      <trkpt lat="48.92696" lon="2.03481">
        <ele>44</ele>
        <time>2024-03-31T07:43:15Z</time>
      </trkpt>
      <trkpt lat="48.92693" lon="2.03477">
        <ele>44</ele>
        <time>2024-03-31T07:44:28Z</time>
      </trkpt>
      <trkpt lat="48.92686" lon="2.03481">
        <ele>45</ele>
        <time>2024-03-31T07:44:52Z</time>
      </trkpt>
      <trkpt lat="48.92677" lon="2.03487">
        <ele>45</ele>
        <time>2024-03-31T07:45:02Z</time>
      </trkpt>
      <trkpt lat="48.92672" lon="2.03491">
        <ele>46</ele>
        <time>2024-03-31T07:45:08Z</time>
      </trkpt>
      <trkpt lat="48.92667" lon="2.03492">
        <ele>46</ele>
        <time>2024-03-31T07:45:13Z</time>
      </trkpt>
      <trkpt lat="48.92663" lon="2.03497">
        <ele>46</ele>
        <time>2024-03-31T07:45:18Z</time>
      </trkpt>
      <trkpt lat="48.9265" lon="2.03507">
        <ele>47</ele>
        <time>2024-03-31T07:45:31Z</time>
      </trkpt>
      <trkpt lat="48.92616" lon="2.03542">
        <ele>49</ele>
        <time>2024-03-31T07:46:03Z</time>
      </trkpt>
      <trkpt lat="48.92607" lon="2.03551">
        <ele>49</ele>
        <time>2024-03-31T07:46:12Z</time>
      </trkpt>
      <trkpt lat="48.92599" lon="2.03562">
        <ele>50</ele>
        <time>2024-03-31T07:46:20Z</time>
      </trkpt>
      <trkpt lat="48.92593" lon="2.03565">
        <ele>50</ele>
        <time>2024-03-31T07:46:25Z</time>
      </trkpt>
      <trkpt lat="48.92589" lon="2.03567">
        <ele>50</ele>
        <time>2024-03-31T07:46:30Z</time>
      </trkpt>
      <trkpt lat="48.92577" lon="2.0358">
        <ele>52</ele>
        <time>2024-03-31T07:46:42Z</time>
      </trkpt>
      <trkpt lat="48.92573" lon="2.03584">
        <ele>53</ele>
        <time>2024-03-31T07:46:53Z</time>
      </trkpt>
      <trkpt lat="48.92585" lon="2.03605">
        <ele>52</ele>
        <time>2024-03-31T07:47:25Z</time>
      </trkpt>
      <trkpt lat="48.92611" lon="2.03658">
        <ele>51</ele>
        <time>2024-03-31T07:47:59Z</time>
      </trkpt>
      <trkpt lat="48.92619" lon="2.03677">
        <ele>50</ele>
        <time>2024-03-31T07:48:11Z</time>
      </trkpt>
      <trkpt lat="48.92629" lon="2.03714">
        <ele>48</ele>
        <time>2024-03-31T07:48:30Z</time>
      </trkpt>
      <trkpt lat="48.92628" lon="2.03722">
        <ele>48</ele>
        <time>2024-03-31T07:48:34Z</time>
      </trkpt>
      <trkpt lat="48.92625" lon="2.03728">
        <ele>48</ele>
        <time>2024-03-31T07:48:37Z</time>
      </trkpt>
      <trkpt lat="48.92623" lon="2.03735">
        <ele>48</ele>
        <time>2024-03-31T07:48:41Z</time>
      </trkpt>
      <trkpt lat="48.92625" lon="2.03741">
        <ele>48</ele>
        <time>2024-03-31T07:48:46Z</time>
      </trkpt>
      <trkpt lat="48.92628" lon="2.0375">
        <ele>47</ele>
        <time>2024-03-31T07:48:53Z</time>
      </trkpt>
      <trkpt lat="48.92628" lon="2.03759">
        <ele>47</ele>
        <time>2024-03-31T07:48:58Z</time>
      </trkpt>
      <trkpt lat="48.9263" lon="2.03766">
        <ele>46</ele>
        <time>2024-03-31T07:49:02Z</time>
      </trkpt>
      <trkpt lat="48.92632" lon="2.03792">
        <ele>45</ele>
        <time>2024-03-31T07:49:18Z</time>
      </trkpt>
      <trkpt lat="48.9264" lon="2.03835">
        <ele>44</ele>
        <time>2024-03-31T07:49:45Z</time>
      </trkpt>
      <trkpt lat="48.9264" lon="2.03843">
        <ele>43</ele>
        <time>2024-03-31T07:49:59Z</time>
      </trkpt>
      <trkpt lat="48.92646" lon="2.03877">
        <ele>43</ele>
        <time>2024-03-31T07:50:21Z</time>
      </trkpt>
      <trkpt lat="48.92637" lon="2.03887">
        <ele>43</ele>
        <time>2024-03-31T07:50:28Z</time>
      </trkpt>
      <trkpt lat="48.92632" lon="2.03902">
        <ele>44</ele>
        <time>2024-03-31T07:50:37Z</time>
      </trkpt>
      <trkpt lat="48.92632" lon="2.0391">
        <ele>44</ele>
        <time>2024-03-31T07:50:42Z</time>
      </trkpt>
      <trkpt lat="48.92628" lon="2.03924">
        <ele>44</ele>
        <time>2024-03-31T07:50:50Z</time>
      </trkpt>
      <trkpt lat="48.92623" lon="2.03937">
        <ele>45</ele>
        <time>2024-03-31T07:50:58Z</time>
      </trkpt>
      <trkpt lat="48.92618" lon="2.03939">
        <ele>45</ele>
        <time>2024-03-31T07:51:01Z</time>
      </trkpt>
      <trkpt lat="48.92605" lon="2.03954">
        <ele>45</ele>
        <time>2024-03-31T07:51:12Z</time>
      </trkpt>
      <trkpt lat="48.92602" lon="2.0396">
        <ele>46</ele>
        <time>2024-03-31T07:51:16Z</time>
      </trkpt>
      <trkpt lat="48.92598" lon="2.03965">
        <ele>46</ele>
        <time>2024-03-31T07:51:20Z</time>
      </trkpt>
      <trkpt lat="48.92573" lon="2.04014">
        <ele>47</ele>
        <time>2024-03-31T07:51:53Z</time>
      </trkpt>
      <trkpt lat="48.92572" lon="2.04022">
        <ele>47</ele>
        <time>2024-03-31T07:51:56Z</time>
      </trkpt>
      <trkpt lat="48.92574" lon="2.04028">
        <ele>48</ele>
        <time>2024-03-31T07:51:59Z</time>
      </trkpt>
      <trkpt lat="48.92572" lon="2.04035">
        <ele>48</ele>
        <time>2024-03-31T07:52:13Z</time>
      </trkpt>
      <trkpt lat="48.92567" lon="2.04037">
        <ele>49</ele>
        <time>2024-03-31T07:52:25Z</time>
      </trkpt>
      <trkpt lat="48.92562" lon="2.04036">
        <ele>49</ele>
        <time>2024-03-31T07:52:32Z</time>
      </trkpt>
      <trkpt lat="48.92552" lon="2.04041">
        <ele>50</ele>
        <time>2024-03-31T07:52:42Z</time>
      </trkpt>
      <trkpt lat="48.92543" lon="2.04048">
        <ele>51</ele>
        <time>2024-03-31T07:52:49Z</time>
      </trkpt>
      <trkpt lat="48.92523" lon="2.04058">
        <ele>52</ele>
        <time>2024-03-31T07:53:04Z</time>
      </trkpt>
      <trkpt lat="48.9252" lon="2.04061">
        <ele>52</ele>
        <time>2024-03-31T07:53:18Z</time>
      </trkpt>
      <trkpt lat="48.92514" lon="2.04064">
        <ele>53</ele>
        <time>2024-03-31T07:53:54Z</time>
      </trkpt>
      <trkpt lat="48.92481" lon="2.0409">
        <ele>56</ele>
        <time>2024-03-31T07:54:22Z</time>
      </trkpt>
      <trkpt lat="48.92479" lon="2.04097">
        <ele>56</ele>
        <time>2024-03-31T07:54:26Z</time>
      </trkpt>
      <trkpt lat="48.92479" lon="2.04104">
        <ele>57</ele>
        <time>2024-03-31T07:54:29Z</time>
      </trkpt>
      <trkpt lat="48.92479" lon="2.04112">
        <ele>56</ele>
        <time>2024-03-31T07:54:40Z</time>
      </trkpt>
      <trkpt lat="48.92475" lon="2.0412">
        <ele>56</ele>
        <time>2024-03-31T07:54:58Z</time>
      </trkpt>
      <trkpt lat="48.92471" lon="2.04124">
        <ele>57</ele>
        <time>2024-03-31T07:55:03Z</time>
      </trkpt>
      <trkpt lat="48.92457" lon="2.0413">
        <ele>58</ele>
        <time>2024-03-31T07:55:14Z</time>
      </trkpt>
      <trkpt lat="48.92449" lon="2.04137">
        <ele>59</ele>
        <time>2024-03-31T07:55:21Z</time>
      </trkpt>
      <trkpt lat="48.92443" lon="2.04139">
        <ele>59</ele>
        <time>2024-03-31T07:55:25Z</time>
      </trkpt>
      <trkpt lat="48.92439" lon="2.04143">
        <ele>60</ele>
        <time>2024-03-31T07:55:30Z</time>
      </trkpt>
      <trkpt lat="48.9243" lon="2.04148">
        <ele>61</ele>
        <time>2024-03-31T07:55:38Z</time>
      </trkpt>
      <trkpt lat="48.92417" lon="2.04163">
        <ele>63</ele>
        <time>2024-03-31T07:55:52Z</time>
      </trkpt>
      <trkpt lat="48.92412" lon="2.04166">
        <ele>63</ele>
        <time>2024-03-31T07:55:56Z</time>
      </trkpt>
      <trkpt lat="48.92403" lon="2.04175">
        <ele>64</ele>
        <time>2024-03-31T07:56:05Z</time>
      </trkpt>
      <trkpt lat="48.92365" lon="2.042">
        <ele>67</ele>
        <time>2024-03-31T07:56:37Z</time>
      </trkpt>
      <trkpt lat="48.9235" lon="2.04218">
        <ele>68</ele>
        <time>2024-03-31T07:56:53Z</time>
      </trkpt>
      <trkpt lat="48.92346" lon="2.04214">
        <ele>68</ele>
        <time>2024-03-31T07:57:19Z</time>
      </trkpt>
      <trkpt lat="48.92344" lon="2.04225">
        <ele>67</ele>
        <time>2024-03-31T07:58:45Z</time>
      </trkpt>
      <trkpt lat="48.92356" lon="2.0428">
        <ele>66</ele>
        <time>2024-03-31T07:59:17Z</time>
      </trkpt>
      <trkpt lat="48.92364" lon="2.04291">
        <ele>66</ele>
        <time>2024-03-31T07:59:23Z</time>
      </trkpt>
      <trkpt lat="48.92364" lon="2.04298">
        <ele>65</ele>
        <time>2024-03-31T07:59:27Z</time>
      </trkpt>
      <trkpt lat="48.92361" lon="2.04305">
        <ele>65</ele>
        <time>2024-03-31T07:59:31Z</time>
      </trkpt>
      <trkpt lat="48.92357" lon="2.04309">
        <ele>65</ele>
        <time>2024-03-31T07:59:35Z</time>
      </trkpt>
      <trkpt lat="48.92352" lon="2.0431">
        <ele>65</ele>
        <time>2024-03-31T07:59:38Z</time>
      </trkpt>
      <trkpt lat="48.92337" lon="2.04317">
        <ele>66</ele>
        <time>2024-03-31T07:59:50Z</time>
      </trkpt>
      <trkpt lat="48.92327" lon="2.0432">
        <ele>66</ele>
        <time>2024-03-31T07:59:57Z</time>
      </trkpt>
      <trkpt lat="48.92307" lon="2.04334">
        <ele>67</ele>
        <time>2024-03-31T08:00:15Z</time>
      </trkpt>
      <trkpt lat="48.92292" lon="2.04337">
        <ele>68</ele>
        <time>2024-03-31T08:00:26Z</time>
      </trkpt>
      <trkpt lat="48.92288" lon="2.04341">
        <ele>68</ele>
        <time>2024-03-31T08:00:30Z</time>
      </trkpt>
      <trkpt lat="48.92279" lon="2.04347">
        <ele>68</ele>
        <time>2024-03-31T08:00:37Z</time>
      </trkpt>
      <trkpt lat="48.92271" lon="2.04371">
        <ele>68</ele>
        <time>2024-03-31T08:01:02Z</time>
      </trkpt>
      <trkpt lat="48.92268" lon="2.04379">
        <ele>69</ele>
        <time>2024-03-31T08:01:14Z</time>
      </trkpt>
      <trkpt lat="48.92264" lon="2.04388">
        <ele>69</ele>
        <time>2024-03-31T08:01:26Z</time>
      </trkpt>
      <trkpt lat="48.92255" lon="2.04407">
        <ele>70</ele>
        <time>2024-03-31T08:01:50Z</time>
      </trkpt>
      <trkpt lat="48.92253" lon="2.04418">
        <ele>70</ele>
        <time>2024-03-31T08:02:01Z</time>
      </trkpt>
      <trkpt lat="48.92248" lon="2.04422">
        <ele>70</ele>
        <time>2024-03-31T08:02:06Z</time>
      </trkpt>
      <trkpt lat="48.92245" lon="2.0443">
        <ele>70</ele>
        <time>2024-03-31T08:02:10Z</time>
      </trkpt>
      <trkpt lat="48.92239" lon="2.04437">
        <ele>71</ele>
        <time>2024-03-31T08:02:18Z</time>
      </trkpt>
      <trkpt lat="48.92235" lon="2.04443">
        <ele>71</ele>
        <time>2024-03-31T08:02:23Z</time>
      </trkpt>
      <trkpt lat="48.92231" lon="2.04446">
        <ele>71</ele>
        <time>2024-03-31T08:02:28Z</time>
      </trkpt>
      <trkpt lat="48.92225" lon="2.04448">
        <ele>71</ele>
        <time>2024-03-31T08:02:32Z</time>
      </trkpt>
      <trkpt lat="48.92216" lon="2.04459">
        <ele>71</ele>
        <time>2024-03-31T08:02:44Z</time>
      </trkpt>
      <trkpt lat="48.92212" lon="2.04468">
        <ele>71</ele>
        <time>2024-03-31T08:02:54Z</time>
      </trkpt>
      <trkpt lat="48.92198" lon="2.04484">
        <ele>72</ele>
        <time>2024-03-31T08:03:10Z</time>
      </trkpt>
      <trkpt lat="48.92195" lon="2.04489">
        <ele>72</ele>
        <time>2024-03-31T08:03:15Z</time>
      </trkpt>
      <trkpt lat="48.92191" lon="2.04494">
        <ele>72</ele>
        <time>2024-03-31T08:03:19Z</time>
      </trkpt>
      <trkpt lat="48.92184" lon="2.04507">
        <ele>72</ele>
        <time>2024-03-31T08:03:32Z</time>
      </trkpt>
      <trkpt lat="48.92184" lon="2.04498">
        <ele>73</ele>
        <time>2024-03-31T08:04:06Z</time>
      </trkpt>
      <trkpt lat="48.92176" lon="2.04499">
        <ele>72</ele>
        <time>2024-03-31T08:04:36Z</time>
      </trkpt>
      <trkpt lat="48.92176" lon="2.04507">
        <ele>72</ele>
        <time>2024-03-31T08:05:06Z</time>
      </trkpt>
      <trkpt lat="48.92171" lon="2.0451">
        <ele>72</ele>
        <time>2024-03-31T08:05:24Z</time>
      </trkpt>
      <trkpt lat="48.92178" lon="2.04517">
        <ele>72</ele>
        <time>2024-03-31T08:05:48Z</time>
      </trkpt>
      <trkpt lat="48.92181" lon="2.04508">
        <ele>72</ele>
        <time>2024-03-31T08:06:17Z</time>
      </trkpt>
      <trkpt lat="48.92187" lon="2.04511">
        <ele>72</ele>
        <time>2024-03-31T08:06:42Z</time>
      </trkpt>
      <trkpt lat="48.92177" lon="2.04515">
        <ele>72</ele>
        <time>2024-03-31T08:07:17Z</time>
      </trkpt>
      <trkpt lat="48.92163" lon="2.04536">
        <ele>72</ele>
        <time>2024-03-31T08:07:34Z</time>
      </trkpt>
      <trkpt lat="48.92158" lon="2.04549">
        <ele>73</ele>
        <time>2024-03-31T08:07:44Z</time>
      </trkpt>
      <trkpt lat="48.9215" lon="2.04561">
        <ele>72</ele>
        <time>2024-03-31T08:07:53Z</time>
      </trkpt>
      <trkpt lat="48.92148" lon="2.04567">
        <ele>73</ele>
        <time>2024-03-31T08:07:58Z</time>
      </trkpt>
      <trkpt lat="48.92143" lon="2.04572">
        <ele>73</ele>
        <time>2024-03-31T08:08:03Z</time>
      </trkpt>
      <trkpt lat="48.9212" lon="2.04609">
        <ele>73</ele>
        <time>2024-03-31T08:08:36Z</time>
      </trkpt>
      <trkpt lat="48.92107" lon="2.04635">
        <ele>72</ele>
        <time>2024-03-31T08:08:55Z</time>
      </trkpt>
      <trkpt lat="48.921" lon="2.04646">
        <ele>72</ele>
        <time>2024-03-31T08:09:08Z</time>
      </trkpt>
      <trkpt lat="48.92098" lon="2.04651">
        <ele>72</ele>
        <time>2024-03-31T08:09:12Z</time>
      </trkpt>
      <trkpt lat="48.92092" lon="2.0466">
        <ele>72</ele>
        <time>2024-03-31T08:09:21Z</time>
      </trkpt>
      <trkpt lat="48.92087" lon="2.04669">
        <ele>72</ele>
        <time>2024-03-31T08:09:28Z</time>
      </trkpt>
      <trkpt lat="48.92068" lon="2.04698">
        <ele>71</ele>
        <time>2024-03-31T08:09:48Z</time>
      </trkpt>
      <trkpt lat="48.92061" lon="2.04712">
        <ele>71</ele>
        <time>2024-03-31T08:10:00Z</time>
      </trkpt>
      <trkpt lat="48.92056" lon="2.04717">
        <ele>71</ele>
        <time>2024-03-31T08:10:05Z</time>
      </trkpt>
      <trkpt lat="48.92051" lon="2.04718">
        <ele>70</ele>
        <time>2024-03-31T08:10:08Z</time>
      </trkpt>
      <trkpt lat="48.92044" lon="2.0473">
        <ele>70</ele>
        <time>2024-03-31T08:10:16Z</time>
      </trkpt>
      <trkpt lat="48.92038" lon="2.04743">
        <ele>69</ele>
        <time>2024-03-31T08:10:24Z</time>
      </trkpt>
      <trkpt lat="48.92011" lon="2.0478">
        <ele>68</ele>
        <time>2024-03-31T08:10:54Z</time>
      </trkpt>
      <trkpt lat="48.91979" lon="2.0482">
        <ele>66</ele>
        <time>2024-03-31T08:11:28Z</time>
      </trkpt>
      <trkpt lat="48.91959" lon="2.04844">
        <ele>66</ele>
        <time>2024-03-31T08:11:49Z</time>
      </trkpt>
      <trkpt lat="48.91954" lon="2.04856">
        <ele>65</ele>
        <time>2024-03-31T08:11:57Z</time>
      </trkpt>
      <trkpt lat="48.9195" lon="2.04861">
        <ele>65</ele>
        <time>2024-03-31T08:12:01Z</time>
      </trkpt>
      <trkpt lat="48.91938" lon="2.04885">
        <ele>65</ele>
        <time>2024-03-31T08:12:19Z</time>
      </trkpt>
      <trkpt lat="48.91928" lon="2.04884">
        <ele>64</ele>
        <time>2024-03-31T08:12:35Z</time>
      </trkpt>
      <trkpt lat="48.91917" lon="2.04886">
        <ele>64</ele>
        <time>2024-03-31T08:12:43Z</time>
      </trkpt>
      <trkpt lat="48.91906" lon="2.04875">
        <ele>64</ele>
        <time>2024-03-31T08:12:57Z</time>
      </trkpt>
      <trkpt lat="48.91902" lon="2.04873">
        <ele>64</ele>
        <time>2024-03-31T08:13:01Z</time>
      </trkpt>
      <trkpt lat="48.91888" lon="2.04836">
        <ele>64</ele>
        <time>2024-03-31T08:13:22Z</time>
      </trkpt>
      <trkpt lat="48.91877" lon="2.04809">
        <ele>64</ele>
        <time>2024-03-31T08:13:41Z</time>
      </trkpt>
      <trkpt lat="48.91861" lon="2.04772">
        <ele>64</ele>
        <time>2024-03-31T08:14:05Z</time>
      </trkpt>
      <trkpt lat="48.91852" lon="2.04759">
        <ele>65</ele>
        <time>2024-03-31T08:14:16Z</time>
      </trkpt>
      <trkpt lat="48.91836" lon="2.04717">
        <ele>65</ele>
        <time>2024-03-31T08:14:41Z</time>
      </trkpt>
      <trkpt lat="48.91824" lon="2.047">
        <ele>65</ele>
        <time>2024-03-31T08:14:53Z</time>
      </trkpt>
      <trkpt lat="48.91821" lon="2.04692">
        <ele>65</ele>
        <time>2024-03-31T08:14:58Z</time>
      </trkpt>
      <trkpt lat="48.91819" lon="2.04684">
        <ele>65</ele>
        <time>2024-03-31T08:15:02Z</time>
      </trkpt>
      <trkpt lat="48.91817" lon="2.04675">
        <ele>65</ele>
        <time>2024-03-31T08:15:07Z</time>
      </trkpt>
      <trkpt lat="48.91812" lon="2.04663">
        <ele>65</ele>
        <time>2024-03-31T08:15:15Z</time>
      </trkpt>
      <trkpt lat="48.91807" lon="2.04657">
        <ele>65</ele>
        <time>2024-03-31T08:15:19Z</time>
      </trkpt>
      <trkpt lat="48.9179" lon="2.04613">
        <ele>65</ele>
        <time>2024-03-31T08:15:43Z</time>
      </trkpt>
      <trkpt lat="48.91779" lon="2.04596">
        <ele>65</ele>
        <time>2024-03-31T08:15:57Z</time>
      </trkpt>
      <trkpt lat="48.91766" lon="2.0457">
        <ele>65</ele>
        <time>2024-03-31T08:16:14Z</time>
      </trkpt>
      <trkpt lat="48.91761" lon="2.04567">
        <ele>65</ele>
        <time>2024-03-31T08:16:19Z</time>
      </trkpt>
      <trkpt lat="48.91758" lon="2.0456">
        <ele>65</ele>
        <time>2024-03-31T08:16:24Z</time>
      </trkpt>
      <trkpt lat="48.91752" lon="2.04546">
        <ele>65</ele>
        <time>2024-03-31T08:16:32Z</time>
      </trkpt>
      <trkpt lat="48.9175" lon="2.04539">
        <ele>65</ele>
        <time>2024-03-31T08:16:44Z</time>
      </trkpt>
      <trkpt lat="48.91743" lon="2.04518">
        <ele>66</ele>
        <time>2024-03-31T08:16:56Z</time>
      </trkpt>
      <trkpt lat="48.91735" lon="2.04497">
        <ele>66</ele>
        <time>2024-03-31T08:17:10Z</time>
      </trkpt>
      <trkpt lat="48.9173" lon="2.04493">
        <ele>66</ele>
        <time>2024-03-31T08:17:15Z</time>
      </trkpt>
      <trkpt lat="48.91728" lon="2.04485">
        <ele>66</ele>
        <time>2024-03-31T08:17:19Z</time>
      </trkpt>
      <trkpt lat="48.91704" lon="2.04435">
        <ele>67</ele>
        <time>2024-03-31T08:17:52Z</time>
      </trkpt>
      <trkpt lat="48.91686" lon="2.04404">
        <ele>67</ele>
        <time>2024-03-31T08:18:12Z</time>
      </trkpt>
      <trkpt lat="48.91685" lon="2.04397">
        <ele>67</ele>
        <time>2024-03-31T08:18:15Z</time>
      </trkpt>
      <trkpt lat="48.91682" lon="2.0439">
        <ele>67</ele>
        <time>2024-03-31T08:18:19Z</time>
      </trkpt>
      <trkpt lat="48.9168" lon="2.04383">
        <ele>67</ele>
        <time>2024-03-31T08:18:23Z</time>
      </trkpt>
      <trkpt lat="48.91677" lon="2.04378">
        <ele>67</ele>
        <time>2024-03-31T08:18:27Z</time>
      </trkpt>
      <trkpt lat="48.91673" lon="2.04374">
        <ele>67</ele>
        <time>2024-03-31T08:18:31Z</time>
      </trkpt>
      <trkpt lat="48.9167" lon="2.04367">
        <ele>67</ele>
        <time>2024-03-31T08:18:35Z</time>
      </trkpt>
      <trkpt lat="48.91668" lon="2.04359">
        <ele>67</ele>
        <time>2024-03-31T08:18:39Z</time>
      </trkpt>
      <trkpt lat="48.91641" lon="2.04309">
        <ele>67</ele>
        <time>2024-03-31T08:19:13Z</time>
      </trkpt>
      <trkpt lat="48.91638" lon="2.04305">
        <ele>67</ele>
        <time>2024-03-31T08:19:18Z</time>
      </trkpt>
      <trkpt lat="48.91634" lon="2.04292">
        <ele>67</ele>
        <time>2024-03-31T08:19:33Z</time>
      </trkpt>
      <trkpt lat="48.91638" lon="2.04277">
        <ele>67</ele>
        <time>2024-03-31T08:19:39Z</time>
      </trkpt>
      <trkpt lat="48.9164" lon="2.04262">
        <ele>67</ele>
        <time>2024-03-31T08:19:46Z</time>
      </trkpt>
      <trkpt lat="48.91645" lon="2.04248">
        <ele>67</ele>
        <time>2024-03-31T08:19:54Z</time>
      </trkpt>
      <trkpt lat="48.91655" lon="2.04212">
        <ele>68</ele>
        <time>2024-03-31T08:20:14Z</time>
      </trkpt>
      <trkpt lat="48.91658" lon="2.04205">
        <ele>69</ele>
        <time>2024-03-31T08:20:18Z</time>
      </trkpt>
      <trkpt lat="48.9167" lon="2.04158">
        <ele>70</ele>
        <time>2024-03-31T08:20:44Z</time>
      </trkpt>
      <trkpt lat="48.91677" lon="2.04138">
        <ele>71</ele>
        <time>2024-03-31T08:20:56Z</time>
      </trkpt>
      <trkpt lat="48.91681" lon="2.04123">
        <ele>71</ele>
        <time>2024-03-31T08:21:04Z</time>
      </trkpt>
      <trkpt lat="48.91698" lon="2.04074">
        <ele>72</ele>
        <time>2024-03-31T08:21:33Z</time>
      </trkpt>
      <trkpt lat="48.91702" lon="2.04051">
        <ele>72</ele>
        <time>2024-03-31T08:21:48Z</time>
      </trkpt>
      <trkpt lat="48.917" lon="2.04043">
        <ele>73</ele>
        <time>2024-03-31T08:21:52Z</time>
      </trkpt>
      <trkpt lat="48.91692" lon="2.04003">
        <ele>72</ele>
        <time>2024-03-31T08:22:15Z</time>
      </trkpt>
      <trkpt lat="48.91692" lon="2.03995">
        <ele>72</ele>
        <time>2024-03-31T08:22:19Z</time>
      </trkpt>
      <trkpt lat="48.9169" lon="2.03988">
        <ele>73</ele>
        <time>2024-03-31T08:22:24Z</time>
      </trkpt>
      <trkpt lat="48.91687" lon="2.03982">
        <ele>73</ele>
        <time>2024-03-31T08:22:29Z</time>
      </trkpt>
      <trkpt lat="48.91681" lon="2.03975">
        <ele>72</ele>
        <time>2024-03-31T08:23:30Z</time>
      </trkpt>
      <trkpt lat="48.91675" lon="2.03973">
        <ele>72</ele>
        <time>2024-03-31T08:23:34Z</time>
      </trkpt>
      <trkpt lat="48.91665" lon="2.03973">
        <ele>71</ele>
        <time>2024-03-31T08:23:41Z</time>
      </trkpt>
      <trkpt lat="48.91622" lon="2.03987">
        <ele>70</ele>
        <time>2024-03-31T08:24:13Z</time>
      </trkpt>
      <trkpt lat="48.91583" lon="2.03997">
        <ele>69</ele>
        <time>2024-03-31T08:24:44Z</time>
      </trkpt>
      <trkpt lat="48.91578" lon="2.03997">
        <ele>68</ele>
        <time>2024-03-31T08:24:48Z</time>
      </trkpt>
      <trkpt lat="48.91542" lon="2.04005">
        <ele>68</ele>
        <time>2024-03-31T08:25:20Z</time>
      </trkpt>
      <trkpt lat="48.91504" lon="2.04011">
        <ele>69</ele>
        <time>2024-03-31T08:25:54Z</time>
      </trkpt>
      <trkpt lat="48.9149" lon="2.04016">
        <ele>69</ele>
        <time>2024-03-31T08:26:07Z</time>
      </trkpt>
      <trkpt lat="48.9148" lon="2.04014">
        <ele>69</ele>
        <time>2024-03-31T08:26:15Z</time>
      </trkpt>
      <trkpt lat="48.91445" lon="2.0401">
        <ele>69</ele>
        <time>2024-03-31T08:26:45Z</time>
      </trkpt>
      <trkpt lat="48.9144" lon="2.04009">
        <ele>69</ele>
        <time>2024-03-31T08:26:49Z</time>
      </trkpt>
      <trkpt lat="48.91407" lon="2.04006">
        <ele>69</ele>
        <time>2024-03-31T08:27:17Z</time>
      </trkpt>
      <trkpt lat="48.91399" lon="2.04005">
        <ele>68</ele>
        <time>2024-03-31T08:27:23Z</time>
      </trkpt>
      <trkpt lat="48.9136" lon="2.03998">
        <ele>66</ele>
        <time>2024-03-31T08:27:55Z</time>
      </trkpt>
      <trkpt lat="48.91321" lon="2.03985">
        <ele>65</ele>
        <time>2024-03-31T08:28:26Z</time>
      </trkpt>
      <trkpt lat="48.91283" lon="2.03973">
        <ele>66</ele>
        <time>2024-03-31T08:28:58Z</time>
      </trkpt>
      <trkpt lat="48.91262" lon="2.03966">
        <ele>66</ele>
        <time>2024-03-31T08:29:14Z</time>
      </trkpt>
      <trkpt lat="48.91232" lon="2.03962">
        <ele>67</ele>
        <time>2024-03-31T08:29:38Z</time>
      </trkpt>
      <trkpt lat="48.91227" lon="2.0396">
        <ele>67</ele>
        <time>2024-03-31T08:29:42Z</time>
      </trkpt>
      <trkpt lat="48.91187" lon="2.03956">
        <ele>67</ele>
        <time>2024-03-31T08:30:14Z</time>
      </trkpt>
      <trkpt lat="48.91178" lon="2.03955">
        <ele>68</ele>
        <time>2024-03-31T08:30:22Z</time>
      </trkpt>
      <trkpt lat="48.91173" lon="2.03956">
        <ele>68</ele>
        <time>2024-03-31T08:30:26Z</time>
      </trkpt>
      <trkpt lat="48.91133" lon="2.03948">
        <ele>68</ele>
        <time>2024-03-31T08:30:59Z</time>
      </trkpt>
      <trkpt lat="48.91125" lon="2.03946">
        <ele>69</ele>
        <time>2024-03-31T08:31:08Z</time>
      </trkpt>
      <trkpt lat="48.9112" lon="2.03944">
        <ele>69</ele>
        <time>2024-03-31T08:31:12Z</time>
      </trkpt>
      <trkpt lat="48.91081" lon="2.03936">
        <ele>70</ele>
        <time>2024-03-31T08:31:44Z</time>
      </trkpt>
      <trkpt lat="48.91043" lon="2.03927">
        <ele>71</ele>
        <time>2024-03-31T08:32:17Z</time>
      </trkpt>
      <trkpt lat="48.91033" lon="2.03923">
        <ele>71</ele>
        <time>2024-03-31T08:32:26Z</time>
      </trkpt>
      <trkpt lat="48.91028" lon="2.03922">
        <ele>71</ele>
        <time>2024-03-31T08:32:30Z</time>
      </trkpt>
      <trkpt lat="48.91019" lon="2.0392">
        <ele>72</ele>
        <time>2024-03-31T08:32:38Z</time>
      </trkpt>
      <trkpt lat="48.91013" lon="2.0392">
        <ele>72</ele>
        <time>2024-03-31T08:32:43Z</time>
      </trkpt>
      <trkpt lat="48.91001" lon="2.03922">
        <ele>73</ele>
        <time>2024-03-31T08:32:56Z</time>
      </trkpt>
      <trkpt lat="48.90991" lon="2.03914">
        <ele>73</ele>
        <time>2024-03-31T08:33:15Z</time>
      </trkpt>
      <trkpt lat="48.90984" lon="2.03912">
        <ele>73</ele>
        <time>2024-03-31T08:33:23Z</time>
      </trkpt>
      <trkpt lat="48.90978" lon="2.03902">
        <ele>74</ele>
        <time>2024-03-31T08:33:32Z</time>
      </trkpt>
      <trkpt lat="48.90976" lon="2.03894">
        <ele>74</ele>
        <time>2024-03-31T08:33:36Z</time>
      </trkpt>
      <trkpt lat="48.90976" lon="2.03887">
        <ele>74</ele>
        <time>2024-03-31T08:33:46Z</time>
      </trkpt>
      <trkpt lat="48.90969" lon="2.03889">
        <ele>74</ele>
        <time>2024-03-31T08:34:04Z</time>
      </trkpt>
      <trkpt lat="48.9094" lon="2.03883">
        <ele>76</ele>
        <time>2024-03-31T08:34:38Z</time>
      </trkpt>
      <trkpt lat="48.90921" lon="2.03879">
        <ele>77</ele>
        <time>2024-03-31T08:34:55Z</time>
      </trkpt>
      <trkpt lat="48.90884" lon="2.03859">
        <ele>80</ele>
        <time>2024-03-31T08:35:30Z</time>
      </trkpt>
      <trkpt lat="48.90851" lon="2.03843">
        <ele>83</ele>
        <time>2024-03-31T08:36:01Z</time>
      </trkpt>
      <trkpt lat="48.90815" lon="2.03827">
        <ele>86</ele>
        <time>2024-03-31T08:36:35Z</time>
      </trkpt>
      <trkpt lat="48.90797" lon="2.03815">
        <ele>89</ele>
        <time>2024-03-31T08:36:54Z</time>
      </trkpt>
      <trkpt lat="48.90762" lon="2.03801">
        <ele>92</ele>
        <time>2024-03-31T08:37:28Z</time>
      </trkpt>
      <trkpt lat="48.90755" lon="2.03797">
        <ele>93</ele>
        <time>2024-03-31T08:37:40Z</time>
      </trkpt>
      <trkpt lat="48.9075" lon="2.03797">
        <ele>94</ele>
        <time>2024-03-31T08:37:52Z</time>
      </trkpt>
      <trkpt lat="48.90744" lon="2.03799">
        <ele>94</ele>
        <time>2024-03-31T08:37:59Z</time>
      </trkpt>
      <trkpt lat="48.9073" lon="2.03813">
        <ele>95</ele>
        <time>2024-03-31T08:38:19Z</time>
      </trkpt>
      <trkpt lat="48.90723" lon="2.03826">
        <ele>96</ele>
        <time>2024-03-31T08:38:30Z</time>
      </trkpt>
      <trkpt lat="48.90718" lon="2.03838">
        <ele>96</ele>
        <time>2024-03-31T08:38:41Z</time>
      </trkpt>
      <trkpt lat="48.90714" lon="2.03844">
        <ele>96</ele>
        <time>2024-03-31T08:38:46Z</time>
      </trkpt>
      <trkpt lat="48.90712" lon="2.03851">
        <ele>97</ele>
        <time>2024-03-31T08:38:50Z</time>
      </trkpt>
      <trkpt lat="48.90692" lon="2.03895">
        <ele>97</ele>
        <time>2024-03-31T08:39:18Z</time>
      </trkpt>
      <trkpt lat="48.90688" lon="2.039">
        <ele>97</ele>
        <time>2024-03-31T08:39:22Z</time>
      </trkpt>
      <trkpt lat="48.90683" lon="2.03913">
        <ele>97</ele>
        <time>2024-03-31T08:39:31Z</time>
      </trkpt>
      <trkpt lat="48.90678" lon="2.03911">
        <ele>98</ele>
        <time>2024-03-31T08:39:35Z</time>
      </trkpt>
      <trkpt lat="48.90675" lon="2.03914">
        <ele>97</ele>
        <time>2024-03-31T08:40:15Z</time>
      </trkpt>
      <trkpt lat="48.90671" lon="2.03923">
        <ele>97</ele>
        <time>2024-03-31T08:40:38Z</time>
      </trkpt>
      <trkpt lat="48.90666" lon="2.03919">
        <ele>97</ele>
        <time>2024-03-31T08:40:42Z</time>
      </trkpt>
      <trkpt lat="48.90656" lon="2.03911">
        <ele>98</ele>
        <time>2024-03-31T08:40:50Z</time>
      </trkpt>
      <trkpt lat="48.90651" lon="2.03904">
        <ele>98</ele>
        <time>2024-03-31T08:40:54Z</time>
      </trkpt>
      <trkpt lat="48.90637" lon="2.03897">
        <ele>100</ele>
        <time>2024-03-31T08:41:06Z</time>
      </trkpt>
      <trkpt lat="48.90632" lon="2.03896">
        <ele>100</ele>
        <time>2024-03-31T08:41:09Z</time>
      </trkpt>
      <trkpt lat="48.9061" lon="2.03885">
        <ele>103</ele>
        <time>2024-03-31T08:41:31Z</time>
      </trkpt>
      <trkpt lat="48.90605" lon="2.0388">
        <ele>103</ele>
        <time>2024-03-31T08:41:35Z</time>
      </trkpt>
      <trkpt lat="48.906" lon="2.03877">
        <ele>103</ele>
        <time>2024-03-31T08:41:40Z</time>
      </trkpt>
      <trkpt lat="48.90596" lon="2.03874">
        <ele>103</ele>
        <time>2024-03-31T08:41:43Z</time>
      </trkpt>
      <trkpt lat="48.90587" lon="2.03872">
        <ele>105</ele>
        <time>2024-03-31T08:41:53Z</time>
      </trkpt>
      <trkpt lat="48.90582" lon="2.03883">
        <ele>105</ele>
        <time>2024-03-31T08:42:02Z</time>
      </trkpt>
      <trkpt lat="48.90581" lon="2.03897">
        <ele>106</ele>
        <time>2024-03-31T08:42:13Z</time>
      </trkpt>
      <trkpt lat="48.90577" lon="2.03904">
        <ele>106</ele>
        <time>2024-03-31T08:42:19Z</time>
      </trkpt>
      <trkpt lat="48.90575" lon="2.03914">
        <ele>106</ele>
        <time>2024-03-31T08:42:27Z</time>
      </trkpt>
      <trkpt lat="48.9057" lon="2.03927">
        <ele>106</ele>
        <time>2024-03-31T08:42:35Z</time>
      </trkpt>
      <trkpt lat="48.90562" lon="2.03931">
        <ele>106</ele>
        <time>2024-03-31T08:42:45Z</time>
      </trkpt>
      <trkpt lat="48.90552" lon="2.03927">
        <ele>106</ele>
        <time>2024-03-31T08:42:51Z</time>
      </trkpt>
      <trkpt lat="48.90539" lon="2.03905">
        <ele>108</ele>
        <time>2024-03-31T08:43:08Z</time>
      </trkpt>
      <trkpt lat="48.90542" lon="2.03881">
        <ele>109</ele>
        <time>2024-03-31T08:43:15Z</time>
      </trkpt>
      <trkpt lat="48.90539" lon="2.03873">
        <ele>110</ele>
        <time>2024-03-31T08:43:21Z</time>
      </trkpt>
      <trkpt lat="48.9053" lon="2.03861">
        <ele>112</ele>
        <time>2024-03-31T08:43:31Z</time>
      </trkpt>
      <trkpt lat="48.90496" lon="2.03847">
        <ele>115</ele>
        <time>2024-03-31T08:44:01Z</time>
      </trkpt>
      <trkpt lat="48.90482" lon="2.03839">
        <ele>117</ele>
        <time>2024-03-31T08:44:15Z</time>
      </trkpt>
      <trkpt lat="48.90478" lon="2.03834">
        <ele>117</ele>
        <time>2024-03-31T08:44:19Z</time>
      </trkpt>
      <trkpt lat="48.90465" lon="2.03812">
        <ele>119</ele>
        <time>2024-03-31T08:44:36Z</time>
      </trkpt>
      <trkpt lat="48.90461" lon="2.03808">
        <ele>119</ele>
        <time>2024-03-31T08:44:40Z</time>
      </trkpt>
      <trkpt lat="48.90446" lon="2.03799">
        <ele>122</ele>
        <time>2024-03-31T08:44:55Z</time>
      </trkpt>
      <trkpt lat="48.90414" lon="2.03784">
        <ele>126</ele>
        <time>2024-03-31T08:45:27Z</time>
      </trkpt>
      <trkpt lat="48.90402" lon="2.03779">
        <ele>128</ele>
        <time>2024-03-31T08:45:39Z</time>
      </trkpt>
      <trkpt lat="48.90388" lon="2.03779">
        <ele>130</ele>
        <time>2024-03-31T08:45:53Z</time>
      </trkpt>
      <trkpt lat="48.90383" lon="2.03781">
        <ele>130</ele>
        <time>2024-03-31T08:46:12Z</time>
      </trkpt>
      <trkpt lat="48.90379" lon="2.03786">
        <ele>131</ele>
        <time>2024-03-31T08:46:18Z</time>
      </trkpt>
      <trkpt lat="48.90376" lon="2.03791">
        <ele>131</ele>
        <time>2024-03-31T08:46:24Z</time>
      </trkpt>
      <trkpt lat="48.90372" lon="2.03795">
        <ele>131</ele>
        <time>2024-03-31T08:46:30Z</time>
      </trkpt>
      <trkpt lat="48.90341" lon="2.0381">
        <ele>134</ele>
        <time>2024-03-31T08:47:02Z</time>
      </trkpt>
      <trkpt lat="48.90337" lon="2.03812">
        <ele>134</ele>
        <time>2024-03-31T08:47:06Z</time>
      </trkpt>
      <trkpt lat="48.90328" lon="2.03816">
        <ele>135</ele>
        <time>2024-03-31T08:47:14Z</time>
      </trkpt>
      <trkpt lat="48.90315" lon="2.03825">
        <ele>136</ele>
        <time>2024-03-31T08:47:28Z</time>
      </trkpt>
      <trkpt lat="48.90311" lon="2.0383">
        <ele>136</ele>
        <time>2024-03-31T08:47:32Z</time>
      </trkpt>
      <trkpt lat="48.90307" lon="2.03834">
        <ele>136</ele>
        <time>2024-03-31T08:47:36Z</time>
      </trkpt>
      <trkpt lat="48.90297" lon="2.03849">
        <ele>137</ele>
        <time>2024-03-31T08:47:49Z</time>
      </trkpt>
      <trkpt lat="48.90295" lon="2.03856">
        <ele>138</ele>
        <time>2024-03-31T08:47:53Z</time>
      </trkpt>
      <trkpt lat="48.90291" lon="2.0386">
        <ele>137</ele>
        <time>2024-03-31T08:47:57Z</time>
      </trkpt>
      <trkpt lat="48.90286" lon="2.0386">
        <ele>137</ele>
        <time>2024-03-31T08:48:01Z</time>
      </trkpt>
      <trkpt lat="48.90282" lon="2.0386">
        <ele>137</ele>
        <time>2024-03-31T08:48:05Z</time>
      </trkpt>
      <trkpt lat="48.90277" lon="2.03862">
        <ele>138</ele>
        <time>2024-03-31T08:48:09Z</time>
      </trkpt>
      <trkpt lat="48.90272" lon="2.03863">
        <ele>138</ele>
        <time>2024-03-31T08:48:14Z</time>
      </trkpt>
      <trkpt lat="48.90262" lon="2.03865">
        <ele>138</ele>
        <time>2024-03-31T08:48:26Z</time>
      </trkpt>
      <trkpt lat="48.90258" lon="2.03861">
        <ele>140</ele>
        <time>2024-03-31T08:48:48Z</time>
      </trkpt>
      <trkpt lat="48.90256" lon="2.0385">
        <ele>140</ele>
        <time>2024-03-31T08:49:07Z</time>
      </trkpt>
      <trkpt lat="48.90252" lon="2.03844">
        <ele>140</ele>
        <time>2024-03-31T08:49:10Z</time>
      </trkpt>
      <trkpt lat="48.90247" lon="2.03835">
        <ele>141</ele>
        <time>2024-03-31T08:49:19Z</time>
      </trkpt>
      <trkpt lat="48.9022" lon="2.03821">
        <ele>146</ele>
        <time>2024-03-31T08:49:50Z</time>
      </trkpt>
      <trkpt lat="48.90213" lon="2.03825">
        <ele>147</ele>
        <time>2024-03-31T08:49:59Z</time>
      </trkpt>
      <trkpt lat="48.90212" lon="2.03832">
        <ele>147</ele>
        <time>2024-03-31T08:50:02Z</time>
      </trkpt>
      <trkpt lat="48.90211" lon="2.03839">
        <ele>147</ele>
        <time>2024-03-31T08:50:07Z</time>
      </trkpt>
      <trkpt lat="48.90208" lon="2.03847">
        <ele>147</ele>
        <time>2024-03-31T08:50:12Z</time>
      </trkpt>
      <trkpt lat="48.90205" lon="2.03861">
        <ele>147</ele>
        <time>2024-03-31T08:50:20Z</time>
      </trkpt>
      <trkpt lat="48.90203" lon="2.03876">
        <ele>147</ele>
        <time>2024-03-31T08:50:29Z</time>
      </trkpt>
      <trkpt lat="48.90201" lon="2.03883">
        <ele>147</ele>
        <time>2024-03-31T08:50:33Z</time>
      </trkpt>
      <trkpt lat="48.90199" lon="2.03891">
        <ele>147</ele>
        <time>2024-03-31T08:50:38Z</time>
      </trkpt>
      <trkpt lat="48.90196" lon="2.03905">
        <ele>146</ele>
        <time>2024-03-31T08:50:47Z</time>
      </trkpt>
      <trkpt lat="48.90194" lon="2.03912">
        <ele>146</ele>
        <time>2024-03-31T08:50:52Z</time>
      </trkpt>
      <trkpt lat="48.9019" lon="2.03934">
        <ele>145</ele>
        <time>2024-03-31T08:51:05Z</time>
      </trkpt>
      <trkpt lat="48.90189" lon="2.03941">
        <ele>146</ele>
        <time>2024-03-31T08:51:10Z</time>
      </trkpt>
      <trkpt lat="48.90181" lon="2.03983">
        <ele>144</ele>
        <time>2024-03-31T08:51:38Z</time>
      </trkpt>
      <trkpt lat="48.90186" lon="2.03983">
        <ele>144</ele>
        <time>2024-03-31T08:52:33Z</time>
      </trkpt>
      <trkpt lat="48.90183" lon="2.03992">
        <ele>144</ele>
        <time>2024-03-31T08:53:27Z</time>
      </trkpt>
      <trkpt lat="48.90185" lon="2.0399">
        <ele>143</ele>
        <time>2024-03-31T08:54:55Z</time>
      </trkpt>
      <trkpt lat="48.90176" lon="2.03994">
        <ele>143</ele>
        <time>2024-03-31T08:55:36Z</time>
      </trkpt>
      <trkpt lat="48.90181" lon="2.03988">
        <ele>144</ele>
        <time>2024-03-31T08:56:07Z</time>
      </trkpt>
      <trkpt lat="48.90183" lon="2.03981">
        <ele>143</ele>
        <time>2024-03-31T08:56:29Z</time>
      </trkpt>
      <trkpt lat="48.90189" lon="2.03979">
        <ele>144</ele>
        <time>2024-03-31T08:56:35Z</time>
      </trkpt>
      <trkpt lat="48.90193" lon="2.03986">
        <ele>143</ele>
        <time>2024-03-31T08:56:40Z</time>
      </trkpt>
      <trkpt lat="48.90195" lon="2.03992">
        <ele>142</ele>
        <time>2024-03-31T08:56:43Z</time>
      </trkpt>
      <trkpt lat="48.90193" lon="2.03992">
        <ele>142</ele>
        <time>2024-03-31T08:57:44Z</time>
      </trkpt>
      <trkpt lat="48.90188" lon="2.03988">
        <ele>142</ele>
        <time>2024-03-31T08:57:48Z</time>
      </trkpt>
      <trkpt lat="48.90182" lon="2.03994">
        <ele>143</ele>
        <time>2024-03-31T08:58:04Z</time>
      </trkpt>
      <trkpt lat="48.9018" lon="2.04">
        <ele>143</ele>
        <time>2024-03-31T08:59:27Z</time>
      </trkpt>
      <trkpt lat="48.90175" lon="2.04003">
        <ele>143</ele>
        <time>2024-03-31T08:59:45Z</time>
      </trkpt>
      <trkpt lat="48.9017" lon="2.04007">
        <ele>144</ele>
        <time>2024-03-31T08:59:51Z</time>
      </trkpt>
      <trkpt lat="48.90166" lon="2.04012">
        <ele>144</ele>
        <time>2024-03-31T08:59:56Z</time>
      </trkpt>
      <trkpt lat="48.90162" lon="2.04018">
        <ele>144</ele>
        <time>2024-03-31T09:00:01Z</time>
      </trkpt>
      <trkpt lat="48.9016" lon="2.04024">
        <ele>144</ele>
        <time>2024-03-31T09:00:05Z</time>
      </trkpt>
      <trkpt lat="48.90158" lon="2.04031">
        <ele>144</ele>
        <time>2024-03-31T09:00:09Z</time>
      </trkpt>
      <trkpt lat="48.90155" lon="2.04037">
        <ele>144</ele>
        <time>2024-03-31T09:00:14Z</time>
      </trkpt>
      <trkpt lat="48.90139" lon="2.04089">
        <ele>144</ele>
        <time>2024-03-31T09:00:45Z</time>
      </trkpt>
      <trkpt lat="48.90136" lon="2.04096">
        <ele>144</ele>
        <time>2024-03-31T09:00:49Z</time>
      </trkpt>
      <trkpt lat="48.90134" lon="2.04103">
        <ele>143</ele>
        <time>2024-03-31T09:00:53Z</time>
      </trkpt>
      <trkpt lat="48.90123" lon="2.04122">
        <ele>144</ele>
        <time>2024-03-31T09:01:04Z</time>
      </trkpt>
      <trkpt lat="48.90118" lon="2.04125">
        <ele>144</ele>
        <time>2024-03-31T09:01:08Z</time>
      </trkpt>
      <trkpt lat="48.90114" lon="2.0413">
        <ele>144</ele>
        <time>2024-03-31T09:01:13Z</time>
      </trkpt>
      <trkpt lat="48.90108" lon="2.04136">
        <ele>144</ele>
        <time>2024-03-31T09:01:21Z</time>
      </trkpt>
      <trkpt lat="48.90103" lon="2.04138">
        <ele>144</ele>
        <time>2024-03-31T09:01:25Z</time>
      </trkpt>
      <trkpt lat="48.90098" lon="2.04141">
        <ele>145</ele>
        <time>2024-03-31T09:01:29Z</time>
      </trkpt>
      <trkpt lat="48.90074" lon="2.0416">
        <ele>144</ele>
        <time>2024-03-31T09:01:54Z</time>
      </trkpt>
      <trkpt lat="48.90074" lon="2.04169">
        <ele>144</ele>
        <time>2024-03-31T09:01:59Z</time>
      </trkpt>
      <trkpt lat="48.90074" lon="2.04175">
        <ele>144</ele>
        <time>2024-03-31T09:02:03Z</time>
      </trkpt>
      <trkpt lat="48.90074" lon="2.04209">
        <ele>142</ele>
        <time>2024-03-31T09:02:22Z</time>
      </trkpt>
      <trkpt lat="48.90075" lon="2.04217">
        <ele>142</ele>
        <time>2024-03-31T09:02:26Z</time>
      </trkpt>
      <trkpt lat="48.90078" lon="2.04262">
        <ele>141</ele>
        <time>2024-03-31T09:02:49Z</time>
      </trkpt>
      <trkpt lat="48.90079" lon="2.04269">
        <ele>140</ele>
        <time>2024-03-31T09:02:54Z</time>
      </trkpt>
      <trkpt lat="48.90079" lon="2.04278">
        <ele>140</ele>
        <time>2024-03-31T09:02:59Z</time>
      </trkpt>
      <trkpt lat="48.90081" lon="2.04284">
        <ele>139</ele>
        <time>2024-03-31T09:03:03Z</time>
      </trkpt>
      <trkpt lat="48.90082" lon="2.04292">
        <ele>139</ele>
        <time>2024-03-31T09:03:08Z</time>
      </trkpt>
      <trkpt lat="48.90081" lon="2.04299">
        <ele>139</ele>
        <time>2024-03-31T09:03:30Z</time>
      </trkpt>
      <trkpt lat="48.90081" lon="2.04309">
        <ele>138</ele>
        <time>2024-03-31T09:03:42Z</time>
      </trkpt>
      <trkpt lat="48.90082" lon="2.04345">
        <ele>137</ele>
        <time>2024-03-31T09:04:07Z</time>
      </trkpt>
      <trkpt lat="48.90084" lon="2.04354">
        <ele>136</ele>
        <time>2024-03-31T09:04:15Z</time>
      </trkpt>
      <trkpt lat="48.90086" lon="2.04364">
        <ele>136</ele>
        <time>2024-03-31T09:04:35Z</time>
      </trkpt>
      <trkpt lat="48.9008" lon="2.04366">
        <ele>135</ele>
        <time>2024-03-31T09:04:41Z</time>
      </trkpt>
      <trkpt lat="48.90075" lon="2.04365">
        <ele>135</ele>
        <time>2024-03-31T09:04:47Z</time>
      </trkpt>
      <trkpt lat="48.9007" lon="2.04363">
        <ele>135</ele>
        <time>2024-03-31T09:04:52Z</time>
      </trkpt>
      <trkpt lat="48.90062" lon="2.04364">
        <ele>134</ele>
        <time>2024-03-31T09:05:00Z</time>
      </trkpt>
      <trkpt lat="48.90056" lon="2.04365">
        <ele>134</ele>
        <time>2024-03-31T09:05:04Z</time>
      </trkpt>
      <trkpt lat="48.90038" lon="2.04369">
        <ele>130</ele>
        <time>2024-03-31T09:05:23Z</time>
      </trkpt>
      <trkpt lat="48.90033" lon="2.04374">
        <ele>130</ele>
        <time>2024-03-31T09:05:27Z</time>
      </trkpt>
      <trkpt lat="48.90018" lon="2.04383">
        <ele>126</ele>
        <time>2024-03-31T09:05:47Z</time>
      </trkpt>
      <trkpt lat="48.90012" lon="2.04383">
        <ele>125</ele>
        <time>2024-03-31T09:05:52Z</time>
      </trkpt>
      <trkpt lat="48.90006" lon="2.04393">
        <ele>125</ele>
        <time>2024-03-31T09:06:05Z</time>
      </trkpt>
      <trkpt lat="48.89993" lon="2.04401">
        <ele>122</ele>
        <time>2024-03-31T09:06:20Z</time>
      </trkpt>
      <trkpt lat="48.89989" lon="2.04411">
        <ele>121</ele>
        <time>2024-03-31T09:06:27Z</time>
      </trkpt>
      <trkpt lat="48.89984" lon="2.04415">
        <ele>120</ele>
        <time>2024-03-31T09:06:33Z</time>
      </trkpt>
      <trkpt lat="48.89975" lon="2.04428">
        <ele>118</ele>
        <time>2024-03-31T09:06:42Z</time>
      </trkpt>
      <trkpt lat="48.89966" lon="2.04436">
        <ele>116</ele>
        <time>2024-03-31T09:06:51Z</time>
      </trkpt>
      <trkpt lat="48.89962" lon="2.04437">
        <ele>115</ele>
        <time>2024-03-31T09:06:56Z</time>
      </trkpt>
      <trkpt lat="48.89936" lon="2.04428">
        <ele>114</ele>
        <time>2024-03-31T09:07:18Z</time>
      </trkpt>
      <trkpt lat="48.89928" lon="2.04429">
        <ele>113</ele>
        <time>2024-03-31T09:07:26Z</time>
      </trkpt>
      <trkpt lat="48.89924" lon="2.04426">
        <ele>113</ele>
        <time>2024-03-31T09:07:30Z</time>
      </trkpt>
      <trkpt lat="48.89917" lon="2.0443">
        <ele>113</ele>
        <time>2024-03-31T09:07:38Z</time>
      </trkpt>
      <trkpt lat="48.89912" lon="2.04429">
        <ele>112</ele>
        <time>2024-03-31T09:07:43Z</time>
      </trkpt>
      <trkpt lat="48.89908" lon="2.04431">
        <ele>112</ele>
        <time>2024-03-31T09:07:48Z</time>
      </trkpt>
      <trkpt lat="48.89906" lon="2.04438">
        <ele>111</ele>
        <time>2024-03-31T09:07:53Z</time>
      </trkpt>
      <trkpt lat="48.89907" lon="2.04447">
        <ele>110</ele>
        <time>2024-03-31T09:07:58Z</time>
      </trkpt>
      <trkpt lat="48.89905" lon="2.04463">
        <ele>108</ele>
        <time>2024-03-31T09:08:07Z</time>
      </trkpt>
      <trkpt lat="48.89903" lon="2.0447">
        <ele>108</ele>
        <time>2024-03-31T09:08:11Z</time>
      </trkpt>
      <trkpt lat="48.89903" lon="2.04477">
        <ele>107</ele>
        <time>2024-03-31T09:08:15Z</time>
      </trkpt>
      <trkpt lat="48.89894" lon="2.04495">
        <ele>106</ele>
        <time>2024-03-31T09:08:28Z</time>
      </trkpt>
      <trkpt lat="48.89888" lon="2.04499">
        <ele>104</ele>
        <time>2024-03-31T09:08:34Z</time>
      </trkpt>
      <trkpt lat="48.89871" lon="2.04519">
        <ele>100</ele>
        <time>2024-03-31T09:08:52Z</time>
      </trkpt>
      <trkpt lat="48.89864" lon="2.04529">
        <ele>99</ele>
        <time>2024-03-31T09:08:59Z</time>
      </trkpt>
      <trkpt lat="48.8985" lon="2.04543">
        <ele>96</ele>
        <time>2024-03-31T09:09:12Z</time>
      </trkpt>
      <trkpt lat="48.89847" lon="2.04548">
        <ele>95</ele>
        <time>2024-03-31T09:09:15Z</time>
      </trkpt>
      <trkpt lat="48.89843" lon="2.04552">
        <ele>94</ele>
        <time>2024-03-31T09:09:19Z</time>
      </trkpt>
      <trkpt lat="48.89834" lon="2.04558">
        <ele>92</ele>
        <time>2024-03-31T09:09:29Z</time>
      </trkpt>
      <trkpt lat="48.89821" lon="2.04572">
        <ele>90</ele>
        <time>2024-03-31T09:09:42Z</time>
      </trkpt>
      <trkpt lat="48.8981" lon="2.0458">
        <ele>88</ele>
        <time>2024-03-31T09:09:54Z</time>
      </trkpt>
      <trkpt lat="48.89804" lon="2.04586">
        <ele>87</ele>
        <time>2024-03-31T09:10:00Z</time>
      </trkpt>
      <trkpt lat="48.89796" lon="2.04595">
        <ele>87</ele>
        <time>2024-03-31T09:10:08Z</time>
      </trkpt>
      <trkpt lat="48.89784" lon="2.0461">
        <ele>85</ele>
        <time>2024-03-31T09:10:20Z</time>
      </trkpt>
      <trkpt lat="48.8978" lon="2.04616">
        <ele>85</ele>
        <time>2024-03-31T09:10:24Z</time>
      </trkpt>
      <trkpt lat="48.89772" lon="2.04617">
        <ele>86</ele>
        <time>2024-03-31T09:10:33Z</time>
      </trkpt>
      <trkpt lat="48.89768" lon="2.04613">
        <ele>86</ele>
        <time>2024-03-31T09:10:37Z</time>
      </trkpt>
      <trkpt lat="48.89763" lon="2.04605">
        <ele>86</ele>
        <time>2024-03-31T09:10:45Z</time>
      </trkpt>
      <trkpt lat="48.89759" lon="2.04584">
        <ele>86</ele>
        <time>2024-03-31T09:10:57Z</time>
      </trkpt>
      <trkpt lat="48.89759" lon="2.04576">
        <ele>86</ele>
        <time>2024-03-31T09:11:01Z</time>
      </trkpt>
      <trkpt lat="48.89751" lon="2.04533">
        <ele>87</ele>
        <time>2024-03-31T09:11:26Z</time>
      </trkpt>
      <trkpt lat="48.89748" lon="2.04523">
        <ele>87</ele>
        <time>2024-03-31T09:11:33Z</time>
      </trkpt>
      <trkpt lat="48.89744" lon="2.04506">
        <ele>87</ele>
        <time>2024-03-31T09:11:45Z</time>
      </trkpt>
      <trkpt lat="48.89745" lon="2.04498">
        <ele>87</ele>
        <time>2024-03-31T09:11:49Z</time>
      </trkpt>
      <trkpt lat="48.89741" lon="2.04491">
        <ele>88</ele>
        <time>2024-03-31T09:11:55Z</time>
      </trkpt>
      <trkpt lat="48.89737" lon="2.04468">
        <ele>88</ele>
        <time>2024-03-31T09:12:08Z</time>
      </trkpt>
      <trkpt lat="48.89732" lon="2.04457">
        <ele>88</ele>
        <time>2024-03-31T09:12:15Z</time>
      </trkpt>
      <trkpt lat="48.8973" lon="2.04444">
        <ele>88</ele>
        <time>2024-03-31T09:12:22Z</time>
      </trkpt>
      <trkpt lat="48.89725" lon="2.04433">
        <ele>88</ele>
        <time>2024-03-31T09:12:29Z</time>
      </trkpt>
      <trkpt lat="48.89711" lon="2.04378">
        <ele>88</ele>
        <time>2024-03-31T09:13:00Z</time>
      </trkpt>
      <trkpt lat="48.89711" lon="2.04368">
        <ele>88</ele>
        <time>2024-03-31T09:13:14Z</time>
      </trkpt>
      <trkpt lat="48.89708" lon="2.04362">
        <ele>89</ele>
        <time>2024-03-31T09:13:43Z</time>
      </trkpt>
      <trkpt lat="48.89706" lon="2.04357">
        <ele>89</ele>
        <time>2024-03-31T09:13:46Z</time>
      </trkpt>
      <trkpt lat="48.89706" lon="2.04349">
        <ele>88</ele>
        <time>2024-03-31T09:13:51Z</time>
      </trkpt>
      <trkpt lat="48.89702" lon="2.04337">
        <ele>91</ele>
        <time>2024-03-31T09:13:58Z</time>
      </trkpt>
      <trkpt lat="48.897" lon="2.04331">
        <ele>90</ele>
        <time>2024-03-31T09:14:02Z</time>
      </trkpt>
      <trkpt lat="48.89699" lon="2.04325">
        <ele>89</ele>
        <time>2024-03-31T09:14:05Z</time>
      </trkpt>
      <trkpt lat="48.89698" lon="2.04318">
        <ele>89</ele>
        <time>2024-03-31T09:14:08Z</time>
      </trkpt>
      <trkpt lat="48.89684" lon="2.0429">
        <ele>89</ele>
        <time>2024-03-31T09:14:23Z</time>
      </trkpt>
      <trkpt lat="48.89681" lon="2.04286">
        <ele>89</ele>
        <time>2024-03-31T09:14:26Z</time>
      </trkpt>
      <trkpt lat="48.89674" lon="2.04276">
        <ele>89</ele>
        <time>2024-03-31T09:14:34Z</time>
      </trkpt>
      <trkpt lat="48.89669" lon="2.04273">
        <ele>89</ele>
        <time>2024-03-31T09:14:39Z</time>
      </trkpt>
      <trkpt lat="48.89662" lon="2.04264">
        <ele>90</ele>
        <time>2024-03-31T09:14:46Z</time>
      </trkpt>
      <trkpt lat="48.89658" lon="2.04257">
        <ele>90</ele>
        <time>2024-03-31T09:14:50Z</time>
      </trkpt>
      <trkpt lat="48.89656" lon="2.04252">
        <ele>90</ele>
        <time>2024-03-31T09:14:53Z</time>
      </trkpt>
      <trkpt lat="48.89655" lon="2.04244">
        <ele>90</ele>
        <time>2024-03-31T09:14:57Z</time>
      </trkpt>
      <trkpt lat="48.89644" lon="2.0422">
        <ele>91</ele>
        <time>2024-03-31T09:15:13Z</time>
      </trkpt>
      <trkpt lat="48.8964" lon="2.04207">
        <ele>91</ele>
        <time>2024-03-31T09:15:22Z</time>
      </trkpt>
      <trkpt lat="48.89631" lon="2.04193">
        <ele>92</ele>
        <time>2024-03-31T09:15:33Z</time>
      </trkpt>
      <trkpt lat="48.89629" lon="2.04186">
        <ele>93</ele>
        <time>2024-03-31T09:15:37Z</time>
      </trkpt>
      <trkpt lat="48.89616" lon="2.04171">
        <ele>92</ele>
        <time>2024-03-31T09:15:48Z</time>
      </trkpt>
      <trkpt lat="48.89615" lon="2.04164">
        <ele>92</ele>
        <time>2024-03-31T09:15:52Z</time>
      </trkpt>
      <trkpt lat="48.89606" lon="2.04152">
        <ele>93</ele>
        <time>2024-03-31T09:16:02Z</time>
      </trkpt>
      <trkpt lat="48.89603" lon="2.04146">
        <ele>93</ele>
        <time>2024-03-31T09:16:07Z</time>
      </trkpt>
      <trkpt lat="48.89595" lon="2.04138">
        <ele>93</ele>
        <time>2024-03-31T09:16:15Z</time>
      </trkpt>
      <trkpt lat="48.89587" lon="2.04128">
        <ele>93</ele>
        <time>2024-03-31T09:16:22Z</time>
      </trkpt>
      <trkpt lat="48.89583" lon="2.04125">
        <ele>93</ele>
        <time>2024-03-31T09:16:25Z</time>
      </trkpt>
      <trkpt lat="48.8958" lon="2.0412">
        <ele>93</ele>
        <time>2024-03-31T09:16:29Z</time>
      </trkpt>
      <trkpt lat="48.89574" lon="2.04118">
        <ele>93</ele>
        <time>2024-03-31T09:16:33Z</time>
      </trkpt>
      <trkpt lat="48.89569" lon="2.04121">
        <ele>94</ele>
        <time>2024-03-31T09:16:42Z</time>
      </trkpt>
      <trkpt lat="48.89549" lon="2.04146">
        <ele>99</ele>
        <time>2024-03-31T09:17:17Z</time>
      </trkpt>
      <trkpt lat="48.89545" lon="2.0415">
        <ele>99</ele>
        <time>2024-03-31T09:17:21Z</time>
      </trkpt>
      <trkpt lat="48.89542" lon="2.04156">
        <ele>100</ele>
        <time>2024-03-31T09:17:29Z</time>
      </trkpt>
      <trkpt lat="48.89538" lon="2.04161">
        <ele>100</ele>
        <time>2024-03-31T09:17:34Z</time>
      </trkpt>
      <trkpt lat="48.89526" lon="2.04178">
        <ele>103</ele>
        <time>2024-03-31T09:17:56Z</time>
      </trkpt>
      <trkpt lat="48.89518" lon="2.04174">
        <ele>103</ele>
        <time>2024-03-31T09:18:08Z</time>
      </trkpt>
      <trkpt lat="48.89515" lon="2.04169">
        <ele>104</ele>
        <time>2024-03-31T09:18:22Z</time>
      </trkpt>
      <trkpt lat="48.89501" lon="2.0415">
        <ele>106</ele>
        <time>2024-03-31T09:18:53Z</time>
      </trkpt>
      <trkpt lat="48.89497" lon="2.04146">
        <ele>106</ele>
        <time>2024-03-31T09:18:57Z</time>
      </trkpt>
      <trkpt lat="48.8949" lon="2.04134">
        <ele>107</ele>
        <time>2024-03-31T09:19:05Z</time>
      </trkpt>
      <trkpt lat="48.89485" lon="2.04124">
        <ele>107</ele>
        <time>2024-03-31T09:19:19Z</time>
      </trkpt>
      <trkpt lat="48.89481" lon="2.04121">
        <ele>107</ele>
        <time>2024-03-31T09:19:25Z</time>
      </trkpt>
      <trkpt lat="48.89476" lon="2.04116">
        <ele>107</ele>
        <time>2024-03-31T09:19:31Z</time>
      </trkpt>
      <trkpt lat="48.89475" lon="2.04108">
        <ele>107</ele>
        <time>2024-03-31T09:19:38Z</time>
      </trkpt>
      <trkpt lat="48.8947" lon="2.04102">
        <ele>106</ele>
        <time>2024-03-31T09:19:50Z</time>
      </trkpt>
      <trkpt lat="48.89467" lon="2.04096">
        <ele>107</ele>
        <time>2024-03-31T09:20:02Z</time>
      </trkpt>
      <trkpt lat="48.89466" lon="2.0409">
        <ele>107</ele>
        <time>2024-03-31T09:20:14Z</time>
      </trkpt>
      <trkpt lat="48.89461" lon="2.04085">
        <ele>106</ele>
        <time>2024-03-31T09:20:56Z</time>
      </trkpt>
      <trkpt lat="48.89455" lon="2.04083">
        <ele>106</ele>
        <time>2024-03-31T09:21:04Z</time>
      </trkpt>
      <trkpt lat="48.89443" lon="2.04074">
        <ele>107</ele>
        <time>2024-03-31T09:21:19Z</time>
      </trkpt>
      <trkpt lat="48.89439" lon="2.04068">
        <ele>107</ele>
        <time>2024-03-31T09:21:28Z</time>
      </trkpt>
      <trkpt lat="48.89432" lon="2.04067">
        <ele>107</ele>
        <time>2024-03-31T09:21:51Z</time>
      </trkpt>
      <trkpt lat="48.89428" lon="2.04067">
        <ele>107</ele>
        <time>2024-03-31T09:22:15Z</time>
      </trkpt>
      <trkpt lat="48.89424" lon="2.0406">
        <ele>108</ele>
        <time>2024-03-31T09:22:27Z</time>
      </trkpt>
      <trkpt lat="48.8942" lon="2.04058">
        <ele>108</ele>
        <time>2024-03-31T09:22:32Z</time>
      </trkpt>
      <trkpt lat="48.89414" lon="2.04058">
        <ele>109</ele>
        <time>2024-03-31T09:22:42Z</time>
      </trkpt>
      <trkpt lat="48.89407" lon="2.04056">
        <ele>110</ele>
        <time>2024-03-31T09:22:49Z</time>
      </trkpt>
      <trkpt lat="48.89398" lon="2.04066">
        <ele>111</ele>
        <time>2024-03-31T09:23:00Z</time>
      </trkpt>
      <trkpt lat="48.89393" lon="2.04067">
        <ele>111</ele>
        <time>2024-03-31T09:23:05Z</time>
      </trkpt>
      <trkpt lat="48.89389" lon="2.04071">
        <ele>111</ele>
        <time>2024-03-31T09:23:09Z</time>
      </trkpt>
      <trkpt lat="48.89384" lon="2.04073">
        <ele>112</ele>
        <time>2024-03-31T09:23:13Z</time>
      </trkpt>
      <trkpt lat="48.8938" lon="2.0408">
        <ele>113</ele>
        <time>2024-03-31T09:23:20Z</time>
      </trkpt>
      <trkpt lat="48.89377" lon="2.04085">
        <ele>114</ele>
        <time>2024-03-31T09:23:25Z</time>
      </trkpt>
      <trkpt lat="48.89374" lon="2.0409">
        <ele>114</ele>
        <time>2024-03-31T09:23:30Z</time>
      </trkpt>
      <trkpt lat="48.89364" lon="2.04095">
        <ele>114</ele>
        <time>2024-03-31T09:23:39Z</time>
      </trkpt>
      <trkpt lat="48.89359" lon="2.04096">
        <ele>114</ele>
        <time>2024-03-31T09:23:42Z</time>
      </trkpt>
      <trkpt lat="48.89348" lon="2.04109">
        <ele>115</ele>
        <time>2024-03-31T09:23:54Z</time>
      </trkpt>
      <trkpt lat="48.89343" lon="2.04114">
        <ele>115</ele>
        <time>2024-03-31T09:24:41Z</time>
      </trkpt>
      <trkpt lat="48.89334" lon="2.04109">
        <ele>115</ele>
        <time>2024-03-31T09:25:09Z</time>
      </trkpt>
      <trkpt lat="48.8933" lon="2.04115">
        <ele>116</ele>
        <time>2024-03-31T09:26:23Z</time>
      </trkpt>
      <trkpt lat="48.89328" lon="2.04122">
        <ele>116</ele>
        <time>2024-03-31T09:26:27Z</time>
      </trkpt>
      <trkpt lat="48.89327" lon="2.04129">
        <ele>116</ele>
        <time>2024-03-31T09:26:31Z</time>
      </trkpt>
      <trkpt lat="48.89324" lon="2.04134">
        <ele>116</ele>
        <time>2024-03-31T09:26:35Z</time>
      </trkpt>
      <trkpt lat="48.89316" lon="2.04141">
        <ele>116</ele>
        <time>2024-03-31T09:26:44Z</time>
      </trkpt>
      <trkpt lat="48.89312" lon="2.0414">
        <ele>117</ele>
        <time>2024-03-31T09:26:54Z</time>
      </trkpt>
      <trkpt lat="48.89309" lon="2.04135">
        <ele>117</ele>
        <time>2024-03-31T09:27:06Z</time>
      </trkpt>
      <trkpt lat="48.89302" lon="2.04139">
        <ele>118</ele>
        <time>2024-03-31T09:27:22Z</time>
      </trkpt>
      <trkpt lat="48.89299" lon="2.04143">
        <ele>117</ele>
        <time>2024-03-31T09:27:25Z</time>
      </trkpt>
      <trkpt lat="48.89297" lon="2.04149">
        <ele>117</ele>
        <time>2024-03-31T09:27:28Z</time>
      </trkpt>
      <trkpt lat="48.89277" lon="2.04181">
        <ele>118</ele>
        <time>2024-03-31T09:27:51Z</time>
      </trkpt>
      <trkpt lat="48.89268" lon="2.04186">
        <ele>118</ele>
        <time>2024-03-31T09:27:58Z</time>
      </trkpt>
      <trkpt lat="48.89264" lon="2.04189">
        <ele>119</ele>
        <time>2024-03-31T09:28:02Z</time>
      </trkpt>
      <trkpt lat="48.89261" lon="2.04196">
        <ele>119</ele>
        <time>2024-03-31T09:28:06Z</time>
      </trkpt>
      <trkpt lat="48.89253" lon="2.04201">
        <ele>119</ele>
        <time>2024-03-31T09:28:16Z</time>
      </trkpt>
      <trkpt lat="48.89243" lon="2.04205">
        <ele>120</ele>
        <time>2024-03-31T09:28:48Z</time>
      </trkpt>
      <trkpt lat="48.89235" lon="2.04206">
        <ele>120</ele>
        <time>2024-03-31T09:28:55Z</time>
      </trkpt>
      <trkpt lat="48.89231" lon="2.0421">
        <ele>120</ele>
        <time>2024-03-31T09:29:03Z</time>
      </trkpt>
      <trkpt lat="48.89228" lon="2.04215">
        <ele>120</ele>
        <time>2024-03-31T09:29:10Z</time>
      </trkpt>
      <trkpt lat="48.89224" lon="2.0422">
        <ele>120</ele>
        <time>2024-03-31T09:29:15Z</time>
      </trkpt>
      <trkpt lat="48.8922" lon="2.04224">
        <ele>120</ele>
        <time>2024-03-31T09:29:20Z</time>
      </trkpt>
      <trkpt lat="48.89214" lon="2.04234">
        <ele>121</ele>
        <time>2024-03-31T09:29:34Z</time>
      </trkpt>
      <trkpt lat="48.89198" lon="2.0424">
        <ele>121</ele>
        <time>2024-03-31T09:29:53Z</time>
      </trkpt>
      <trkpt lat="48.89193" lon="2.04241">
        <ele>121</ele>
        <time>2024-03-31T09:30:05Z</time>
      </trkpt>
      <trkpt lat="48.89191" lon="2.04247">
        <ele>121</ele>
        <time>2024-03-31T09:30:10Z</time>
      </trkpt>
      <trkpt lat="48.89184" lon="2.04255">
        <ele>121</ele>
        <time>2024-03-31T09:30:22Z</time>
      </trkpt>
      <trkpt lat="48.8918" lon="2.04256">
        <ele>121</ele>
        <time>2024-03-31T09:30:26Z</time>
      </trkpt>
      <trkpt lat="48.89176" lon="2.0426">
        <ele>121</ele>
        <time>2024-03-31T09:30:30Z</time>
      </trkpt>
      <trkpt lat="48.89171" lon="2.04262">
        <ele>121</ele>
        <time>2024-03-31T09:30:34Z</time>
      </trkpt>
      <trkpt lat="48.89166" lon="2.04272">
        <ele>122</ele>
        <time>2024-03-31T09:30:42Z</time>
      </trkpt>
      <trkpt lat="48.89153" lon="2.04282">
        <ele>122</ele>
        <time>2024-03-31T09:30:56Z</time>
      </trkpt>
      <trkpt lat="48.89146" lon="2.04292">
        <ele>122</ele>
        <time>2024-03-31T09:31:08Z</time>
      </trkpt>
      <trkpt lat="48.89142" lon="2.04295">
        <ele>123</ele>
        <time>2024-03-31T09:31:13Z</time>
      </trkpt>
      <trkpt lat="48.89139" lon="2.043">
        <ele>122</ele>
        <time>2024-03-31T09:31:18Z</time>
      </trkpt>
      <trkpt lat="48.89137" lon="2.04307">
        <ele>122</ele>
        <time>2024-03-31T09:31:23Z</time>
      </trkpt>
      <trkpt lat="48.8913" lon="2.0431">
        <ele>123</ele>
        <time>2024-03-31T09:31:30Z</time>
      </trkpt>
      <trkpt lat="48.89125" lon="2.04311">
        <ele>122</ele>
        <time>2024-03-31T09:31:35Z</time>
      </trkpt>
      <trkpt lat="48.8912" lon="2.04311">
        <ele>122</ele>
        <time>2024-03-31T09:31:40Z</time>
      </trkpt>
      <trkpt lat="48.89115" lon="2.04312">
        <ele>122</ele>
        <time>2024-03-31T09:31:44Z</time>
      </trkpt>
      <trkpt lat="48.8911" lon="2.04315">
        <ele>122</ele>
        <time>2024-03-31T09:31:47Z</time>
      </trkpt>
      <trkpt lat="48.89106" lon="2.04318">
        <ele>122</ele>
        <time>2024-03-31T09:31:50Z</time>
      </trkpt>
      <trkpt lat="48.89101" lon="2.04317">
        <ele>122</ele>
        <time>2024-03-31T09:31:53Z</time>
      </trkpt>
      <trkpt lat="48.89098" lon="2.04324">
        <ele>123</ele>
        <time>2024-03-31T09:31:58Z</time>
      </trkpt>
      <trkpt lat="48.89089" lon="2.04328">
        <ele>123</ele>
        <time>2024-03-31T09:32:05Z</time>
      </trkpt>
      <trkpt lat="48.89083" lon="2.04342">
        <ele>123</ele>
        <time>2024-03-31T09:32:14Z</time>
      </trkpt>
      <trkpt lat="48.89068" lon="2.0435">
        <ele>123</ele>
        <time>2024-03-31T09:32:26Z</time>
      </trkpt>
      <trkpt lat="48.89061" lon="2.04359">
        <ele>123</ele>
        <time>2024-03-31T09:32:34Z</time>
      </trkpt>
      <trkpt lat="48.89057" lon="2.04362">
        <ele>123</ele>
        <time>2024-03-31T09:32:38Z</time>
      </trkpt>
      <trkpt lat="48.89054" lon="2.04367">
        <ele>123</ele>
        <time>2024-03-31T09:32:42Z</time>
      </trkpt>
      <trkpt lat="48.89049" lon="2.04374">
        <ele>123</ele>
        <time>2024-03-31T09:32:50Z</time>
      </trkpt>
      <trkpt lat="48.89028" lon="2.04392">
        <ele>122</ele>
        <time>2024-03-31T09:33:14Z</time>
      </trkpt>
      <trkpt lat="48.89022" lon="2.04396">
        <ele>122</ele>
        <time>2024-03-31T09:33:21Z</time>
      </trkpt>
      <trkpt lat="48.89016" lon="2.04398">
        <ele>122</ele>
        <time>2024-03-31T09:33:27Z</time>
      </trkpt>
      <trkpt lat="48.89006" lon="2.04408">
        <ele>122</ele>
        <time>2024-03-31T09:33:43Z</time>
      </trkpt>
      <trkpt lat="48.89001" lon="2.0441">
        <ele>122</ele>
        <time>2024-03-31T09:33:49Z</time>
      </trkpt>
      <trkpt lat="48.88996" lon="2.04413">
        <ele>122</ele>
        <time>2024-03-31T09:33:56Z</time>
      </trkpt>
      <trkpt lat="48.88992" lon="2.04415">
        <ele>121</ele>
        <time>2024-03-31T09:34:02Z</time>
      </trkpt>
      <trkpt lat="48.88986" lon="2.0442">
        <ele>122</ele>
        <time>2024-03-31T09:34:10Z</time>
      </trkpt>
      <trkpt lat="48.88981" lon="2.04427">
        <ele>122</ele>
        <time>2024-03-31T09:34:17Z</time>
      </trkpt>
      <trkpt lat="48.88975" lon="2.04432">
        <ele>122</ele>
        <time>2024-03-31T09:34:27Z</time>
      </trkpt>
      <trkpt lat="48.8897" lon="2.04441">
        <ele>121</ele>
        <time>2024-03-31T09:34:37Z</time>
      </trkpt>
      <trkpt lat="48.88966" lon="2.04449">
        <ele>121</ele>
        <time>2024-03-31T09:34:44Z</time>
      </trkpt>
      <trkpt lat="48.88961" lon="2.04454">
        <ele>121</ele>
        <time>2024-03-31T09:34:47Z</time>
      </trkpt>
      <trkpt lat="48.88956" lon="2.04458">
        <ele>122</ele>
        <time>2024-03-31T09:35:02Z</time>
      </trkpt>
      <trkpt lat="48.88952" lon="2.04456">
        <ele>122</ele>
        <time>2024-03-31T09:35:06Z</time>
      </trkpt>
      <trkpt lat="48.88955" lon="2.04461">
        <ele>122</ele>
        <time>2024-03-31T09:35:58Z</time>
      </trkpt>
      <trkpt lat="48.88948" lon="2.04463">
        <ele>122</ele>
        <time>2024-03-31T09:36:18Z</time>
      </trkpt>
      <trkpt lat="48.88949" lon="2.04452">
        <ele>122</ele>
        <time>2024-03-31T09:37:01Z</time>
      </trkpt>
      <trkpt lat="48.88947" lon="2.04446">
        <ele>122</ele>
        <time>2024-03-31T09:37:04Z</time>
      </trkpt>
      <trkpt lat="48.88944" lon="2.04441">
        <ele>122</ele>
        <time>2024-03-31T09:37:09Z</time>
      </trkpt>
      <trkpt lat="48.88938" lon="2.04437">
        <ele>123</ele>
        <time>2024-03-31T09:37:18Z</time>
      </trkpt>
      <trkpt lat="48.88933" lon="2.04438">
        <ele>123</ele>
        <time>2024-03-31T09:37:24Z</time>
      </trkpt>
      <trkpt lat="48.88929" lon="2.04435">
        <ele>123</ele>
        <time>2024-03-31T09:37:28Z</time>
      </trkpt>
      <trkpt lat="48.88925" lon="2.04431">
        <ele>123</ele>
        <time>2024-03-31T09:37:32Z</time>
      </trkpt>
      <trkpt lat="48.88914" lon="2.04421">
        <ele>124</ele>
        <time>2024-03-31T09:37:44Z</time>
      </trkpt>
      <trkpt lat="48.88908" lon="2.04421">
        <ele>124</ele>
        <time>2024-03-31T09:37:50Z</time>
      </trkpt>
      <trkpt lat="48.88895" lon="2.04411">
        <ele>124</ele>
        <time>2024-03-31T09:38:02Z</time>
      </trkpt>
      <trkpt lat="48.8887" lon="2.04398">
        <ele>125</ele>
        <time>2024-03-31T09:38:27Z</time>
      </trkpt>
      <trkpt lat="48.8887" lon="2.0439">
        <ele>126</ele>
        <time>2024-03-31T09:38:41Z</time>
      </trkpt>
      <trkpt lat="48.88864" lon="2.0439">
        <ele>127</ele>
        <time>2024-03-31T09:38:58Z</time>
      </trkpt>
      <trkpt lat="48.88851" lon="2.04387">
        <ele>127</ele>
        <time>2024-03-31T09:39:09Z</time>
      </trkpt>
      <trkpt lat="48.88847" lon="2.04384">
        <ele>128</ele>
        <time>2024-03-31T09:39:14Z</time>
      </trkpt>
      <trkpt lat="48.88843" lon="2.0438">
        <ele>128</ele>
        <time>2024-03-31T09:39:17Z</time>
      </trkpt>
      <trkpt lat="48.88835" lon="2.04378">
        <ele>129</ele>
        <time>2024-03-31T09:39:24Z</time>
      </trkpt>
      <trkpt lat="48.88825" lon="2.04375">
        <ele>129</ele>
        <time>2024-03-31T09:39:29Z</time>
      </trkpt>
      <trkpt lat="48.8882" lon="2.04372">
        <ele>129</ele>
        <time>2024-03-31T09:39:33Z</time>
      </trkpt>
      <trkpt lat="48.88806" lon="2.04368">
        <ele>130</ele>
        <time>2024-03-31T09:39:44Z</time>
      </trkpt>
      <trkpt lat="48.88787" lon="2.04358">
        <ele>132</ele>
        <time>2024-03-31T09:40:00Z</time>
      </trkpt>
      <trkpt lat="48.88778" lon="2.04352">
        <ele>132</ele>
        <time>2024-03-31T09:40:09Z</time>
      </trkpt>
      <trkpt lat="48.88772" lon="2.04347">
        <ele>133</ele>
        <time>2024-03-31T09:40:16Z</time>
      </trkpt>
      <trkpt lat="48.8874" lon="2.04327">
        <ele>136</ele>
        <time>2024-03-31T09:40:45Z</time>
      </trkpt>
      <trkpt lat="48.88731" lon="2.04325">
        <ele>137</ele>
        <time>2024-03-31T09:40:52Z</time>
      </trkpt>
      <trkpt lat="48.88724" lon="2.04318">
        <ele>138</ele>
        <time>2024-03-31T09:40:58Z</time>
      </trkpt>
      <trkpt lat="48.88719" lon="2.04317">
        <ele>138</ele>
        <time>2024-03-31T09:41:02Z</time>
      </trkpt>
      <trkpt lat="48.8871" lon="2.0431">
        <ele>138</ele>
        <time>2024-03-31T09:41:11Z</time>
      </trkpt>
      <trkpt lat="48.88705" lon="2.04308">
        <ele>138</ele>
        <time>2024-03-31T09:41:16Z</time>
      </trkpt>
      <trkpt lat="48.88701" lon="2.04304">
        <ele>139</ele>
        <time>2024-03-31T09:41:20Z</time>
      </trkpt>
      <trkpt lat="48.88691" lon="2.04301">
        <ele>139</ele>
        <time>2024-03-31T09:41:29Z</time>
      </trkpt>
      <trkpt lat="48.88676" lon="2.04292">
        <ele>140</ele>
        <time>2024-03-31T09:41:41Z</time>
      </trkpt>
      <trkpt lat="48.88663" lon="2.04288">
        <ele>141</ele>
        <time>2024-03-31T09:41:52Z</time>
      </trkpt>
      <trkpt lat="48.88638" lon="2.04268">
        <ele>143</ele>
        <time>2024-03-31T09:42:17Z</time>
      </trkpt>
      <trkpt lat="48.88634" lon="2.04265">
        <ele>142</ele>
        <time>2024-03-31T09:42:21Z</time>
      </trkpt>
      <trkpt lat="48.88626" lon="2.04256">
        <ele>143</ele>
        <time>2024-03-31T09:42:29Z</time>
      </trkpt>
      <trkpt lat="48.88617" lon="2.0425">
        <ele>144</ele>
        <time>2024-03-31T09:42:36Z</time>
      </trkpt>
      <trkpt lat="48.88602" lon="2.04243">
        <ele>144</ele>
        <time>2024-03-31T09:42:48Z</time>
      </trkpt>
      <trkpt lat="48.88598" lon="2.04239">
        <ele>144</ele>
        <time>2024-03-31T09:42:52Z</time>
      </trkpt>
      <trkpt lat="48.88562" lon="2.04216">
        <ele>145</ele>
        <time>2024-03-31T09:43:22Z</time>
      </trkpt>
      <trkpt lat="48.88557" lon="2.04216">
        <ele>145</ele>
        <time>2024-03-31T09:43:25Z</time>
      </trkpt>
      <trkpt lat="48.88543" lon="2.04205">
        <ele>145</ele>
        <time>2024-03-31T09:43:38Z</time>
      </trkpt>
      <trkpt lat="48.88538" lon="2.04204">
        <ele>145</ele>
        <time>2024-03-31T09:43:42Z</time>
      </trkpt>
      <trkpt lat="48.88529" lon="2.042">
        <ele>145</ele>
        <time>2024-03-31T09:43:49Z</time>
      </trkpt>
      <trkpt lat="48.88524" lon="2.04199">
        <ele>145</ele>
        <time>2024-03-31T09:43:53Z</time>
      </trkpt>
      <trkpt lat="48.88511" lon="2.04189">
        <ele>145</ele>
        <time>2024-03-31T09:44:05Z</time>
      </trkpt>
      <trkpt lat="48.88507" lon="2.04184">
        <ele>146</ele>
        <time>2024-03-31T09:44:09Z</time>
      </trkpt>
      <trkpt lat="48.88497" lon="2.04182">
        <ele>145</ele>
        <time>2024-03-31T09:44:17Z</time>
      </trkpt>
      <trkpt lat="48.88479" lon="2.0417">
        <ele>145</ele>
        <time>2024-03-31T09:44:33Z</time>
      </trkpt>
      <trkpt lat="48.88475" lon="2.04166">
        <ele>145</ele>
        <time>2024-03-31T09:44:37Z</time>
      </trkpt>
      <trkpt lat="48.88466" lon="2.0416">
        <ele>145</ele>
        <time>2024-03-31T09:44:43Z</time>
      </trkpt>
      <trkpt lat="48.88461" lon="2.04158">
        <ele>145</ele>
        <time>2024-03-31T09:44:47Z</time>
      </trkpt>
      <trkpt lat="48.88442" lon="2.04147">
        <ele>145</ele>
        <time>2024-03-31T09:45:03Z</time>
      </trkpt>
      <trkpt lat="48.88439" lon="2.04143">
        <ele>146</ele>
        <time>2024-03-31T09:45:06Z</time>
      </trkpt>
      <trkpt lat="48.8843" lon="2.0414">
        <ele>146</ele>
        <time>2024-03-31T09:45:12Z</time>
      </trkpt>
      <trkpt lat="48.88421" lon="2.04138">
        <ele>145</ele>
        <time>2024-03-31T09:45:19Z</time>
      </trkpt>
      <trkpt lat="48.88416" lon="2.04135">
        <ele>146</ele>
        <time>2024-03-31T09:45:23Z</time>
      </trkpt>
      <trkpt lat="48.88411" lon="2.04128">
        <ele>147</ele>
        <time>2024-03-31T09:45:32Z</time>
      </trkpt>
      <trkpt lat="48.88406" lon="2.04125">
        <ele>147</ele>
        <time>2024-03-31T09:45:36Z</time>
      </trkpt>
      <trkpt lat="48.88401" lon="2.04124">
        <ele>147</ele>
        <time>2024-03-31T09:45:40Z</time>
      </trkpt>
      <trkpt lat="48.88396" lon="2.04123">
        <ele>148</ele>
        <time>2024-03-31T09:45:45Z</time>
      </trkpt>
      <trkpt lat="48.88378" lon="2.04112">
        <ele>149</ele>
        <time>2024-03-31T09:46:02Z</time>
      </trkpt>
      <trkpt lat="48.88371" lon="2.04109">
        <ele>149</ele>
        <time>2024-03-31T09:46:09Z</time>
      </trkpt>
      <trkpt lat="48.88362" lon="2.04104">
        <ele>149</ele>
        <time>2024-03-31T09:46:17Z</time>
      </trkpt>
      <trkpt lat="48.88349" lon="2.04098">
        <ele>148</ele>
        <time>2024-03-31T09:46:29Z</time>
      </trkpt>
      <trkpt lat="48.88341" lon="2.04089">
        <ele>148</ele>
        <time>2024-03-31T09:46:36Z</time>
      </trkpt>
      <trkpt lat="48.88332" lon="2.04083">
        <ele>148</ele>
        <time>2024-03-31T09:46:43Z</time>
      </trkpt>
      <trkpt lat="48.88325" lon="2.04076">
        <ele>147</ele>
        <time>2024-03-31T09:46:49Z</time>
      </trkpt>
      <trkpt lat="48.88284" lon="2.04053">
        <ele>148</ele>
        <time>2024-03-31T09:47:20Z</time>
      </trkpt>
      <trkpt lat="48.8825" lon="2.04035">
        <ele>150</ele>
        <time>2024-03-31T09:47:52Z</time>
      </trkpt>
      <trkpt lat="48.88242" lon="2.04027">
        <ele>151</ele>
        <time>2024-03-31T09:47:59Z</time>
      </trkpt>
      <trkpt lat="48.88231" lon="2.0402">
        <ele>152</ele>
        <time>2024-03-31T09:48:09Z</time>
      </trkpt>
      <trkpt lat="48.88214" lon="2.04009">
        <ele>153</ele>
        <time>2024-03-31T09:48:25Z</time>
      </trkpt>
      <trkpt lat="48.88201" lon="2.04005">
        <ele>154</ele>
        <time>2024-03-31T09:48:38Z</time>
      </trkpt>
      <trkpt lat="48.88192" lon="2.03997">
        <ele>154</ele>
        <time>2024-03-31T09:48:45Z</time>
      </trkpt>
      <trkpt lat="48.88186" lon="2.03996">
        <ele>154</ele>
        <time>2024-03-31T09:48:49Z</time>
      </trkpt>
      <trkpt lat="48.88174" lon="2.03985">
        <ele>154</ele>
        <time>2024-03-31T09:49:11Z</time>
      </trkpt>
      <trkpt lat="48.88166" lon="2.03979">
        <ele>155</ele>
        <time>2024-03-31T09:49:17Z</time>
      </trkpt>
      <trkpt lat="48.88161" lon="2.03978">
        <ele>156</ele>
        <time>2024-03-31T09:49:21Z</time>
      </trkpt>
      <trkpt lat="48.88134" lon="2.03963">
        <ele>158</ele>
        <time>2024-03-31T09:49:42Z</time>
      </trkpt>
      <trkpt lat="48.88125" lon="2.0396">
        <ele>159</ele>
        <time>2024-03-31T09:49:50Z</time>
      </trkpt>
      <trkpt lat="48.88116" lon="2.03953">
        <ele>160</ele>
        <time>2024-03-31T09:49:58Z</time>
      </trkpt>
      <trkpt lat="48.88112" lon="2.03951">
        <ele>161</ele>
        <time>2024-03-31T09:50:02Z</time>
      </trkpt>
      <trkpt lat="48.88108" lon="2.03947">
        <ele>161</ele>
        <time>2024-03-31T09:50:06Z</time>
      </trkpt>
      <trkpt lat="48.88104" lon="2.03943">
        <ele>161</ele>
        <time>2024-03-31T09:50:09Z</time>
      </trkpt>
      <trkpt lat="48.88093" lon="2.03942">
        <ele>162</ele>
        <time>2024-03-31T09:50:19Z</time>
      </trkpt>
      <trkpt lat="48.88088" lon="2.03936">
        <ele>163</ele>
        <time>2024-03-31T09:50:26Z</time>
      </trkpt>
      <trkpt lat="48.88064" lon="2.03921">
        <ele>166</ele>
        <time>2024-03-31T09:50:50Z</time>
      </trkpt>
      <trkpt lat="48.88059" lon="2.03915">
        <ele>167</ele>
        <time>2024-03-31T09:50:56Z</time>
      </trkpt>
      <trkpt lat="48.8804" lon="2.03905">
        <ele>169</ele>
        <time>2024-03-31T09:51:12Z</time>
      </trkpt>
      <trkpt lat="48.88036" lon="2.039">
        <ele>170</ele>
        <time>2024-03-31T09:51:18Z</time>
      </trkpt>
      <trkpt lat="48.8803" lon="2.03897">
        <ele>170</ele>
        <time>2024-03-31T09:51:22Z</time>
      </trkpt>
      <trkpt lat="48.88026" lon="2.03894">
        <ele>170</ele>
        <time>2024-03-31T09:51:26Z</time>
      </trkpt>
      <trkpt lat="48.8802" lon="2.03887">
        <ele>171</ele>
        <time>2024-03-31T09:51:33Z</time>
      </trkpt>
      <trkpt lat="48.88004" lon="2.03884">
        <ele>173</ele>
        <time>2024-03-31T09:51:46Z</time>
      </trkpt>
      <trkpt lat="48.8799" lon="2.03878">
        <ele>174</ele>
        <time>2024-03-31T09:51:57Z</time>
      </trkpt>
      <trkpt lat="48.87984" lon="2.03877">
        <ele>175</ele>
        <time>2024-03-31T09:52:16Z</time>
      </trkpt>
      <trkpt lat="48.87986" lon="2.03883">
        <ele>176</ele>
        <time>2024-03-31T09:52:20Z</time>
      </trkpt>
      <trkpt lat="48.8799" lon="2.03878">
        <ele>174</ele>
        <time>2024-03-31T09:53:04Z</time>
      </trkpt>
      <trkpt lat="48.87983" lon="2.03872">
        <ele>174</ele>
        <time>2024-03-31T09:53:20Z</time>
      </trkpt>
      <trkpt lat="48.87978" lon="2.03875">
        <ele>174</ele>
        <time>2024-03-31T09:53:24Z</time>
      </trkpt>
      <trkpt lat="48.87978" lon="2.03882">
        <ele>174</ele>
        <time>2024-03-31T09:53:28Z</time>
      </trkpt>
      <trkpt lat="48.87972" lon="2.03889">
        <ele>174</ele>
        <time>2024-03-31T09:53:40Z</time>
      </trkpt>
      <trkpt lat="48.87971" lon="2.03896">
        <ele>175</ele>
        <time>2024-03-31T09:53:45Z</time>
      </trkpt>
      <trkpt lat="48.87965" lon="2.03902">
        <ele>174</ele>
        <time>2024-03-31T09:53:57Z</time>
      </trkpt>
      <trkpt lat="48.8796" lon="2.03903">
        <ele>174</ele>
        <time>2024-03-31T09:54:01Z</time>
      </trkpt>
      <trkpt lat="48.87955" lon="2.03907">
        <ele>174</ele>
        <time>2024-03-31T09:54:10Z</time>
      </trkpt>
      <trkpt lat="48.87946" lon="2.03917">
        <ele>175</ele>
        <time>2024-03-31T09:54:18Z</time>
      </trkpt>
      <trkpt lat="48.87944" lon="2.03925">
        <ele>175</ele>
        <time>2024-03-31T09:54:23Z</time>
      </trkpt>
      <trkpt lat="48.87924" lon="2.03962">
        <ele>175</ele>
        <time>2024-03-31T09:54:54Z</time>
      </trkpt>
      <trkpt lat="48.87913" lon="2.03975">
        <ele>175</ele>
        <time>2024-03-31T09:55:05Z</time>
      </trkpt>
      <trkpt lat="48.8791" lon="2.0398">
        <ele>175</ele>
        <time>2024-03-31T09:55:09Z</time>
      </trkpt>
      <trkpt lat="48.87907" lon="2.03985">
        <ele>175</ele>
        <time>2024-03-31T09:55:13Z</time>
      </trkpt>
      <trkpt lat="48.87886" lon="2.04005">
        <ele>174</ele>
        <time>2024-03-31T09:55:36Z</time>
      </trkpt>
      <trkpt lat="48.87874" lon="2.04018">
        <ele>175</ele>
        <time>2024-03-31T09:55:48Z</time>
      </trkpt>
      <trkpt lat="48.87863" lon="2.04031">
        <ele>174</ele>
        <time>2024-03-31T09:56:01Z</time>
      </trkpt>
      <trkpt lat="48.87832" lon="2.04056">
        <ele>175</ele>
        <time>2024-03-31T09:56:31Z</time>
      </trkpt>
      <trkpt lat="48.87817" lon="2.04064">
        <ele>173</ele>
        <time>2024-03-31T09:56:44Z</time>
      </trkpt>
      <trkpt lat="48.87813" lon="2.04069">
        <ele>173</ele>
        <time>2024-03-31T09:56:48Z</time>
      </trkpt>
      <trkpt lat="48.87803" lon="2.04075">
        <ele>172</ele>
        <time>2024-03-31T09:56:57Z</time>
      </trkpt>
      <trkpt lat="48.878" lon="2.04082">
        <ele>172</ele>
        <time>2024-03-31T09:57:02Z</time>
      </trkpt>
      <trkpt lat="48.87797" lon="2.04087">
        <ele>172</ele>
        <time>2024-03-31T09:57:07Z</time>
      </trkpt>
      <trkpt lat="48.87792" lon="2.0409">
        <ele>172</ele>
        <time>2024-03-31T09:57:12Z</time>
      </trkpt>
      <trkpt lat="48.8778" lon="2.04103">
        <ele>172</ele>
        <time>2024-03-31T09:57:29Z</time>
      </trkpt>
      <trkpt lat="48.87776" lon="2.04107">
        <ele>172</ele>
        <time>2024-03-31T09:57:33Z</time>
      </trkpt>
      <trkpt lat="48.87768" lon="2.04112">
        <ele>173</ele>
        <time>2024-03-31T09:57:41Z</time>
      </trkpt>
      <trkpt lat="48.87764" lon="2.04115">
        <ele>172</ele>
        <time>2024-03-31T09:57:45Z</time>
      </trkpt>
      <trkpt lat="48.87761" lon="2.04119">
        <ele>173</ele>
        <time>2024-03-31T09:57:49Z</time>
      </trkpt>
      <trkpt lat="48.87758" lon="2.04125">
        <ele>173</ele>
        <time>2024-03-31T09:57:53Z</time>
      </trkpt>
      <trkpt lat="48.8775" lon="2.04134">
        <ele>173</ele>
        <time>2024-03-31T09:58:04Z</time>
      </trkpt>
      <trkpt lat="48.87746" lon="2.0414">
        <ele>173</ele>
        <time>2024-03-31T09:58:09Z</time>
      </trkpt>
      <trkpt lat="48.87742" lon="2.04141">
        <ele>173</ele>
        <time>2024-03-31T09:58:13Z</time>
      </trkpt>
      <trkpt lat="48.87734" lon="2.04136">
        <ele>174</ele>
        <time>2024-03-31T09:58:30Z</time>
      </trkpt>
      <trkpt lat="48.87727" lon="2.04136">
        <ele>174</ele>
        <time>2024-03-31T09:58:36Z</time>
      </trkpt>
      <trkpt lat="48.87721" lon="2.04128">
        <ele>175</ele>
        <time>2024-03-31T09:58:46Z</time>
      </trkpt>
      <trkpt lat="48.87716" lon="2.04124">
        <ele>174</ele>
        <time>2024-03-31T09:58:50Z</time>
      </trkpt>
      <trkpt lat="48.87719" lon="2.04118">
        <ele>175</ele>
        <time>2024-03-31T09:59:03Z</time>
      </trkpt>
      <trkpt lat="48.87716" lon="2.04121">
        <ele>175</ele>
        <time>2024-03-31T09:59:38Z</time>
      </trkpt>
      <trkpt lat="48.87712" lon="2.04113">
        <ele>175</ele>
        <time>2024-03-31T10:00:26Z</time>
      </trkpt>
      <trkpt lat="48.87706" lon="2.04112">
        <ele>176</ele>
        <time>2024-03-31T10:00:51Z</time>
      </trkpt>
      <trkpt lat="48.87702" lon="2.04117">
        <ele>176</ele>
        <time>2024-03-31T10:00:57Z</time>
      </trkpt>
      <trkpt lat="48.87697" lon="2.04116">
        <ele>176</ele>
        <time>2024-03-31T10:01:03Z</time>
      </trkpt>
      <trkpt lat="48.87693" lon="2.0411">
        <ele>176</ele>
        <time>2024-03-31T10:01:07Z</time>
      </trkpt>
      <trkpt lat="48.87688" lon="2.04112">
        <ele>176</ele>
        <time>2024-03-31T10:01:11Z</time>
      </trkpt>
      <trkpt lat="48.87662" lon="2.041">
        <ele>178</ele>
        <time>2024-03-31T10:01:36Z</time>
      </trkpt>
      <trkpt lat="48.87658" lon="2.04099">
        <ele>178</ele>
        <time>2024-03-31T10:01:40Z</time>
      </trkpt>
      <trkpt lat="48.87652" lon="2.04095">
        <ele>177</ele>
        <time>2024-03-31T10:01:45Z</time>
      </trkpt>
      <trkpt lat="48.87644" lon="2.04089">
        <ele>178</ele>
        <time>2024-03-31T10:01:52Z</time>
      </trkpt>
      <trkpt lat="48.87635" lon="2.04087">
        <ele>179</ele>
        <time>2024-03-31T10:02:00Z</time>
      </trkpt>
      <trkpt lat="48.8763" lon="2.04085">
        <ele>179</ele>
        <time>2024-03-31T10:02:04Z</time>
      </trkpt>
      <trkpt lat="48.87624" lon="2.04087">
        <ele>179</ele>
        <time>2024-03-31T10:02:12Z</time>
      </trkpt>
      <trkpt lat="48.87624" lon="2.04097">
        <ele>179</ele>
        <time>2024-03-31T10:02:25Z</time>
      </trkpt>
      <trkpt lat="48.87616" lon="2.041">
        <ele>179</ele>
        <time>2024-03-31T10:02:35Z</time>
      </trkpt>
      <trkpt lat="48.87615" lon="2.04107">
        <ele>179</ele>
        <time>2024-03-31T10:02:43Z</time>
      </trkpt>
      <trkpt lat="48.87608" lon="2.04108">
        <ele>178</ele>
        <time>2024-03-31T10:02:50Z</time>
      </trkpt>
      <trkpt lat="48.87602" lon="2.04106">
        <ele>179</ele>
        <time>2024-03-31T10:02:56Z</time>
      </trkpt>
      <trkpt lat="48.87589" lon="2.04115">
        <ele>179</ele>
        <time>2024-03-31T10:03:11Z</time>
      </trkpt>
      <trkpt lat="48.87585" lon="2.04115">
        <ele>180</ele>
        <time>2024-03-31T10:03:14Z</time>
      </trkpt>
      <trkpt lat="48.87579" lon="2.04113">
        <ele>180</ele>
        <time>2024-03-31T10:03:17Z</time>
      </trkpt>
      <trkpt lat="48.87564" lon="2.04118">
        <ele>180</ele>
        <time>2024-03-31T10:03:30Z</time>
      </trkpt>
      <trkpt lat="48.87556" lon="2.04121">
        <ele>180</ele>
        <time>2024-03-31T10:03:40Z</time>
      </trkpt>
      <trkpt lat="48.87551" lon="2.04121">
        <ele>180</ele>
        <time>2024-03-31T10:03:44Z</time>
      </trkpt>
      <trkpt lat="48.87543" lon="2.04122">
        <ele>180</ele>
        <time>2024-03-31T10:03:52Z</time>
      </trkpt>
      <trkpt lat="48.87536" lon="2.04127">
        <ele>180</ele>
        <time>2024-03-31T10:03:59Z</time>
      </trkpt>
      <trkpt lat="48.87529" lon="2.04123">
        <ele>180</ele>
        <time>2024-03-31T10:04:06Z</time>
      </trkpt>
      <trkpt lat="48.87524" lon="2.04124">
        <ele>180</ele>
        <time>2024-03-31T10:04:08Z</time>
      </trkpt>
      <trkpt lat="48.87514" lon="2.04125">
        <ele>181</ele>
        <time>2024-03-31T10:04:16Z</time>
      </trkpt>
      <trkpt lat="48.87504" lon="2.04121">
        <ele>181</ele>
        <time>2024-03-31T10:04:25Z</time>
      </trkpt>
      <trkpt lat="48.87501" lon="2.04127">
        <ele>181</ele>
        <time>2024-03-31T10:04:30Z</time>
      </trkpt>
      <trkpt lat="48.87496" lon="2.04131">
        <ele>181</ele>
        <time>2024-03-31T10:04:34Z</time>
      </trkpt>
      <trkpt lat="48.87489" lon="2.0413">
        <ele>181</ele>
        <time>2024-03-31T10:04:42Z</time>
      </trkpt>
      <trkpt lat="48.87459" lon="2.04135">
        <ele>181</ele>
        <time>2024-03-31T10:05:08Z</time>
      </trkpt>
      <trkpt lat="48.87455" lon="2.04131">
        <ele>181</ele>
        <time>2024-03-31T10:05:12Z</time>
      </trkpt>
      <trkpt lat="48.87449" lon="2.04134">
        <ele>181</ele>
        <time>2024-03-31T10:05:18Z</time>
      </trkpt>
      <trkpt lat="48.8744" lon="2.04135">
        <ele>181</ele>
        <time>2024-03-31T10:05:28Z</time>
      </trkpt>
      <trkpt lat="48.87434" lon="2.0414">
        <ele>182</ele>
        <time>2024-03-31T10:05:35Z</time>
      </trkpt>
      <trkpt lat="48.87415" lon="2.04139">
        <ele>182</ele>
        <time>2024-03-31T10:05:52Z</time>
      </trkpt>
      <trkpt lat="48.87409" lon="2.04142">
        <ele>182</ele>
        <time>2024-03-31T10:05:55Z</time>
      </trkpt>
      <trkpt lat="48.87404" lon="2.04139">
        <ele>182</ele>
        <time>2024-03-31T10:06:00Z</time>
      </trkpt>
      <trkpt lat="48.87398" lon="2.04142">
        <ele>182</ele>
        <time>2024-03-31T10:06:03Z</time>
      </trkpt>
      <trkpt lat="48.87394" lon="2.04147">
        <ele>182</ele>
        <time>2024-03-31T10:06:07Z</time>
      </trkpt>
      <trkpt lat="48.87386" lon="2.04148">
        <ele>182</ele>
        <time>2024-03-31T10:06:15Z</time>
      </trkpt>
      <trkpt lat="48.87379" lon="2.04152">
        <ele>183</ele>
        <time>2024-03-31T10:06:24Z</time>
      </trkpt>
      <trkpt lat="48.87372" lon="2.04151">
        <ele>183</ele>
        <time>2024-03-31T10:06:30Z</time>
      </trkpt>
      <trkpt lat="48.87367" lon="2.04148">
        <ele>183</ele>
        <time>2024-03-31T10:06:33Z</time>
      </trkpt>
      <trkpt lat="48.87354" lon="2.04155">
        <ele>183</ele>
        <time>2024-03-31T10:06:47Z</time>
      </trkpt>
      <trkpt lat="48.87346" lon="2.04153">
        <ele>183</ele>
        <time>2024-03-31T10:06:57Z</time>
      </trkpt>
      <trkpt lat="48.87333" lon="2.04159">
        <ele>183</ele>
        <time>2024-03-31T10:07:11Z</time>
      </trkpt>
      <trkpt lat="48.87323" lon="2.04152">
        <ele>183</ele>
        <time>2024-03-31T10:07:19Z</time>
      </trkpt>
      <trkpt lat="48.87317" lon="2.04151">
        <ele>183</ele>
        <time>2024-03-31T10:07:23Z</time>
      </trkpt>
      <trkpt lat="48.87312" lon="2.04154">
        <ele>183</ele>
        <time>2024-03-31T10:07:26Z</time>
      </trkpt>
      <trkpt lat="48.87309" lon="2.04159">
        <ele>183</ele>
        <time>2024-03-31T10:07:29Z</time>
      </trkpt>
      <trkpt lat="48.87301" lon="2.04164">
        <ele>182</ele>
        <time>2024-03-31T10:07:37Z</time>
      </trkpt>
      <trkpt lat="48.87294" lon="2.04169">
        <ele>182</ele>
        <time>2024-03-31T10:07:48Z</time>
      </trkpt>
      <trkpt lat="48.87288" lon="2.04168">
        <ele>182</ele>
        <time>2024-03-31T10:07:54Z</time>
      </trkpt>
      <trkpt lat="48.87283" lon="2.0417">
        <ele>182</ele>
        <time>2024-03-31T10:07:57Z</time>
      </trkpt>
      <trkpt lat="48.87277" lon="2.04169">
        <ele>182</ele>
        <time>2024-03-31T10:08:02Z</time>
      </trkpt>
      <trkpt lat="48.87271" lon="2.04169">
        <ele>182</ele>
        <time>2024-03-31T10:08:07Z</time>
      </trkpt>
      <trkpt lat="48.87267" lon="2.04174">
        <ele>182</ele>
        <time>2024-03-31T10:08:13Z</time>
      </trkpt>
      <trkpt lat="48.8726" lon="2.04177">
        <ele>182</ele>
        <time>2024-03-31T10:08:19Z</time>
      </trkpt>
      <trkpt lat="48.87256" lon="2.04179">
        <ele>182</ele>
        <time>2024-03-31T10:08:22Z</time>
      </trkpt>
      <trkpt lat="48.87221" lon="2.04176">
        <ele>181</ele>
        <time>2024-03-31T10:08:54Z</time>
      </trkpt>
      <trkpt lat="48.87215" lon="2.04179">
        <ele>181</ele>
        <time>2024-03-31T10:08:59Z</time>
      </trkpt>
      <trkpt lat="48.87212" lon="2.04188">
        <ele>181</ele>
        <time>2024-03-31T10:09:09Z</time>
      </trkpt>
      <trkpt lat="48.87215" lon="2.04196">
        <ele>181</ele>
        <time>2024-03-31T10:09:33Z</time>
      </trkpt>
      <trkpt lat="48.87211" lon="2.04197">
        <ele>181</ele>
        <time>2024-03-31T10:09:38Z</time>
      </trkpt>
      <trkpt lat="48.87202" lon="2.04184">
        <ele>181</ele>
        <time>2024-03-31T10:09:45Z</time>
      </trkpt>
      <trkpt lat="48.87195" lon="2.04192">
        <ele>181</ele>
        <time>2024-03-31T10:09:59Z</time>
      </trkpt>
      <trkpt lat="48.8719" lon="2.04191">
        <ele>180</ele>
        <time>2024-03-31T10:10:05Z</time>
      </trkpt>
      <trkpt lat="48.87184" lon="2.04189">
        <ele>180</ele>
        <time>2024-03-31T10:10:09Z</time>
      </trkpt>
      <trkpt lat="48.87165" lon="2.04195">
        <ele>179</ele>
        <time>2024-03-31T10:10:29Z</time>
      </trkpt>
      <trkpt lat="48.87144" lon="2.04196">
        <ele>177</ele>
        <time>2024-03-31T10:10:52Z</time>
      </trkpt>
      <trkpt lat="48.87124" lon="2.04199">
        <ele>174</ele>
        <time>2024-03-31T10:11:14Z</time>
      </trkpt>
      <trkpt lat="48.87104" lon="2.04195">
        <ele>172</ele>
        <time>2024-03-31T10:11:28Z</time>
      </trkpt>
      <trkpt lat="48.87102" lon="2.04202">
        <ele>172</ele>
        <time>2024-03-31T10:11:33Z</time>
      </trkpt>
      <trkpt lat="48.87097" lon="2.04204">
        <ele>171</ele>
        <time>2024-03-31T10:11:37Z</time>
      </trkpt>
      <trkpt lat="48.87093" lon="2.04208">
        <ele>169</ele>
        <time>2024-03-31T10:11:45Z</time>
      </trkpt>
      <trkpt lat="48.87074" lon="2.04209">
        <ele>167</ele>
        <time>2024-03-31T10:12:02Z</time>
      </trkpt>
      <trkpt lat="48.87069" lon="2.04207">
        <ele>166</ele>
        <time>2024-03-31T10:12:08Z</time>
      </trkpt>
      <trkpt lat="48.87063" lon="2.04208">
        <ele>165</ele>
        <time>2024-03-31T10:12:15Z</time>
      </trkpt>
      <trkpt lat="48.87059" lon="2.04208">
        <ele>165</ele>
        <time>2024-03-31T10:12:18Z</time>
      </trkpt>
      <trkpt lat="48.8705" lon="2.0421">
        <ele>166</ele>
        <time>2024-03-31T10:12:26Z</time>
      </trkpt>
      <trkpt lat="48.87044" lon="2.0421">
        <ele>166</ele>
        <time>2024-03-31T10:12:30Z</time>
      </trkpt>
      <trkpt lat="48.87034" lon="2.04212">
        <ele>168</ele>
        <time>2024-03-31T10:12:42Z</time>
      </trkpt>
      <trkpt lat="48.87029" lon="2.04215">
        <ele>168</ele>
        <time>2024-03-31T10:12:47Z</time>
      </trkpt>
      <trkpt lat="48.87008" lon="2.04218">
        <ele>171</ele>
        <time>2024-03-31T10:13:13Z</time>
      </trkpt>
      <trkpt lat="48.86998" lon="2.0422">
        <ele>173</ele>
        <time>2024-03-31T10:13:22Z</time>
      </trkpt>
      <trkpt lat="48.86991" lon="2.04199">
        <ele>175</ele>
        <time>2024-03-31T10:13:44Z</time>
      </trkpt>
      <trkpt lat="48.86988" lon="2.04194">
        <ele>175</ele>
        <time>2024-03-31T10:13:52Z</time>
      </trkpt>
      <trkpt lat="48.86995" lon="2.04201">
        <ele>174</ele>
        <time>2024-03-31T10:46:41Z</time>
      </trkpt>
      <trkpt lat="48.86995" lon="2.042">
        <ele>174</ele>
        <time>2024-03-31T10:46:42Z</time>
      </trkpt>
      <trkpt lat="48.86982" lon="2.04187">
        <ele>174</ele>
        <time>2024-03-31T10:47:22Z</time>
      </trkpt>
      <trkpt lat="48.86979" lon="2.04183">
        <ele>175</ele>
        <time>2024-03-31T10:47:29Z</time>
      </trkpt>
      <trkpt lat="48.86978" lon="2.04177">
        <ele>175</ele>
        <time>2024-03-31T10:47:34Z</time>
      </trkpt>
      <trkpt lat="48.86976" lon="2.0417">
        <ele>175</ele>
        <time>2024-03-31T10:47:39Z</time>
      </trkpt>
      <trkpt lat="48.86975" lon="2.04163">
        <ele>175</ele>
        <time>2024-03-31T10:47:43Z</time>
      </trkpt>
      <trkpt lat="48.86974" lon="2.04157">
        <ele>175</ele>
        <time>2024-03-31T10:47:47Z</time>
      </trkpt>
      <trkpt lat="48.86971" lon="2.04128">
        <ele>175</ele>
        <time>2024-03-31T10:48:02Z</time>
      </trkpt>
      <trkpt lat="48.86972" lon="2.04116">
        <ele>176</ele>
        <time>2024-03-31T10:48:14Z</time>
      </trkpt>
      <trkpt lat="48.8697" lon="2.0411">
        <ele>176</ele>
        <time>2024-03-31T10:48:19Z</time>
      </trkpt>
      <trkpt lat="48.8697" lon="2.04103">
        <ele>176</ele>
        <time>2024-03-31T10:48:24Z</time>
      </trkpt>
      <trkpt lat="48.86968" lon="2.04097">
        <ele>176</ele>
        <time>2024-03-31T10:48:28Z</time>
      </trkpt>
      <trkpt lat="48.86966" lon="2.04089">
        <ele>176</ele>
        <time>2024-03-31T10:48:32Z</time>
      </trkpt>
      <trkpt lat="48.86963" lon="2.04085">
        <ele>176</ele>
        <time>2024-03-31T10:48:36Z</time>
      </trkpt>
      <trkpt lat="48.8696" lon="2.04089">
        <ele>176</ele>
        <time>2024-03-31T10:48:43Z</time>
      </trkpt>
      <trkpt lat="48.86959" lon="2.04096">
        <ele>176</ele>
        <time>2024-03-31T10:48:53Z</time>
      </trkpt>
      <trkpt lat="48.86962" lon="2.04088">
        <ele>176</ele>
        <time>2024-03-31T10:50:24Z</time>
      </trkpt>
      <trkpt lat="48.86966" lon="2.04088">
        <ele>176</ele>
        <time>2024-03-31T10:50:33Z</time>
      </trkpt>
      <trkpt lat="48.86965" lon="2.04089">
        <ele>176</ele>
        <time>2024-03-31T10:51:27Z</time>
      </trkpt>
      <trkpt lat="48.86967" lon="2.04096">
        <ele>176</ele>
        <time>2024-03-31T10:51:39Z</time>
      </trkpt>
      <trkpt lat="48.86965" lon="2.04103">
        <ele>177</ele>
        <time>2024-03-31T10:52:00Z</time>
      </trkpt>
      <trkpt lat="48.86966" lon="2.0411">
        <ele>177</ele>
        <time>2024-03-31T10:52:11Z</time>
      </trkpt>
      <trkpt lat="48.86953" lon="2.04119">
        <ele>177</ele>
        <time>2024-03-31T10:52:24Z</time>
      </trkpt>
      <trkpt lat="48.86948" lon="2.04125">
        <ele>177</ele>
        <time>2024-03-31T10:52:41Z</time>
      </trkpt>
      <trkpt lat="48.86936" lon="2.04152">
        <ele>175</ele>
        <time>2024-03-31T10:53:07Z</time>
      </trkpt>
      <trkpt lat="48.86931" lon="2.04156">
        <ele>175</ele>
        <time>2024-03-31T10:53:18Z</time>
      </trkpt>
      <trkpt lat="48.86927" lon="2.04157">
        <ele>174</ele>
        <time>2024-03-31T10:53:55Z</time>
      </trkpt>
      <trkpt lat="48.8692" lon="2.04161">
        <ele>171</ele>
        <time>2024-03-31T10:54:05Z</time>
      </trkpt>
      <trkpt lat="48.86916" lon="2.04165">
        <ele>168</ele>
        <time>2024-03-31T10:54:14Z</time>
      </trkpt>
      <trkpt lat="48.86916" lon="2.04174">
        <ele>166</ele>
        <time>2024-03-31T10:54:24Z</time>
      </trkpt>
      <trkpt lat="48.86911" lon="2.04182">
        <ele>164</ele>
        <time>2024-03-31T10:54:34Z</time>
      </trkpt>
      <trkpt lat="48.8691" lon="2.04191">
        <ele>162</ele>
        <time>2024-03-31T10:54:44Z</time>
      </trkpt>
      <trkpt lat="48.86907" lon="2.04199">
        <ele>160</ele>
        <time>2024-03-31T10:54:54Z</time>
      </trkpt>
      <trkpt lat="48.86904" lon="2.04206">
        <ele>159</ele>
        <time>2024-03-31T10:54:59Z</time>
      </trkpt>
      <trkpt lat="48.86904" lon="2.04214">
        <ele>158</ele>
        <time>2024-03-31T10:55:08Z</time>
      </trkpt>
      <trkpt lat="48.86898" lon="2.04225">
        <ele>156</ele>
        <time>2024-03-31T10:55:19Z</time>
      </trkpt>
      <trkpt lat="48.86891" lon="2.04232">
        <ele>154</ele>
        <time>2024-03-31T10:55:27Z</time>
      </trkpt>
      <trkpt lat="48.86887" lon="2.04246">
        <ele>152</ele>
        <time>2024-03-31T10:55:42Z</time>
      </trkpt>
      <trkpt lat="48.86885" lon="2.04255">
        <ele>150</ele>
        <time>2024-03-31T10:55:52Z</time>
      </trkpt>
      <trkpt lat="48.86877" lon="2.04268">
        <ele>146</ele>
        <time>2024-03-31T10:56:07Z</time>
      </trkpt>
      <trkpt lat="48.86871" lon="2.0428">
        <ele>145</ele>
        <time>2024-03-31T10:56:15Z</time>
      </trkpt>
      <trkpt lat="48.86869" lon="2.04287">
        <ele>145</ele>
        <time>2024-03-31T10:56:19Z</time>
      </trkpt>
      <trkpt lat="48.86866" lon="2.04295">
        <ele>146</ele>
        <time>2024-03-31T10:56:25Z</time>
      </trkpt>
      <trkpt lat="48.86862" lon="2.043">
        <ele>146</ele>
        <time>2024-03-31T10:56:29Z</time>
      </trkpt>
      <trkpt lat="48.86856" lon="2.04302">
        <ele>147</ele>
        <time>2024-03-31T10:56:42Z</time>
      </trkpt>
      <trkpt lat="48.8685" lon="2.0431">
        <ele>147</ele>
        <time>2024-03-31T10:57:01Z</time>
      </trkpt>
      <trkpt lat="48.86848" lon="2.04315">
        <ele>147</ele>
        <time>2024-03-31T10:57:06Z</time>
      </trkpt>
      <trkpt lat="48.86846" lon="2.04322">
        <ele>147</ele>
        <time>2024-03-31T10:57:10Z</time>
      </trkpt>
      <trkpt lat="48.86844" lon="2.04328">
        <ele>147</ele>
        <time>2024-03-31T10:57:14Z</time>
      </trkpt>
      <trkpt lat="48.86841" lon="2.04336">
        <ele>147</ele>
        <time>2024-03-31T10:57:22Z</time>
      </trkpt>
      <trkpt lat="48.8684" lon="2.04343">
        <ele>147</ele>
        <time>2024-03-31T10:57:27Z</time>
      </trkpt>
      <trkpt lat="48.8684" lon="2.0435">
        <ele>147</ele>
        <time>2024-03-31T10:57:32Z</time>
      </trkpt>
      <trkpt lat="48.86836" lon="2.04362">
        <ele>147</ele>
        <time>2024-03-31T10:57:40Z</time>
      </trkpt>
      <trkpt lat="48.86829" lon="2.04373">
        <ele>147</ele>
        <time>2024-03-31T10:57:48Z</time>
      </trkpt>
      <trkpt lat="48.86825" lon="2.0438">
        <ele>148</ele>
        <time>2024-03-31T10:57:54Z</time>
      </trkpt>
      <trkpt lat="48.86821" lon="2.04383">
        <ele>148</ele>
        <time>2024-03-31T10:57:59Z</time>
      </trkpt>
      <trkpt lat="48.86816" lon="2.0439">
        <ele>149</ele>
        <time>2024-03-31T10:58:05Z</time>
      </trkpt>
      <trkpt lat="48.86816" lon="2.04396">
        <ele>149</ele>
        <time>2024-03-31T10:58:10Z</time>
      </trkpt>
      <trkpt lat="48.86814" lon="2.04403">
        <ele>149</ele>
        <time>2024-03-31T10:58:14Z</time>
      </trkpt>
      <trkpt lat="48.86807" lon="2.04423">
        <ele>149</ele>
        <time>2024-03-31T10:58:27Z</time>
      </trkpt>
      <trkpt lat="48.86803" lon="2.04429">
        <ele>149</ele>
        <time>2024-03-31T10:58:34Z</time>
      </trkpt>
      <trkpt lat="48.868" lon="2.04435">
        <ele>149</ele>
        <time>2024-03-31T10:58:38Z</time>
      </trkpt>
      <trkpt lat="48.86797" lon="2.0444">
        <ele>149</ele>
        <time>2024-03-31T10:58:43Z</time>
      </trkpt>
      <trkpt lat="48.86795" lon="2.04447">
        <ele>149</ele>
        <time>2024-03-31T10:58:47Z</time>
      </trkpt>
      <trkpt lat="48.86787" lon="2.04461">
        <ele>149</ele>
        <time>2024-03-31T10:58:59Z</time>
      </trkpt>
      <trkpt lat="48.86783" lon="2.04464">
        <ele>148</ele>
        <time>2024-03-31T10:59:02Z</time>
      </trkpt>
      <trkpt lat="48.86787" lon="2.04469">
        <ele>148</ele>
        <time>2024-03-31T10:59:17Z</time>
      </trkpt>
      <trkpt lat="48.86795" lon="2.04502">
        <ele>146</ele>
        <time>2024-03-31T10:59:42Z</time>
      </trkpt>
      <trkpt lat="48.86794" lon="2.0451">
        <ele>145</ele>
        <time>2024-03-31T10:59:47Z</time>
      </trkpt>
      <trkpt lat="48.86798" lon="2.04556">
        <ele>143</ele>
        <time>2024-03-31T11:00:19Z</time>
      </trkpt>
      <trkpt lat="48.86798" lon="2.04563">
        <ele>143</ele>
        <time>2024-03-31T11:00:27Z</time>
      </trkpt>
      <trkpt lat="48.86803" lon="2.04583">
        <ele>142</ele>
        <time>2024-03-31T11:00:49Z</time>
      </trkpt>
      <trkpt lat="48.86803" lon="2.04591">
        <ele>142</ele>
        <time>2024-03-31T11:00:53Z</time>
      </trkpt>
      <trkpt lat="48.86809" lon="2.04609">
        <ele>141</ele>
        <time>2024-03-31T11:01:11Z</time>
      </trkpt>
      <trkpt lat="48.86812" lon="2.04624">
        <ele>140</ele>
        <time>2024-03-31T11:01:21Z</time>
      </trkpt>
      <trkpt lat="48.86814" lon="2.04644">
        <ele>140</ele>
        <time>2024-03-31T11:01:39Z</time>
      </trkpt>
      <trkpt lat="48.86815" lon="2.04651">
        <ele>140</ele>
        <time>2024-03-31T11:01:43Z</time>
      </trkpt>
      <trkpt lat="48.86822" lon="2.04653">
        <ele>139</ele>
        <time>2024-03-31T11:01:55Z</time>
      </trkpt>
      <trkpt lat="48.86827" lon="2.04658">
        <ele>139</ele>
        <time>2024-03-31T11:02:26Z</time>
      </trkpt>
      <trkpt lat="48.86825" lon="2.0467">
        <ele>139</ele>
        <time>2024-03-31T11:02:36Z</time>
      </trkpt>
      <trkpt lat="48.86827" lon="2.04676">
        <ele>139</ele>
        <time>2024-03-31T11:02:40Z</time>
      </trkpt>
      <trkpt lat="48.86825" lon="2.04684">
        <ele>138</ele>
        <time>2024-03-31T11:02:46Z</time>
      </trkpt>
      <trkpt lat="48.86827" lon="2.04701">
        <ele>138</ele>
        <time>2024-03-31T11:03:03Z</time>
      </trkpt>
      <trkpt lat="48.86825" lon="2.04693">
        <ele>137</ele>
        <time>2024-03-31T11:03:15Z</time>
      </trkpt>
      <trkpt lat="48.8682" lon="2.04691">
        <ele>137</ele>
        <time>2024-03-31T11:03:30Z</time>
      </trkpt>
      <trkpt lat="48.86823" lon="2.04701">
        <ele>137</ele>
        <time>2024-03-31T11:03:40Z</time>
      </trkpt>
      <trkpt lat="48.86824" lon="2.04707">
        <ele>137</ele>
        <time>2024-03-31T11:03:44Z</time>
      </trkpt>
      <trkpt lat="48.86827" lon="2.04723">
        <ele>137</ele>
        <time>2024-03-31T11:03:53Z</time>
      </trkpt>
      <trkpt lat="48.86826" lon="2.0473">
        <ele>136</ele>
        <time>2024-03-31T11:03:57Z</time>
      </trkpt>
      <trkpt lat="48.86827" lon="2.04737">
        <ele>136</ele>
        <time>2024-03-31T11:04:01Z</time>
      </trkpt>
      <trkpt lat="48.8683" lon="2.0475">
        <ele>135</ele>
        <time>2024-03-31T11:04:07Z</time>
      </trkpt>
      <trkpt lat="48.86829" lon="2.04757">
        <ele>135</ele>
        <time>2024-03-31T11:04:11Z</time>
      </trkpt>
      <trkpt lat="48.86833" lon="2.04768">
        <ele>135</ele>
        <time>2024-03-31T11:04:21Z</time>
      </trkpt>
      <trkpt lat="48.86833" lon="2.04775">
        <ele>135</ele>
        <time>2024-03-31T11:04:26Z</time>
      </trkpt>
      <trkpt lat="48.86841" lon="2.04783">
        <ele>134</ele>
        <time>2024-03-31T11:04:33Z</time>
      </trkpt>
      <trkpt lat="48.86843" lon="2.0479">
        <ele>134</ele>
        <time>2024-03-31T11:04:37Z</time>
      </trkpt>
      <trkpt lat="48.86842" lon="2.04803">
        <ele>133</ele>
        <time>2024-03-31T11:04:44Z</time>
      </trkpt>
      <trkpt lat="48.86842" lon="2.0481">
        <ele>133</ele>
        <time>2024-03-31T11:04:52Z</time>
      </trkpt>
      <trkpt lat="48.8684" lon="2.04818">
        <ele>133</ele>
        <time>2024-03-31T11:05:02Z</time>
      </trkpt>
      <trkpt lat="48.86839" lon="2.04824">
        <ele>133</ele>
        <time>2024-03-31T11:05:07Z</time>
      </trkpt>
      <trkpt lat="48.86832" lon="2.0483">
        <ele>133</ele>
        <time>2024-03-31T11:05:15Z</time>
      </trkpt>
      <trkpt lat="48.86836" lon="2.04871">
        <ele>132</ele>
        <time>2024-03-31T11:05:43Z</time>
      </trkpt>
      <trkpt lat="48.86838" lon="2.04877">
        <ele>132</ele>
        <time>2024-03-31T11:05:47Z</time>
      </trkpt>
      <trkpt lat="48.86843" lon="2.04889">
        <ele>132</ele>
        <time>2024-03-31T11:05:57Z</time>
      </trkpt>
      <trkpt lat="48.86844" lon="2.04898">
        <ele>131</ele>
        <time>2024-03-31T11:06:01Z</time>
      </trkpt>
      <trkpt lat="48.86848" lon="2.049">
        <ele>131</ele>
        <time>2024-03-31T11:06:05Z</time>
      </trkpt>
      <trkpt lat="48.8685" lon="2.04908">
        <ele>130</ele>
        <time>2024-03-31T11:06:11Z</time>
      </trkpt>
      <trkpt lat="48.8685" lon="2.04917">
        <ele>130</ele>
        <time>2024-03-31T11:06:28Z</time>
      </trkpt>
      <trkpt lat="48.86852" lon="2.04934">
        <ele>130</ele>
        <time>2024-03-31T11:06:59Z</time>
      </trkpt>
      <trkpt lat="48.86851" lon="2.04927">
        <ele>130</ele>
        <time>2024-03-31T11:07:08Z</time>
      </trkpt>
      <trkpt lat="48.86847" lon="2.04925">
        <ele>130</ele>
        <time>2024-03-31T11:07:11Z</time>
      </trkpt>
      <trkpt lat="48.86843" lon="2.04925">
        <ele>131</ele>
        <time>2024-03-31T11:07:30Z</time>
      </trkpt>
      <trkpt lat="48.86834" lon="2.04932">
        <ele>131</ele>
        <time>2024-03-31T11:07:41Z</time>
      </trkpt>
      <trkpt lat="48.8683" lon="2.04936">
        <ele>131</ele>
        <time>2024-03-31T11:07:45Z</time>
      </trkpt>
      <trkpt lat="48.86827" lon="2.04946">
        <ele>132</ele>
        <time>2024-03-31T11:07:58Z</time>
      </trkpt>
      <trkpt lat="48.86822" lon="2.04953">
        <ele>132</ele>
        <time>2024-03-31T11:08:08Z</time>
      </trkpt>
      <trkpt lat="48.86822" lon="2.04962">
        <ele>132</ele>
        <time>2024-03-31T11:08:18Z</time>
      </trkpt>
      <trkpt lat="48.86821" lon="2.04973">
        <ele>132</ele>
        <time>2024-03-31T11:08:29Z</time>
      </trkpt>
      <trkpt lat="48.86821" lon="2.04981">
        <ele>132</ele>
        <time>2024-03-31T11:08:35Z</time>
      </trkpt>
      <trkpt lat="48.86819" lon="2.04991">
        <ele>132</ele>
        <time>2024-03-31T11:08:44Z</time>
      </trkpt>
      <trkpt lat="48.86808" lon="2.05005">
        <ele>133</ele>
        <time>2024-03-31T11:08:59Z</time>
      </trkpt>
      <trkpt lat="48.86805" lon="2.0501">
        <ele>133</ele>
        <time>2024-03-31T11:09:03Z</time>
      </trkpt>
      <trkpt lat="48.86793" lon="2.05022">
        <ele>134</ele>
        <time>2024-03-31T11:09:15Z</time>
      </trkpt>
      <trkpt lat="48.86783" lon="2.05027">
        <ele>134</ele>
        <time>2024-03-31T11:09:25Z</time>
      </trkpt>
      <trkpt lat="48.8678" lon="2.0503">
        <ele>135</ele>
        <time>2024-03-31T11:09:33Z</time>
      </trkpt>
      <trkpt lat="48.86775" lon="2.05034">
        <ele>135</ele>
        <time>2024-03-31T11:09:39Z</time>
      </trkpt>
      <trkpt lat="48.8676" lon="2.05041">
        <ele>136</ele>
        <time>2024-03-31T11:09:52Z</time>
      </trkpt>
      <trkpt lat="48.86734" lon="2.05039">
        <ele>138</ele>
        <time>2024-03-31T11:10:13Z</time>
      </trkpt>
      <trkpt lat="48.86733" lon="2.05045">
        <ele>138</ele>
        <time>2024-03-31T11:10:22Z</time>
      </trkpt>
      <trkpt lat="48.86734" lon="2.05055">
        <ele>136</ele>
        <time>2024-03-31T11:10:33Z</time>
      </trkpt>
      <trkpt lat="48.86734" lon="2.05078">
        <ele>137</ele>
        <time>2024-03-31T11:10:49Z</time>
      </trkpt>
      <trkpt lat="48.86733" lon="2.05085">
        <ele>138</ele>
        <time>2024-03-31T11:10:56Z</time>
      </trkpt>
      <trkpt lat="48.86736" lon="2.05091">
        <ele>138</ele>
        <time>2024-03-31T11:11:19Z</time>
      </trkpt>
      <trkpt lat="48.86744" lon="2.05092">
        <ele>136</ele>
        <time>2024-03-31T11:11:38Z</time>
      </trkpt>
      <trkpt lat="48.86756" lon="2.05086">
        <ele>135</ele>
        <time>2024-03-31T11:11:53Z</time>
      </trkpt>
      <trkpt lat="48.8676" lon="2.05085">
        <ele>135</ele>
        <time>2024-03-31T11:11:58Z</time>
      </trkpt>
      <trkpt lat="48.86766" lon="2.05081">
        <ele>134</ele>
        <time>2024-03-31T11:12:06Z</time>
      </trkpt>
      <trkpt lat="48.86775" lon="2.05088">
        <ele>134</ele>
        <time>2024-03-31T11:12:16Z</time>
      </trkpt>
      <trkpt lat="48.86778" lon="2.05093">
        <ele>134</ele>
        <time>2024-03-31T11:12:20Z</time>
      </trkpt>
      <trkpt lat="48.86779" lon="2.05102">
        <ele>134</ele>
        <time>2024-03-31T11:12:24Z</time>
      </trkpt>
      <trkpt lat="48.8678" lon="2.05124">
        <ele>133</ele>
        <time>2024-03-31T11:12:34Z</time>
      </trkpt>
      <trkpt lat="48.86782" lon="2.05132">
        <ele>133</ele>
        <time>2024-03-31T11:12:38Z</time>
      </trkpt>
      <trkpt lat="48.86781" lon="2.05139">
        <ele>133</ele>
        <time>2024-03-31T11:12:42Z</time>
      </trkpt>
      <trkpt lat="48.86778" lon="2.05145">
        <ele>133</ele>
        <time>2024-03-31T11:12:46Z</time>
      </trkpt>
      <trkpt lat="48.86773" lon="2.0516">
        <ele>134</ele>
        <time>2024-03-31T11:12:59Z</time>
      </trkpt>
      <trkpt lat="48.86772" lon="2.05167">
        <ele>133</ele>
        <time>2024-03-31T11:13:04Z</time>
      </trkpt>
      <trkpt lat="48.86768" lon="2.05175">
        <ele>134</ele>
        <time>2024-03-31T11:13:17Z</time>
      </trkpt>
      <trkpt lat="48.86757" lon="2.05171">
        <ele>134</ele>
        <time>2024-03-31T11:13:29Z</time>
      </trkpt>
      <trkpt lat="48.86752" lon="2.05175">
        <ele>134</ele>
        <time>2024-03-31T11:13:33Z</time>
      </trkpt>
      <trkpt lat="48.86748" lon="2.05181">
        <ele>134</ele>
        <time>2024-03-31T11:13:38Z</time>
      </trkpt>
      <trkpt lat="48.86744" lon="2.05186">
        <ele>134</ele>
        <time>2024-03-31T11:13:42Z</time>
      </trkpt>
      <trkpt lat="48.86734" lon="2.05188">
        <ele>134</ele>
        <time>2024-03-31T11:13:51Z</time>
      </trkpt>
      <trkpt lat="48.86708" lon="2.0521">
        <ele>136</ele>
        <time>2024-03-31T11:14:17Z</time>
      </trkpt>
      <trkpt lat="48.86703" lon="2.05212">
        <ele>136</ele>
        <time>2024-03-31T11:14:23Z</time>
      </trkpt>
      <trkpt lat="48.86698" lon="2.05213">
        <ele>137</ele>
        <time>2024-03-31T11:14:28Z</time>
      </trkpt>
      <trkpt lat="48.86692" lon="2.0522">
        <ele>137</ele>
        <time>2024-03-31T11:14:36Z</time>
      </trkpt>
      <trkpt lat="48.86688" lon="2.05222">
        <ele>137</ele>
        <time>2024-03-31T11:14:40Z</time>
      </trkpt>
      <trkpt lat="48.86682" lon="2.05223">
        <ele>137</ele>
        <time>2024-03-31T11:14:45Z</time>
      </trkpt>
      <trkpt lat="48.86677" lon="2.0523">
        <ele>138</ele>
        <time>2024-03-31T11:14:53Z</time>
      </trkpt>
      <trkpt lat="48.86676" lon="2.0524">
        <ele>138</ele>
        <time>2024-03-31T11:15:01Z</time>
      </trkpt>
      <trkpt lat="48.86671" lon="2.05247">
        <ele>138</ele>
        <time>2024-03-31T11:15:09Z</time>
      </trkpt>
      <trkpt lat="48.86669" lon="2.05255">
        <ele>138</ele>
        <time>2024-03-31T11:15:14Z</time>
      </trkpt>
      <trkpt lat="48.86668" lon="2.05278">
        <ele>138</ele>
        <time>2024-03-31T11:15:26Z</time>
      </trkpt>
      <trkpt lat="48.86668" lon="2.05285">
        <ele>138</ele>
        <time>2024-03-31T11:15:30Z</time>
      </trkpt>
      <trkpt lat="48.86668" lon="2.05293">
        <ele>138</ele>
        <time>2024-03-31T11:15:34Z</time>
      </trkpt>
      <trkpt lat="48.86667" lon="2.05307">
        <ele>138</ele>
        <time>2024-03-31T11:15:41Z</time>
      </trkpt>
      <trkpt lat="48.86665" lon="2.0534">
        <ele>137</ele>
        <time>2024-03-31T11:15:59Z</time>
      </trkpt>
      <trkpt lat="48.86665" lon="2.05371">
        <ele>136</ele>
        <time>2024-03-31T11:16:15Z</time>
      </trkpt>
      <trkpt lat="48.86663" lon="2.05402">
        <ele>135</ele>
        <time>2024-03-31T11:16:31Z</time>
      </trkpt>
      <trkpt lat="48.86668" lon="2.05443">
        <ele>134</ele>
        <time>2024-03-31T11:16:51Z</time>
      </trkpt>
      <trkpt lat="48.86677" lon="2.05485">
        <ele>133</ele>
        <time>2024-03-31T11:17:20Z</time>
      </trkpt>
      <trkpt lat="48.86678" lon="2.05501">
        <ele>132</ele>
        <time>2024-03-31T11:17:28Z</time>
      </trkpt>
      <trkpt lat="48.86682" lon="2.05521">
        <ele>132</ele>
        <time>2024-03-31T11:17:39Z</time>
      </trkpt>
      <trkpt lat="48.86683" lon="2.05529">
        <ele>131</ele>
        <time>2024-03-31T11:18:17Z</time>
      </trkpt>
      <trkpt lat="48.86687" lon="2.05539">
        <ele>131</ele>
        <time>2024-03-31T11:18:53Z</time>
      </trkpt>
      <trkpt lat="48.86691" lon="2.05551">
        <ele>130</ele>
        <time>2024-03-31T11:19:05Z</time>
      </trkpt>
      <trkpt lat="48.86692" lon="2.05559">
        <ele>130</ele>
        <time>2024-03-31T11:19:10Z</time>
      </trkpt>
      <trkpt lat="48.86697" lon="2.05577">
        <ele>129</ele>
        <time>2024-03-31T11:19:25Z</time>
      </trkpt>
      <trkpt lat="48.86697" lon="2.05591">
        <ele>128</ele>
        <time>2024-03-31T11:19:33Z</time>
      </trkpt>
      <trkpt lat="48.86702" lon="2.05605">
        <ele>128</ele>
        <time>2024-03-31T11:19:44Z</time>
      </trkpt>
      <trkpt lat="48.86703" lon="2.05611">
        <ele>128</ele>
        <time>2024-03-31T11:19:49Z</time>
      </trkpt>
      <trkpt lat="48.86709" lon="2.0564">
        <ele>128</ele>
        <time>2024-03-31T11:20:04Z</time>
      </trkpt>
      <trkpt lat="48.86714" lon="2.05651">
        <ele>127</ele>
        <time>2024-03-31T11:20:15Z</time>
      </trkpt>
      <trkpt lat="48.86716" lon="2.05659">
        <ele>127</ele>
        <time>2024-03-31T11:20:20Z</time>
      </trkpt>
      <trkpt lat="48.86718" lon="2.05666">
        <ele>127</ele>
        <time>2024-03-31T11:20:24Z</time>
      </trkpt>
      <trkpt lat="48.86718" lon="2.05677">
        <ele>126</ele>
        <time>2024-03-31T11:20:32Z</time>
      </trkpt>
      <trkpt lat="48.86722" lon="2.05695">
        <ele>126</ele>
        <time>2024-03-31T11:20:45Z</time>
      </trkpt>
      <trkpt lat="48.86725" lon="2.05711">
        <ele>125</ele>
        <time>2024-03-31T11:20:54Z</time>
      </trkpt>
      <trkpt lat="48.8673" lon="2.05733">
        <ele>125</ele>
        <time>2024-03-31T11:21:07Z</time>
      </trkpt>
      <trkpt lat="48.86731" lon="2.05742">
        <ele>124</ele>
        <time>2024-03-31T11:21:11Z</time>
      </trkpt>
      <trkpt lat="48.86736" lon="2.05754">
        <ele>124</ele>
        <time>2024-03-31T11:21:18Z</time>
      </trkpt>
      <trkpt lat="48.86741" lon="2.05782">
        <ele>123</ele>
        <time>2024-03-31T11:21:34Z</time>
      </trkpt>
      <trkpt lat="48.8674" lon="2.05789">
        <ele>123</ele>
        <time>2024-03-31T11:21:38Z</time>
      </trkpt>
      <trkpt lat="48.86744" lon="2.05826">
        <ele>122</ele>
        <time>2024-03-31T11:21:58Z</time>
      </trkpt>
      <trkpt lat="48.86746" lon="2.05833">
        <ele>122</ele>
        <time>2024-03-31T11:22:02Z</time>
      </trkpt>
      <trkpt lat="48.86746" lon="2.05841">
        <ele>121</ele>
        <time>2024-03-31T11:22:06Z</time>
      </trkpt>
      <trkpt lat="48.86749" lon="2.05852">
        <ele>121</ele>
        <time>2024-03-31T11:22:13Z</time>
      </trkpt>
      <trkpt lat="48.86751" lon="2.05876">
        <ele>120</ele>
        <time>2024-03-31T11:22:26Z</time>
      </trkpt>
      <trkpt lat="48.86751" lon="2.05884">
        <ele>120</ele>
        <time>2024-03-31T11:22:31Z</time>
      </trkpt>
      <trkpt lat="48.86751" lon="2.05891">
        <ele>120</ele>
        <time>2024-03-31T11:22:35Z</time>
      </trkpt>
      <trkpt lat="48.86753" lon="2.05905">
        <ele>119</ele>
        <time>2024-03-31T11:22:43Z</time>
      </trkpt>
      <trkpt lat="48.86753" lon="2.05913">
        <ele>119</ele>
        <time>2024-03-31T11:22:47Z</time>
      </trkpt>
      <trkpt lat="48.86751" lon="2.0592">
        <ele>119</ele>
        <time>2024-03-31T11:22:51Z</time>
      </trkpt>
      <trkpt lat="48.86747" lon="2.05923">
        <ele>119</ele>
        <time>2024-03-31T11:22:55Z</time>
      </trkpt>
      <trkpt lat="48.86742" lon="2.05924">
        <ele>119</ele>
        <time>2024-03-31T11:22:58Z</time>
      </trkpt>
      <trkpt lat="48.86738" lon="2.05928">
        <ele>119</ele>
        <time>2024-03-31T11:23:03Z</time>
      </trkpt>
      <trkpt lat="48.86732" lon="2.05931">
        <ele>119</ele>
        <time>2024-03-31T11:23:07Z</time>
      </trkpt>
      <trkpt lat="48.86723" lon="2.05933">
        <ele>118</ele>
        <time>2024-03-31T11:23:16Z</time>
      </trkpt>
      <trkpt lat="48.86713" lon="2.05939">
        <ele>119</ele>
        <time>2024-03-31T11:23:27Z</time>
      </trkpt>
      <trkpt lat="48.86692" lon="2.05946">
        <ele>117</ele>
        <time>2024-03-31T11:23:43Z</time>
      </trkpt>
      <trkpt lat="48.8667" lon="2.05959">
        <ele>115</ele>
        <time>2024-03-31T11:24:03Z</time>
      </trkpt>
      <trkpt lat="48.86663" lon="2.05959">
        <ele>114</ele>
        <time>2024-03-31T11:24:10Z</time>
      </trkpt>
      <trkpt lat="48.86659" lon="2.05962">
        <ele>114</ele>
        <time>2024-03-31T11:24:14Z</time>
      </trkpt>
      <trkpt lat="48.86648" lon="2.05966">
        <ele>113</ele>
        <time>2024-03-31T11:24:21Z</time>
      </trkpt>
      <trkpt lat="48.86643" lon="2.05967">
        <ele>112</ele>
        <time>2024-03-31T11:24:26Z</time>
      </trkpt>
      <trkpt lat="48.86637" lon="2.05967">
        <ele>111</ele>
        <time>2024-03-31T11:24:33Z</time>
      </trkpt>
      <trkpt lat="48.86632" lon="2.05969">
        <ele>109</ele>
        <time>2024-03-31T11:24:37Z</time>
      </trkpt>
      <trkpt lat="48.86619" lon="2.05973">
        <ele>108</ele>
        <time>2024-03-31T11:24:48Z</time>
      </trkpt>
      <trkpt lat="48.86615" lon="2.05976">
        <ele>108</ele>
        <time>2024-03-31T11:24:51Z</time>
      </trkpt>
      <trkpt lat="48.86611" lon="2.05981">
        <ele>108</ele>
        <time>2024-03-31T11:24:55Z</time>
      </trkpt>
      <trkpt lat="48.86605" lon="2.05973">
        <ele>108</ele>
        <time>2024-03-31T11:25:03Z</time>
      </trkpt>
      <trkpt lat="48.86603" lon="2.05968">
        <ele>108</ele>
        <time>2024-03-31T11:25:06Z</time>
      </trkpt>
      <trkpt lat="48.86601" lon="2.0596">
        <ele>108</ele>
        <time>2024-03-31T11:25:11Z</time>
      </trkpt>
      <trkpt lat="48.86591" lon="2.05962">
        <ele>108</ele>
        <time>2024-03-31T11:25:23Z</time>
      </trkpt>
      <trkpt lat="48.86574" lon="2.05961">
        <ele>110</ele>
        <time>2024-03-31T11:25:38Z</time>
      </trkpt>
      <trkpt lat="48.86565" lon="2.05968">
        <ele>111</ele>
        <time>2024-03-31T11:25:47Z</time>
      </trkpt>
      <trkpt lat="48.86562" lon="2.05974">
        <ele>111</ele>
        <time>2024-03-31T11:25:52Z</time>
      </trkpt>
      <trkpt lat="48.86549" lon="2.05999">
        <ele>112</ele>
        <time>2024-03-31T11:26:10Z</time>
      </trkpt>
      <trkpt lat="48.86544" lon="2.06014">
        <ele>112</ele>
        <time>2024-03-31T11:26:19Z</time>
      </trkpt>
      <trkpt lat="48.86533" lon="2.06037">
        <ele>113</ele>
        <time>2024-03-31T11:26:37Z</time>
      </trkpt>
      <trkpt lat="48.86528" lon="2.06042">
        <ele>113</ele>
        <time>2024-03-31T11:26:41Z</time>
      </trkpt>
      <trkpt lat="48.86518" lon="2.06052">
        <ele>113</ele>
        <time>2024-03-31T11:26:51Z</time>
      </trkpt>
      <trkpt lat="48.8651" lon="2.06068">
        <ele>113</ele>
        <time>2024-03-31T11:27:03Z</time>
      </trkpt>
      <trkpt lat="48.86508" lon="2.06075">
        <ele>113</ele>
        <time>2024-03-31T11:27:08Z</time>
      </trkpt>
      <trkpt lat="48.86504" lon="2.06084">
        <ele>113</ele>
        <time>2024-03-31T11:27:14Z</time>
      </trkpt>
      <trkpt lat="48.865" lon="2.06088">
        <ele>113</ele>
        <time>2024-03-31T11:27:18Z</time>
      </trkpt>
      <trkpt lat="48.8649" lon="2.06097">
        <ele>113</ele>
        <time>2024-03-31T11:27:27Z</time>
      </trkpt>
      <trkpt lat="48.86485" lon="2.06102">
        <ele>113</ele>
        <time>2024-03-31T11:27:32Z</time>
      </trkpt>
      <trkpt lat="48.86481" lon="2.06108">
        <ele>113</ele>
        <time>2024-03-31T11:27:38Z</time>
      </trkpt>
      <trkpt lat="48.86457" lon="2.06141">
        <ele>114</ele>
        <time>2024-03-31T11:28:04Z</time>
      </trkpt>
      <trkpt lat="48.86452" lon="2.06143">
        <ele>115</ele>
        <time>2024-03-31T11:28:09Z</time>
      </trkpt>
      <trkpt lat="48.86438" lon="2.06159">
        <ele>116</ele>
        <time>2024-03-31T11:28:22Z</time>
      </trkpt>
      <trkpt lat="48.86434" lon="2.06163">
        <ele>117</ele>
        <time>2024-03-31T11:28:26Z</time>
      </trkpt>
      <trkpt lat="48.86427" lon="2.06172">
        <ele>119</ele>
        <time>2024-03-31T11:28:36Z</time>
      </trkpt>
      <trkpt lat="48.86423" lon="2.06174">
        <ele>119</ele>
        <time>2024-03-31T11:28:41Z</time>
      </trkpt>
      <trkpt lat="48.86411" lon="2.06193">
        <ele>121</ele>
        <time>2024-03-31T11:28:58Z</time>
      </trkpt>
      <trkpt lat="48.8641" lon="2.06202">
        <ele>122</ele>
        <time>2024-03-31T11:29:04Z</time>
      </trkpt>
      <trkpt lat="48.86413" lon="2.06241">
        <ele>123</ele>
        <time>2024-03-31T11:29:27Z</time>
      </trkpt>
      <trkpt lat="48.86417" lon="2.06262">
        <ele>123</ele>
        <time>2024-03-31T11:29:40Z</time>
      </trkpt>
      <trkpt lat="48.86418" lon="2.06269">
        <ele>123</ele>
        <time>2024-03-31T11:29:45Z</time>
      </trkpt>
      <trkpt lat="48.86416" lon="2.0628">
        <ele>123</ele>
        <time>2024-03-31T11:29:53Z</time>
      </trkpt>
      <trkpt lat="48.86413" lon="2.06286">
        <ele>123</ele>
        <time>2024-03-31T11:29:57Z</time>
      </trkpt>
      <trkpt lat="48.86404" lon="2.06292">
        <ele>124</ele>
        <time>2024-03-31T11:30:05Z</time>
      </trkpt>
      <trkpt lat="48.86401" lon="2.06298">
        <ele>124</ele>
        <time>2024-03-31T11:30:09Z</time>
      </trkpt>
      <trkpt lat="48.86397" lon="2.06304">
        <ele>124</ele>
        <time>2024-03-31T11:30:14Z</time>
      </trkpt>
      <trkpt lat="48.86394" lon="2.0631">
        <ele>124</ele>
        <time>2024-03-31T11:30:18Z</time>
      </trkpt>
      <trkpt lat="48.86387" lon="2.06321">
        <ele>124</ele>
        <time>2024-03-31T11:30:27Z</time>
      </trkpt>
      <trkpt lat="48.86369" lon="2.06362">
        <ele>126</ele>
        <time>2024-03-31T11:30:59Z</time>
      </trkpt>
      <trkpt lat="48.86362" lon="2.06374">
        <ele>127</ele>
        <time>2024-03-31T11:31:09Z</time>
      </trkpt>
      <trkpt lat="48.86358" lon="2.06379">
        <ele>127</ele>
        <time>2024-03-31T11:31:14Z</time>
      </trkpt>
      <trkpt lat="48.86348" lon="2.06399">
        <ele>128</ele>
        <time>2024-03-31T11:31:26Z</time>
      </trkpt>
      <trkpt lat="48.86342" lon="2.06409">
        <ele>128</ele>
        <time>2024-03-31T11:31:34Z</time>
      </trkpt>
      <trkpt lat="48.8634" lon="2.06422">
        <ele>129</ele>
        <time>2024-03-31T11:31:41Z</time>
      </trkpt>
      <trkpt lat="48.86333" lon="2.06435">
        <ele>129</ele>
        <time>2024-03-31T11:31:51Z</time>
      </trkpt>
      <trkpt lat="48.86329" lon="2.06449">
        <ele>129</ele>
        <time>2024-03-31T11:31:59Z</time>
      </trkpt>
      <trkpt lat="48.86324" lon="2.06478">
        <ele>128</ele>
        <time>2024-03-31T11:32:16Z</time>
      </trkpt>
      <trkpt lat="48.86323" lon="2.0651">
        <ele>126</ele>
        <time>2024-03-31T11:32:35Z</time>
      </trkpt>
      <trkpt lat="48.86326" lon="2.06532">
        <ele>125</ele>
        <time>2024-03-31T11:32:49Z</time>
      </trkpt>
      <trkpt lat="48.86333" lon="2.06567">
        <ele>123</ele>
        <time>2024-03-31T11:33:10Z</time>
      </trkpt>
      <trkpt lat="48.86327" lon="2.0658">
        <ele>122</ele>
        <time>2024-03-31T11:33:19Z</time>
      </trkpt>
      <trkpt lat="48.8632" lon="2.0659">
        <ele>122</ele>
        <time>2024-03-31T11:33:25Z</time>
      </trkpt>
      <trkpt lat="48.86305" lon="2.0661">
        <ele>121</ele>
        <time>2024-03-31T11:33:41Z</time>
      </trkpt>
      <trkpt lat="48.86302" lon="2.06625">
        <ele>121</ele>
        <time>2024-03-31T11:33:49Z</time>
      </trkpt>
      <trkpt lat="48.863" lon="2.06642">
        <ele>120</ele>
        <time>2024-03-31T11:33:58Z</time>
      </trkpt>
      <trkpt lat="48.863" lon="2.06649">
        <ele>119</ele>
        <time>2024-03-31T11:34:02Z</time>
      </trkpt>
      <trkpt lat="48.86306" lon="2.06671">
        <ele>119</ele>
        <time>2024-03-31T11:34:14Z</time>
      </trkpt>
      <trkpt lat="48.8631" lon="2.06728">
        <ele>117</ele>
        <time>2024-03-31T11:34:46Z</time>
      </trkpt>
      <trkpt lat="48.86309" lon="2.06735">
        <ele>117</ele>
        <time>2024-03-31T11:34:50Z</time>
      </trkpt>
      <trkpt lat="48.86311" lon="2.06745">
        <ele>117</ele>
        <time>2024-03-31T11:34:57Z</time>
      </trkpt>
      <trkpt lat="48.86306" lon="2.06746">
        <ele>116</ele>
        <time>2024-03-31T11:35:14Z</time>
      </trkpt>
      <trkpt lat="48.86305" lon="2.06753">
        <ele>115</ele>
        <time>2024-03-31T11:35:20Z</time>
      </trkpt>
      <trkpt lat="48.86308" lon="2.06765">
        <ele>112</ele>
        <time>2024-03-31T11:35:38Z</time>
      </trkpt>
      <trkpt lat="48.86308" lon="2.06779">
        <ele>111</ele>
        <time>2024-03-31T11:35:51Z</time>
      </trkpt>
      <trkpt lat="48.86299" lon="2.0679">
        <ele>111</ele>
        <time>2024-03-31T11:36:08Z</time>
      </trkpt>
      <trkpt lat="48.8629" lon="2.06786">
        <ele>111</ele>
        <time>2024-03-31T11:36:13Z</time>
      </trkpt>
      <trkpt lat="48.86284" lon="2.06788">
        <ele>111</ele>
        <time>2024-03-31T11:36:18Z</time>
      </trkpt>
      <trkpt lat="48.86277" lon="2.06789">
        <ele>111</ele>
        <time>2024-03-31T11:36:23Z</time>
      </trkpt>
      <trkpt lat="48.86265" lon="2.06783">
        <ele>112</ele>
        <time>2024-03-31T11:36:33Z</time>
      </trkpt>
      <trkpt lat="48.8626" lon="2.06784">
        <ele>112</ele>
        <time>2024-03-31T11:36:36Z</time>
      </trkpt>
      <trkpt lat="48.8625" lon="2.0678">
        <ele>113</ele>
        <time>2024-03-31T11:36:45Z</time>
      </trkpt>
      <trkpt lat="48.86245" lon="2.06779">
        <ele>114</ele>
        <time>2024-03-31T11:36:50Z</time>
      </trkpt>
      <trkpt lat="48.86235" lon="2.06771">
        <ele>114</ele>
        <time>2024-03-31T11:37:00Z</time>
      </trkpt>
      <trkpt lat="48.86228" lon="2.06768">
        <ele>115</ele>
        <time>2024-03-31T11:37:10Z</time>
      </trkpt>
      <trkpt lat="48.86211" lon="2.06762">
        <ele>117</ele>
        <time>2024-03-31T11:37:24Z</time>
      </trkpt>
      <trkpt lat="48.86199" lon="2.06756">
        <ele>118</ele>
        <time>2024-03-31T11:37:39Z</time>
      </trkpt>
      <trkpt lat="48.86165" lon="2.06748">
        <ele>121</ele>
        <time>2024-03-31T11:38:09Z</time>
      </trkpt>
      <trkpt lat="48.86155" lon="2.06753">
        <ele>121</ele>
        <time>2024-03-31T11:38:18Z</time>
      </trkpt>
      <trkpt lat="48.86148" lon="2.06759">
        <ele>122</ele>
        <time>2024-03-31T11:38:27Z</time>
      </trkpt>
      <trkpt lat="48.86138" lon="2.06762">
        <ele>123</ele>
        <time>2024-03-31T11:38:35Z</time>
      </trkpt>
      <trkpt lat="48.86119" lon="2.06777">
        <ele>124</ele>
        <time>2024-03-31T11:38:54Z</time>
      </trkpt>
      <trkpt lat="48.86103" lon="2.06791">
        <ele>125</ele>
        <time>2024-03-31T11:39:11Z</time>
      </trkpt>
      <trkpt lat="48.86095" lon="2.06799">
        <ele>125</ele>
        <time>2024-03-31T11:39:20Z</time>
      </trkpt>
      <trkpt lat="48.86079" lon="2.06821">
        <ele>128</ele>
        <time>2024-03-31T11:39:45Z</time>
      </trkpt>
      <trkpt lat="48.86078" lon="2.06814">
        <ele>128</ele>
        <time>2024-03-31T11:39:58Z</time>
      </trkpt>
      <trkpt lat="48.86075" lon="2.0685">
        <ele>128</ele>
        <time>2024-03-31T11:40:33Z</time>
      </trkpt>
      <trkpt lat="48.86076" lon="2.06863">
        <ele>128</ele>
        <time>2024-03-31T11:40:40Z</time>
      </trkpt>
      <trkpt lat="48.86075" lon="2.06873">
        <ele>128</ele>
        <time>2024-03-31T11:40:45Z</time>
      </trkpt>
      <trkpt lat="48.86075" lon="2.06891">
        <ele>129</ele>
        <time>2024-03-31T11:40:56Z</time>
      </trkpt>
      <trkpt lat="48.86075" lon="2.06921">
        <ele>129</ele>
        <time>2024-03-31T11:41:15Z</time>
      </trkpt>
      <trkpt lat="48.86077" lon="2.06929">
        <ele>128</ele>
        <time>2024-03-31T11:41:23Z</time>
      </trkpt>
      <trkpt lat="48.86076" lon="2.0694">
        <ele>128</ele>
        <time>2024-03-31T11:41:29Z</time>
      </trkpt>
      <trkpt lat="48.86076" lon="2.06954">
        <ele>129</ele>
        <time>2024-03-31T11:41:43Z</time>
      </trkpt>
      <trkpt lat="48.86071" lon="2.06985">
        <ele>129</ele>
        <time>2024-03-31T11:42:07Z</time>
      </trkpt>
      <trkpt lat="48.86074" lon="2.07007">
        <ele>130</ele>
        <time>2024-03-31T11:42:41Z</time>
      </trkpt>
      <trkpt lat="48.86075" lon="2.07021">
        <ele>131</ele>
        <time>2024-03-31T11:43:06Z</time>
      </trkpt>
      <trkpt lat="48.86075" lon="2.07034">
        <ele>132</ele>
        <time>2024-03-31T11:43:14Z</time>
      </trkpt>
      <trkpt lat="48.86077" lon="2.07043">
        <ele>133</ele>
        <time>2024-03-31T11:43:19Z</time>
      </trkpt>
      <trkpt lat="48.86076" lon="2.07063">
        <ele>134</ele>
        <time>2024-03-31T11:43:34Z</time>
      </trkpt>
      <trkpt lat="48.86074" lon="2.07071">
        <ele>135</ele>
        <time>2024-03-31T11:43:39Z</time>
      </trkpt>
      <trkpt lat="48.86074" lon="2.07079">
        <ele>135</ele>
        <time>2024-03-31T11:43:44Z</time>
      </trkpt>
      <trkpt lat="48.86073" lon="2.07086">
        <ele>136</ele>
        <time>2024-03-31T11:43:48Z</time>
      </trkpt>
      <trkpt lat="48.8607" lon="2.07092">
        <ele>136</ele>
        <time>2024-03-31T11:44:58Z</time>
      </trkpt>
      <trkpt lat="48.86062" lon="2.07094">
        <ele>136</ele>
        <time>2024-03-31T11:45:42Z</time>
      </trkpt>
      <trkpt lat="48.86053" lon="2.07096">
        <ele>137</ele>
        <time>2024-03-31T11:45:52Z</time>
      </trkpt>
      <trkpt lat="48.86046" lon="2.07096">
        <ele>137</ele>
        <time>2024-03-31T11:45:57Z</time>
      </trkpt>
      <trkpt lat="48.86034" lon="2.071">
        <ele>138</ele>
        <time>2024-03-31T11:46:07Z</time>
      </trkpt>
      <trkpt lat="48.86028" lon="2.071">
        <ele>138</ele>
        <time>2024-03-31T11:46:11Z</time>
      </trkpt>
      <trkpt lat="48.86018" lon="2.07101">
        <ele>140</ele>
        <time>2024-03-31T11:46:20Z</time>
      </trkpt>
      <trkpt lat="48.85985" lon="2.07102">
        <ele>142</ele>
        <time>2024-03-31T11:46:45Z</time>
      </trkpt>
      <trkpt lat="48.85978" lon="2.07104">
        <ele>142</ele>
        <time>2024-03-31T11:46:52Z</time>
      </trkpt>
      <trkpt lat="48.85963" lon="2.0711">
        <ele>143</ele>
        <time>2024-03-31T11:47:04Z</time>
      </trkpt>
      <trkpt lat="48.8596" lon="2.07116">
        <ele>144</ele>
        <time>2024-03-31T11:47:08Z</time>
      </trkpt>
      <trkpt lat="48.8596" lon="2.07131">
        <ele>145</ele>
        <time>2024-03-31T11:47:17Z</time>
      </trkpt>
      <trkpt lat="48.85963" lon="2.07153">
        <ele>145</ele>
        <time>2024-03-31T11:47:30Z</time>
      </trkpt>
      <trkpt lat="48.85963" lon="2.07169">
        <ele>145</ele>
        <time>2024-03-31T11:47:38Z</time>
      </trkpt>
      <trkpt lat="48.85961" lon="2.07194">
        <ele>145</ele>
        <time>2024-03-31T11:47:52Z</time>
      </trkpt>
      <trkpt lat="48.85958" lon="2.07202">
        <ele>145</ele>
        <time>2024-03-31T11:47:57Z</time>
      </trkpt>
      <trkpt lat="48.85958" lon="2.07209">
        <ele>145</ele>
        <time>2024-03-31T11:48:01Z</time>
      </trkpt>
      <trkpt lat="48.85959" lon="2.07243">
        <ele>144</ele>
        <time>2024-03-31T11:48:19Z</time>
      </trkpt>
      <trkpt lat="48.85958" lon="2.07251">
        <ele>144</ele>
        <time>2024-03-31T11:48:23Z</time>
      </trkpt>
      <trkpt lat="48.85957" lon="2.07257">
        <ele>144</ele>
        <time>2024-03-31T11:48:26Z</time>
      </trkpt>
      <trkpt lat="48.85949" lon="2.07275">
        <ele>143</ele>
        <time>2024-03-31T11:48:38Z</time>
      </trkpt>
      <trkpt lat="48.85934" lon="2.07325">
        <ele>141</ele>
        <time>2024-03-31T11:49:10Z</time>
      </trkpt>
      <trkpt lat="48.85932" lon="2.07341">
        <ele>140</ele>
        <time>2024-03-31T11:49:21Z</time>
      </trkpt>
      <trkpt lat="48.85927" lon="2.07394">
        <ele>138</ele>
        <time>2024-03-31T11:49:54Z</time>
      </trkpt>
      <trkpt lat="48.85926" lon="2.07405">
        <ele>138</ele>
        <time>2024-03-31T11:50:01Z</time>
      </trkpt>
      <trkpt lat="48.85934" lon="2.07441">
        <ele>138</ele>
        <time>2024-03-31T11:50:25Z</time>
      </trkpt>
      <trkpt lat="48.85935" lon="2.0745">
        <ele>138</ele>
        <time>2024-03-31T11:50:29Z</time>
      </trkpt>
      <trkpt lat="48.85937" lon="2.07459">
        <ele>137</ele>
        <time>2024-03-31T11:50:35Z</time>
      </trkpt>
      <trkpt lat="48.85939" lon="2.07467">
        <ele>137</ele>
        <time>2024-03-31T11:50:39Z</time>
      </trkpt>
      <trkpt lat="48.85942" lon="2.07472">
        <ele>137</ele>
        <time>2024-03-31T11:50:43Z</time>
      </trkpt>
      <trkpt lat="48.85945" lon="2.0748">
        <ele>137</ele>
        <time>2024-03-31T11:50:50Z</time>
      </trkpt>
      <trkpt lat="48.85945" lon="2.07488">
        <ele>137</ele>
        <time>2024-03-31T11:50:56Z</time>
      </trkpt>
      <trkpt lat="48.85947" lon="2.07498">
        <ele>136</ele>
        <time>2024-03-31T11:51:03Z</time>
      </trkpt>
      <trkpt lat="48.85951" lon="2.07531">
        <ele>137</ele>
        <time>2024-03-31T11:51:21Z</time>
      </trkpt>
      <trkpt lat="48.85953" lon="2.07538">
        <ele>136</ele>
        <time>2024-03-31T11:51:26Z</time>
      </trkpt>
      <trkpt lat="48.85958" lon="2.07556">
        <ele>136</ele>
        <time>2024-03-31T11:51:35Z</time>
      </trkpt>
      <trkpt lat="48.85961" lon="2.07579">
        <ele>135</ele>
        <time>2024-03-31T11:51:47Z</time>
      </trkpt>
      <trkpt lat="48.85962" lon="2.07596">
        <ele>135</ele>
        <time>2024-03-31T11:51:58Z</time>
      </trkpt>
      <trkpt lat="48.85964" lon="2.07606">
        <ele>134</ele>
        <time>2024-03-31T11:52:04Z</time>
      </trkpt>
      <trkpt lat="48.85964" lon="2.07615">
        <ele>134</ele>
        <time>2024-03-31T11:52:08Z</time>
      </trkpt>
      <trkpt lat="48.85972" lon="2.07653">
        <ele>132</ele>
        <time>2024-03-31T11:52:28Z</time>
      </trkpt>
      <trkpt lat="48.85977" lon="2.07673">
        <ele>132</ele>
        <time>2024-03-31T11:52:37Z</time>
      </trkpt>
      <trkpt lat="48.8598" lon="2.07687">
        <ele>131</ele>
        <time>2024-03-31T11:52:45Z</time>
      </trkpt>
      <trkpt lat="48.85982" lon="2.07697">
        <ele>131</ele>
        <time>2024-03-31T11:52:51Z</time>
      </trkpt>
      <trkpt lat="48.85982" lon="2.07705">
        <ele>130</ele>
        <time>2024-03-31T11:52:55Z</time>
      </trkpt>
      <trkpt lat="48.85992" lon="2.07758">
        <ele>129</ele>
        <time>2024-03-31T11:53:25Z</time>
      </trkpt>
      <trkpt lat="48.85991" lon="2.07766">
        <ele>129</ele>
        <time>2024-03-31T11:53:29Z</time>
      </trkpt>
      <trkpt lat="48.85999" lon="2.07811">
        <ele>128</ele>
        <time>2024-03-31T11:53:53Z</time>
      </trkpt>
      <trkpt lat="48.86021" lon="2.07866">
        <ele>129</ele>
        <time>2024-03-31T11:54:27Z</time>
      </trkpt>
      <trkpt lat="48.86023" lon="2.07873">
        <ele>129</ele>
        <time>2024-03-31T11:54:32Z</time>
      </trkpt>
      <trkpt lat="48.86041" lon="2.07906">
        <ele>130</ele>
        <time>2024-03-31T11:54:57Z</time>
      </trkpt>
      <trkpt lat="48.86059" lon="2.07935">
        <ele>131</ele>
        <time>2024-03-31T11:55:19Z</time>
      </trkpt>
      <trkpt lat="48.86066" lon="2.07932">
        <ele>132</ele>
        <time>2024-03-31T11:55:45Z</time>
      </trkpt>
      <trkpt lat="48.86069" lon="2.07938">
        <ele>132</ele>
        <time>2024-03-31T11:55:49Z</time>
      </trkpt>
      <trkpt lat="48.86078" lon="2.07946">
        <ele>133</ele>
        <time>2024-03-31T11:55:58Z</time>
      </trkpt>
      <trkpt lat="48.86085" lon="2.07947">
        <ele>134</ele>
        <time>2024-03-31T11:56:12Z</time>
      </trkpt>
      <trkpt lat="48.86088" lon="2.07962">
        <ele>135</ele>
        <time>2024-03-31T11:56:23Z</time>
      </trkpt>
      <trkpt lat="48.86097" lon="2.07969">
        <ele>138</ele>
        <time>2024-03-31T11:56:36Z</time>
      </trkpt>
      <trkpt lat="48.86101" lon="2.07972">
        <ele>138</ele>
        <time>2024-03-31T11:56:40Z</time>
      </trkpt>
      <trkpt lat="48.86108" lon="2.07972">
        <ele>139</ele>
        <time>2024-03-31T11:56:47Z</time>
      </trkpt>
      <trkpt lat="48.86112" lon="2.0798">
        <ele>139</ele>
        <time>2024-03-31T11:56:54Z</time>
      </trkpt>
      <trkpt lat="48.8612" lon="2.07986">
        <ele>141</ele>
        <time>2024-03-31T11:57:07Z</time>
      </trkpt>
      <trkpt lat="48.86134" lon="2.08016">
        <ele>145</ele>
        <time>2024-03-31T11:57:33Z</time>
      </trkpt>
      <trkpt lat="48.86139" lon="2.08017">
        <ele>146</ele>
        <time>2024-03-31T11:57:41Z</time>
      </trkpt>
      <trkpt lat="48.86144" lon="2.08015">
        <ele>146</ele>
        <time>2024-03-31T11:57:47Z</time>
      </trkpt>
      <trkpt lat="48.86157" lon="2.0802">
        <ele>147</ele>
        <time>2024-03-31T11:58:03Z</time>
      </trkpt>
      <trkpt lat="48.86163" lon="2.08026">
        <ele>148</ele>
        <time>2024-03-31T11:58:10Z</time>
      </trkpt>
      <trkpt lat="48.86177" lon="2.08041">
        <ele>150</ele>
        <time>2024-03-31T11:58:24Z</time>
      </trkpt>
      <trkpt lat="48.86189" lon="2.08046">
        <ele>152</ele>
        <time>2024-03-31T11:58:40Z</time>
      </trkpt>
      <trkpt lat="48.86194" lon="2.08051">
        <ele>153</ele>
        <time>2024-03-31T11:58:46Z</time>
      </trkpt>
      <trkpt lat="48.86209" lon="2.08056">
        <ele>156</ele>
        <time>2024-03-31T11:59:03Z</time>
      </trkpt>
      <trkpt lat="48.86214" lon="2.08062">
        <ele>156</ele>
        <time>2024-03-31T11:59:08Z</time>
      </trkpt>
      <trkpt lat="48.86219" lon="2.08073">
        <ele>157</ele>
        <time>2024-03-31T11:59:18Z</time>
      </trkpt>
      <trkpt lat="48.86225" lon="2.08071">
        <ele>157</ele>
        <time>2024-03-31T11:59:26Z</time>
      </trkpt>
      <trkpt lat="48.8623" lon="2.08074">
        <ele>157</ele>
        <time>2024-03-31T11:59:31Z</time>
      </trkpt>
      <trkpt lat="48.86254" lon="2.08082">
        <ele>160</ele>
        <time>2024-03-31T11:59:57Z</time>
      </trkpt>
      <trkpt lat="48.86262" lon="2.08097">
        <ele>161</ele>
        <time>2024-03-31T12:00:06Z</time>
      </trkpt>
      <trkpt lat="48.86266" lon="2.081">
        <ele>162</ele>
        <time>2024-03-31T12:00:11Z</time>
      </trkpt>
      <trkpt lat="48.86283" lon="2.08106">
        <ele>166</ele>
        <time>2024-03-31T12:00:31Z</time>
      </trkpt>
      <trkpt lat="48.86287" lon="2.0811">
        <ele>166</ele>
        <time>2024-03-31T12:00:36Z</time>
      </trkpt>
      <trkpt lat="48.86288" lon="2.08115">
        <ele>168</ele>
        <time>2024-03-31T12:01:30Z</time>
      </trkpt>
      <trkpt lat="48.86295" lon="2.08113">
        <ele>168</ele>
        <time>2024-03-31T12:02:06Z</time>
      </trkpt>
      <trkpt lat="48.86299" lon="2.0812">
        <ele>167</ele>
        <time>2024-03-31T12:02:42Z</time>
      </trkpt>
      <trkpt lat="48.86303" lon="2.08128">
        <ele>167</ele>
        <time>2024-03-31T12:02:54Z</time>
      </trkpt>
      <trkpt lat="48.863" lon="2.08128">
        <ele>167</ele>
        <time>2024-03-31T12:03:51Z</time>
      </trkpt>
      <trkpt lat="48.86294" lon="2.08122">
        <ele>167</ele>
        <time>2024-03-31T12:04:03Z</time>
      </trkpt>
      <trkpt lat="48.86289" lon="2.08126">
        <ele>167</ele>
        <time>2024-03-31T12:04:15Z</time>
      </trkpt>
      <trkpt lat="48.8629" lon="2.08117">
        <ele>167</ele>
        <time>2024-03-31T12:04:57Z</time>
      </trkpt>
      <trkpt lat="48.86292" lon="2.08108">
        <ele>167</ele>
        <time>2024-03-31T12:05:09Z</time>
      </trkpt>
      <trkpt lat="48.86288" lon="2.08112">
        <ele>167</ele>
        <time>2024-03-31T12:05:26Z</time>
      </trkpt>
      <trkpt lat="48.86287" lon="2.08125">
        <ele>167</ele>
        <time>2024-03-31T12:06:02Z</time>
      </trkpt>
      <trkpt lat="48.86291" lon="2.08132">
        <ele>166</ele>
        <time>2024-03-31T12:06:10Z</time>
      </trkpt>
      <trkpt lat="48.86296" lon="2.0813">
        <ele>166</ele>
        <time>2024-03-31T12:06:18Z</time>
      </trkpt>
      <trkpt lat="48.86301" lon="2.08133">
        <ele>166</ele>
        <time>2024-03-31T12:06:28Z</time>
      </trkpt>
      <trkpt lat="48.86307" lon="2.08129">
        <ele>166</ele>
        <time>2024-03-31T12:06:34Z</time>
      </trkpt>
      <trkpt lat="48.86305" lon="2.08121">
        <ele>166</ele>
        <time>2024-03-31T12:06:49Z</time>
      </trkpt>
      <trkpt lat="48.86301" lon="2.08116">
        <ele>166</ele>
        <time>2024-03-31T12:07:02Z</time>
      </trkpt>
      <trkpt lat="48.86312" lon="2.08118">
        <ele>166</ele>
        <time>2024-03-31T12:07:25Z</time>
      </trkpt>
      <trkpt lat="48.86316" lon="2.0812">
        <ele>166</ele>
        <time>2024-03-31T12:07:36Z</time>
      </trkpt>
      <trkpt lat="48.8633" lon="2.08113">
        <ele>166</ele>
        <time>2024-03-31T12:07:58Z</time>
      </trkpt>
      <trkpt lat="48.86357" lon="2.08126">
        <ele>166</ele>
        <time>2024-03-31T12:08:24Z</time>
      </trkpt>
      <trkpt lat="48.8636" lon="2.08131">
        <ele>166</ele>
        <time>2024-03-31T12:08:27Z</time>
      </trkpt>
      <trkpt lat="48.86368" lon="2.08133">
        <ele>166</ele>
        <time>2024-03-31T12:08:36Z</time>
      </trkpt>
      <trkpt lat="48.86373" lon="2.08137">
        <ele>166</ele>
        <time>2024-03-31T12:08:41Z</time>
      </trkpt>
      <trkpt lat="48.86375" lon="2.08144">
        <ele>166</ele>
        <time>2024-03-31T12:08:44Z</time>
      </trkpt>
      <trkpt lat="48.86373" lon="2.0815">
        <ele>166</ele>
        <time>2024-03-31T12:08:48Z</time>
      </trkpt>
      <trkpt lat="48.86372" lon="2.08153">
        <ele>167</ele>
        <time>2024-03-31T12:10:11Z</time>
      </trkpt>
      <trkpt lat="48.86366" lon="2.08154">
        <ele>166</ele>
        <time>2024-03-31T12:10:41Z</time>
      </trkpt>
      <trkpt lat="48.86368" lon="2.08164">
        <ele>167</ele>
        <time>2024-03-31T12:11:05Z</time>
      </trkpt>
      <trkpt lat="48.86373" lon="2.08164">
        <ele>167</ele>
        <time>2024-03-31T12:11:16Z</time>
      </trkpt>
      <trkpt lat="48.86387" lon="2.08194">
        <ele>168</ele>
        <time>2024-03-31T12:11:38Z</time>
      </trkpt>
      <trkpt lat="48.86389" lon="2.08202">
        <ele>168</ele>
        <time>2024-03-31T12:11:42Z</time>
      </trkpt>
      <trkpt lat="48.86392" lon="2.08209">
        <ele>168</ele>
        <time>2024-03-31T12:11:46Z</time>
      </trkpt>
      <trkpt lat="48.86394" lon="2.08226">
        <ele>168</ele>
        <time>2024-03-31T12:11:55Z</time>
      </trkpt>
      <trkpt lat="48.86397" lon="2.08232">
        <ele>169</ele>
        <time>2024-03-31T12:11:59Z</time>
      </trkpt>
      <trkpt lat="48.86397" lon="2.08242">
        <ele>169</ele>
        <time>2024-03-31T12:12:04Z</time>
      </trkpt>
      <trkpt lat="48.86399" lon="2.08252">
        <ele>168</ele>
        <time>2024-03-31T12:12:10Z</time>
      </trkpt>
      <trkpt lat="48.86405" lon="2.08266">
        <ele>168</ele>
        <time>2024-03-31T12:12:20Z</time>
      </trkpt>
      <trkpt lat="48.86408" lon="2.08283">
        <ele>168</ele>
        <time>2024-03-31T12:12:29Z</time>
      </trkpt>
      <trkpt lat="48.8641" lon="2.08291">
        <ele>169</ele>
        <time>2024-03-31T12:12:34Z</time>
      </trkpt>
      <trkpt lat="48.86413" lon="2.08305">
        <ele>168</ele>
        <time>2024-03-31T12:12:43Z</time>
      </trkpt>
      <trkpt lat="48.86428" lon="2.08365">
        <ele>169</ele>
        <time>2024-03-31T12:13:18Z</time>
      </trkpt>
      <trkpt lat="48.86428" lon="2.08375">
        <ele>169</ele>
        <time>2024-03-31T12:13:23Z</time>
      </trkpt>
      <trkpt lat="48.8643" lon="2.08383">
        <ele>169</ele>
        <time>2024-03-31T12:13:27Z</time>
      </trkpt>
      <trkpt lat="48.86436" lon="2.08396">
        <ele>169</ele>
        <time>2024-03-31T12:13:36Z</time>
      </trkpt>
      <trkpt lat="48.86442" lon="2.08436">
        <ele>169</ele>
        <time>2024-03-31T12:13:58Z</time>
      </trkpt>
      <trkpt lat="48.86445" lon="2.08443">
        <ele>169</ele>
        <time>2024-03-31T12:14:01Z</time>
      </trkpt>
      <trkpt lat="48.8645" lon="2.08479">
        <ele>169</ele>
        <time>2024-03-31T12:14:21Z</time>
      </trkpt>
      <trkpt lat="48.86453" lon="2.08487">
        <ele>169</ele>
        <time>2024-03-31T12:14:26Z</time>
      </trkpt>
      <trkpt lat="48.86454" lon="2.08494">
        <ele>169</ele>
        <time>2024-03-31T12:14:31Z</time>
      </trkpt>
      <trkpt lat="48.86458" lon="2.08518">
        <ele>169</ele>
        <time>2024-03-31T12:14:48Z</time>
      </trkpt>
      <trkpt lat="48.8646" lon="2.08529">
        <ele>169</ele>
        <time>2024-03-31T12:14:54Z</time>
      </trkpt>
      <trkpt lat="48.86464" lon="2.08554">
        <ele>169</ele>
        <time>2024-03-31T12:15:08Z</time>
      </trkpt>
      <trkpt lat="48.86466" lon="2.08561">
        <ele>169</ele>
        <time>2024-03-31T12:15:12Z</time>
      </trkpt>
      <trkpt lat="48.86466" lon="2.08569">
        <ele>168</ele>
        <time>2024-03-31T12:15:17Z</time>
      </trkpt>
      <trkpt lat="48.8647" lon="2.08595">
        <ele>167</ele>
        <time>2024-03-31T12:15:33Z</time>
      </trkpt>
      <trkpt lat="48.86477" lon="2.08642">
        <ele>166</ele>
        <time>2024-03-31T12:16:00Z</time>
      </trkpt>
      <trkpt lat="48.8648" lon="2.08656">
        <ele>166</ele>
        <time>2024-03-31T12:16:09Z</time>
      </trkpt>
      <trkpt lat="48.86482" lon="2.08688">
        <ele>166</ele>
        <time>2024-03-31T12:16:25Z</time>
      </trkpt>
      <trkpt lat="48.86476" lon="2.08703">
        <ele>166</ele>
        <time>2024-03-31T12:16:33Z</time>
      </trkpt>
      <trkpt lat="48.86473" lon="2.08709">
        <ele>166</ele>
        <time>2024-03-31T12:16:37Z</time>
      </trkpt>
      <trkpt lat="48.86466" lon="2.08716">
        <ele>166</ele>
        <time>2024-03-31T12:16:50Z</time>
      </trkpt>
      <trkpt lat="48.86462" lon="2.08722">
        <ele>166</ele>
        <time>2024-03-31T12:16:56Z</time>
      </trkpt>
      <trkpt lat="48.86451" lon="2.08729">
        <ele>167</ele>
        <time>2024-03-31T12:17:07Z</time>
      </trkpt>
      <trkpt lat="48.86446" lon="2.08731">
        <ele>168</ele>
        <time>2024-03-31T12:17:15Z</time>
      </trkpt>
      <trkpt lat="48.86439" lon="2.08736">
        <ele>168</ele>
        <time>2024-03-31T12:17:21Z</time>
      </trkpt>
      <trkpt lat="48.86429" lon="2.08737">
        <ele>168</ele>
        <time>2024-03-31T12:17:29Z</time>
      </trkpt>
      <trkpt lat="48.86423" lon="2.08737">
        <ele>168</ele>
        <time>2024-03-31T12:17:34Z</time>
      </trkpt>
      <trkpt lat="48.86395" lon="2.0874">
        <ele>169</ele>
        <time>2024-03-31T12:17:59Z</time>
      </trkpt>
      <trkpt lat="48.86379" lon="2.08734">
        <ele>169</ele>
        <time>2024-03-31T12:18:13Z</time>
      </trkpt>
      <trkpt lat="48.86375" lon="2.08735">
        <ele>169</ele>
        <time>2024-03-31T12:18:17Z</time>
      </trkpt>
      <trkpt lat="48.86365" lon="2.08731">
        <ele>168</ele>
        <time>2024-03-31T12:18:26Z</time>
      </trkpt>
      <trkpt lat="48.86358" lon="2.0873">
        <ele>168</ele>
        <time>2024-03-31T12:18:33Z</time>
      </trkpt>
      <trkpt lat="48.86341" lon="2.08733">
        <ele>169</ele>
        <time>2024-03-31T12:18:46Z</time>
      </trkpt>
      <trkpt lat="48.86325" lon="2.08734">
        <ele>169</ele>
        <time>2024-03-31T12:18:59Z</time>
      </trkpt>
      <trkpt lat="48.86316" lon="2.08734">
        <ele>170</ele>
        <time>2024-03-31T12:19:10Z</time>
      </trkpt>
      <trkpt lat="48.86311" lon="2.08735">
        <ele>170</ele>
        <time>2024-03-31T12:19:17Z</time>
      </trkpt>
      <trkpt lat="48.86306" lon="2.0873">
        <ele>170</ele>
        <time>2024-03-31T12:19:21Z</time>
      </trkpt>
      <trkpt lat="48.8628" lon="2.08732">
        <ele>170</ele>
        <time>2024-03-31T12:19:46Z</time>
      </trkpt>
      <trkpt lat="48.86264" lon="2.08733">
        <ele>171</ele>
        <time>2024-03-31T12:20:09Z</time>
      </trkpt>
      <trkpt lat="48.86259" lon="2.08737">
        <ele>171</ele>
        <time>2024-03-31T12:20:16Z</time>
      </trkpt>
      <trkpt lat="48.86259" lon="2.08745">
        <ele>171</ele>
        <time>2024-03-31T12:20:22Z</time>
      </trkpt>
      <trkpt lat="48.86263" lon="2.08767">
        <ele>172</ele>
        <time>2024-03-31T12:20:39Z</time>
      </trkpt>
      <trkpt lat="48.86268" lon="2.08776">
        <ele>172</ele>
        <time>2024-03-31T12:20:47Z</time>
      </trkpt>
      <trkpt lat="48.86272" lon="2.08782">
        <ele>171</ele>
        <time>2024-03-31T12:21:43Z</time>
      </trkpt>
      <trkpt lat="48.86272" lon="2.08792">
        <ele>171</ele>
        <time>2024-03-31T12:21:50Z</time>
      </trkpt>
      <trkpt lat="48.86275" lon="2.088">
        <ele>172</ele>
        <time>2024-03-31T12:21:55Z</time>
      </trkpt>
      <trkpt lat="48.86275" lon="2.08807">
        <ele>172</ele>
        <time>2024-03-31T12:21:59Z</time>
      </trkpt>
      <trkpt lat="48.86278" lon="2.08813">
        <ele>171</ele>
        <time>2024-03-31T12:22:02Z</time>
      </trkpt>
      <trkpt lat="48.86281" lon="2.08818">
        <ele>171</ele>
        <time>2024-03-31T12:22:05Z</time>
      </trkpt>
      <trkpt lat="48.86283" lon="2.08826">
        <ele>171</ele>
        <time>2024-03-31T12:22:09Z</time>
      </trkpt>
      <trkpt lat="48.86286" lon="2.08831">
        <ele>171</ele>
        <time>2024-03-31T12:22:12Z</time>
      </trkpt>
      <trkpt lat="48.86288" lon="2.08838">
        <ele>171</ele>
        <time>2024-03-31T12:22:16Z</time>
      </trkpt>
      <trkpt lat="48.86289" lon="2.08844">
        <ele>171</ele>
        <time>2024-03-31T12:22:20Z</time>
      </trkpt>
      <trkpt lat="48.86292" lon="2.0885">
        <ele>171</ele>
        <time>2024-03-31T12:22:23Z</time>
      </trkpt>
      <trkpt lat="48.86294" lon="2.08857">
        <ele>171</ele>
        <time>2024-03-31T12:22:27Z</time>
      </trkpt>
      <trkpt lat="48.86297" lon="2.08866">
        <ele>171</ele>
        <time>2024-03-31T12:22:31Z</time>
      </trkpt>
      <trkpt lat="48.863" lon="2.08871">
        <ele>171</ele>
        <time>2024-03-31T12:22:34Z</time>
      </trkpt>
      <trkpt lat="48.863" lon="2.08881">
        <ele>170</ele>
        <time>2024-03-31T12:22:38Z</time>
      </trkpt>
      <trkpt lat="48.86302" lon="2.08887">
        <ele>170</ele>
        <time>2024-03-31T12:22:41Z</time>
      </trkpt>
      <trkpt lat="48.86302" lon="2.08894">
        <ele>171</ele>
        <time>2024-03-31T12:22:44Z</time>
      </trkpt>
      <trkpt lat="48.863" lon="2.08901">
        <ele>171</ele>
        <time>2024-03-31T12:22:47Z</time>
      </trkpt>
      <trkpt lat="48.86298" lon="2.08915">
        <ele>170</ele>
        <time>2024-03-31T12:22:55Z</time>
      </trkpt>
      <trkpt lat="48.86284" lon="2.08947">
        <ele>171</ele>
        <time>2024-03-31T12:23:13Z</time>
      </trkpt>
      <trkpt lat="48.86277" lon="2.08974">
        <ele>171</ele>
        <time>2024-03-31T12:23:27Z</time>
      </trkpt>
      <trkpt lat="48.86276" lon="2.08981">
        <ele>170</ele>
        <time>2024-03-31T12:23:31Z</time>
      </trkpt>
      <trkpt lat="48.86274" lon="2.0899">
        <ele>170</ele>
        <time>2024-03-31T12:23:35Z</time>
      </trkpt>
      <trkpt lat="48.86269" lon="2.0902">
        <ele>171</ele>
        <time>2024-03-31T12:23:52Z</time>
      </trkpt>
      <trkpt lat="48.86267" lon="2.09028">
        <ele>171</ele>
        <time>2024-03-31T12:23:56Z</time>
      </trkpt>
      <trkpt lat="48.86265" lon="2.09036">
        <ele>171</ele>
        <time>2024-03-31T12:24:01Z</time>
      </trkpt>
      <trkpt lat="48.86263" lon="2.09044">
        <ele>171</ele>
        <time>2024-03-31T12:24:05Z</time>
      </trkpt>
      <trkpt lat="48.86262" lon="2.09052">
        <ele>171</ele>
        <time>2024-03-31T12:24:09Z</time>
      </trkpt>
      <trkpt lat="48.86257" lon="2.09067">
        <ele>171</ele>
        <time>2024-03-31T12:24:17Z</time>
      </trkpt>
      <trkpt lat="48.86252" lon="2.09089">
        <ele>170</ele>
        <time>2024-03-31T12:24:29Z</time>
      </trkpt>
      <trkpt lat="48.86251" lon="2.09097">
        <ele>171</ele>
        <time>2024-03-31T12:24:33Z</time>
      </trkpt>
      <trkpt lat="48.86249" lon="2.09104">
        <ele>171</ele>
        <time>2024-03-31T12:24:37Z</time>
      </trkpt>
      <trkpt lat="48.86246" lon="2.09111">
        <ele>171</ele>
        <time>2024-03-31T12:24:41Z</time>
      </trkpt>
      <trkpt lat="48.86241" lon="2.09141">
        <ele>170</ele>
        <time>2024-03-31T12:24:56Z</time>
      </trkpt>
      <trkpt lat="48.86239" lon="2.09147">
        <ele>170</ele>
        <time>2024-03-31T12:24:59Z</time>
      </trkpt>
      <trkpt lat="48.86233" lon="2.09169">
        <ele>169</ele>
        <time>2024-03-31T12:25:12Z</time>
      </trkpt>
      <trkpt lat="48.86232" lon="2.09177">
        <ele>169</ele>
        <time>2024-03-31T12:25:16Z</time>
      </trkpt>
      <trkpt lat="48.86229" lon="2.09192">
        <ele>170</ele>
        <time>2024-03-31T12:25:24Z</time>
      </trkpt>
      <trkpt lat="48.86218" lon="2.09233">
        <ele>169</ele>
        <time>2024-03-31T12:25:48Z</time>
      </trkpt>
      <trkpt lat="48.86215" lon="2.09247">
        <ele>168</ele>
        <time>2024-03-31T12:25:56Z</time>
      </trkpt>
      <trkpt lat="48.86214" lon="2.09254">
        <ele>167</ele>
        <time>2024-03-31T12:26:01Z</time>
      </trkpt>
      <trkpt lat="48.8621" lon="2.09275">
        <ele>166</ele>
        <time>2024-03-31T12:26:13Z</time>
      </trkpt>
      <trkpt lat="48.86207" lon="2.0929">
        <ele>165</ele>
        <time>2024-03-31T12:26:21Z</time>
      </trkpt>
      <trkpt lat="48.86206" lon="2.09298">
        <ele>164</ele>
        <time>2024-03-31T12:26:26Z</time>
      </trkpt>
      <trkpt lat="48.86195" lon="2.09339">
        <ele>162</ele>
        <time>2024-03-31T12:26:52Z</time>
      </trkpt>
      <trkpt lat="48.86192" lon="2.09348">
        <ele>162</ele>
        <time>2024-03-31T12:26:57Z</time>
      </trkpt>
      <trkpt lat="48.86187" lon="2.0938">
        <ele>160</ele>
        <time>2024-03-31T12:27:16Z</time>
      </trkpt>
      <trkpt lat="48.86181" lon="2.09393">
        <ele>159</ele>
        <time>2024-03-31T12:27:24Z</time>
      </trkpt>
      <trkpt lat="48.8618" lon="2.09401">
        <ele>159</ele>
        <time>2024-03-31T12:27:28Z</time>
      </trkpt>
      <trkpt lat="48.86182" lon="2.09418">
        <ele>159</ele>
        <time>2024-03-31T12:27:34Z</time>
      </trkpt>
      <trkpt lat="48.86182" lon="2.09425">
        <ele>159</ele>
        <time>2024-03-31T12:27:37Z</time>
      </trkpt>
      <trkpt lat="48.86179" lon="2.09447">
        <ele>159</ele>
        <time>2024-03-31T12:27:46Z</time>
      </trkpt>
      <trkpt lat="48.86174" lon="2.09459">
        <ele>154</ele>
        <time>2024-03-31T12:28:24Z</time>
      </trkpt>
      <trkpt lat="48.86169" lon="2.0947">
        <ele>153</ele>
        <time>2024-03-31T12:28:33Z</time>
      </trkpt>
      <trkpt lat="48.86153" lon="2.09531">
        <ele>150</ele>
        <time>2024-03-31T12:29:06Z</time>
      </trkpt>
      <trkpt lat="48.8614" lon="2.09566">
        <ele>148</ele>
        <time>2024-03-31T12:29:28Z</time>
      </trkpt>
      <trkpt lat="48.86138" lon="2.09576">
        <ele>146</ele>
        <time>2024-03-31T12:29:38Z</time>
      </trkpt>
      <trkpt lat="48.86139" lon="2.09583">
        <ele>144</ele>
        <time>2024-03-31T12:29:43Z</time>
      </trkpt>
      <trkpt lat="48.86131" lon="2.09609">
        <ele>139</ele>
        <time>2024-03-31T12:30:08Z</time>
      </trkpt>
      <trkpt lat="48.86131" lon="2.09617">
        <ele>138</ele>
        <time>2024-03-31T12:30:13Z</time>
      </trkpt>
      <trkpt lat="48.86132" lon="2.09625">
        <ele>138</ele>
        <time>2024-03-31T12:30:18Z</time>
      </trkpt>
      <trkpt lat="48.86137" lon="2.09632">
        <ele>138</ele>
        <time>2024-03-31T12:30:25Z</time>
      </trkpt>
      <trkpt lat="48.86141" lon="2.09641">
        <ele>137</ele>
        <time>2024-03-31T12:30:32Z</time>
      </trkpt>
      <trkpt lat="48.86141" lon="2.09651">
        <ele>136</ele>
        <time>2024-03-31T12:30:39Z</time>
      </trkpt>
      <trkpt lat="48.86146" lon="2.09655">
        <ele>135</ele>
        <time>2024-03-31T12:30:46Z</time>
      </trkpt>
      <trkpt lat="48.86141" lon="2.0966">
        <ele>134</ele>
        <time>2024-03-31T12:30:58Z</time>
      </trkpt>
      <trkpt lat="48.86142" lon="2.09666">
        <ele>134</ele>
        <time>2024-03-31T12:31:10Z</time>
      </trkpt>
      <trkpt lat="48.86147" lon="2.09664">
        <ele>134</ele>
        <time>2024-03-31T12:31:16Z</time>
      </trkpt>
      <trkpt lat="48.86149" lon="2.09672">
        <ele>133</ele>
        <time>2024-03-31T12:31:21Z</time>
      </trkpt>
      <trkpt lat="48.86145" lon="2.09676">
        <ele>133</ele>
        <time>2024-03-31T12:31:25Z</time>
      </trkpt>
      <trkpt lat="48.86141" lon="2.09679">
        <ele>133</ele>
        <time>2024-03-31T12:31:29Z</time>
      </trkpt>
      <trkpt lat="48.86135" lon="2.09683">
        <ele>133</ele>
        <time>2024-03-31T12:31:34Z</time>
      </trkpt>
      <trkpt lat="48.86126" lon="2.09689">
        <ele>133</ele>
        <time>2024-03-31T12:31:41Z</time>
      </trkpt>
      <trkpt lat="48.86114" lon="2.09712">
        <ele>133</ele>
        <time>2024-03-31T12:31:55Z</time>
      </trkpt>
      <trkpt lat="48.86112" lon="2.0972">
        <ele>133</ele>
        <time>2024-03-31T12:32:10Z</time>
      </trkpt>
      <trkpt lat="48.86107" lon="2.0973">
        <ele>133</ele>
        <time>2024-03-31T12:32:38Z</time>
      </trkpt>
      <trkpt lat="48.86109" lon="2.09729">
        <ele>132</ele>
        <time>2024-03-31T12:33:14Z</time>
      </trkpt>
      <trkpt lat="48.86108" lon="2.09737">
        <ele>132</ele>
        <time>2024-03-31T12:33:44Z</time>
      </trkpt>
      <trkpt lat="48.86103" lon="2.0977">
        <ele>131</ele>
        <time>2024-03-31T12:34:18Z</time>
      </trkpt>
      <trkpt lat="48.86099" lon="2.09774">
        <ele>131</ele>
        <time>2024-03-31T12:35:23Z</time>
      </trkpt>
      <trkpt lat="48.86098" lon="2.09767">
        <ele>130</ele>
        <time>2024-03-31T12:35:41Z</time>
      </trkpt>
      <trkpt lat="48.86096" lon="2.09773">
        <ele>130</ele>
        <time>2024-03-31T12:37:04Z</time>
      </trkpt>
      <trkpt lat="48.86091" lon="2.09792">
        <ele>130</ele>
        <time>2024-03-31T12:37:16Z</time>
      </trkpt>
      <trkpt lat="48.86087" lon="2.0981">
        <ele>131</ele>
        <time>2024-03-31T12:37:28Z</time>
      </trkpt>
      <trkpt lat="48.86086" lon="2.09816">
        <ele>131</ele>
        <time>2024-03-31T12:37:33Z</time>
      </trkpt>
      <trkpt lat="48.8608" lon="2.09833">
        <ele>132</ele>
        <time>2024-03-31T12:38:04Z</time>
      </trkpt>
      <trkpt lat="48.86079" lon="2.09844">
        <ele>132</ele>
        <time>2024-03-31T12:38:15Z</time>
      </trkpt>
      <trkpt lat="48.86073" lon="2.09858">
        <ele>132</ele>
        <time>2024-03-31T12:38:26Z</time>
      </trkpt>
      <trkpt lat="48.86071" lon="2.09867">
        <ele>132</ele>
        <time>2024-03-31T12:38:34Z</time>
      </trkpt>
      <trkpt lat="48.86068" lon="2.09887">
        <ele>132</ele>
        <time>2024-03-31T12:38:51Z</time>
      </trkpt>
      <trkpt lat="48.86068" lon="2.09901">
        <ele>131</ele>
        <time>2024-03-31T12:39:08Z</time>
      </trkpt>
      <trkpt lat="48.86069" lon="2.09916">
        <ele>131</ele>
        <time>2024-03-31T12:39:23Z</time>
      </trkpt>
      <trkpt lat="48.86069" lon="2.09926">
        <ele>131</ele>
        <time>2024-03-31T12:39:43Z</time>
      </trkpt>
      <trkpt lat="48.86063" lon="2.09947">
        <ele>132</ele>
        <time>2024-03-31T12:40:04Z</time>
      </trkpt>
      <trkpt lat="48.86061" lon="2.09957">
        <ele>132</ele>
        <time>2024-03-31T12:40:11Z</time>
      </trkpt>
      <trkpt lat="48.86061" lon="2.09972">
        <ele>132</ele>
        <time>2024-03-31T12:40:19Z</time>
      </trkpt>
      <trkpt lat="48.86057" lon="2.09983">
        <ele>133</ele>
        <time>2024-03-31T12:40:28Z</time>
      </trkpt>
      <trkpt lat="48.86044" lon="2.10015">
        <ele>134</ele>
        <time>2024-03-31T12:40:51Z</time>
      </trkpt>
      <trkpt lat="48.86042" lon="2.10032">
        <ele>134</ele>
        <time>2024-03-31T12:41:01Z</time>
      </trkpt>
      <trkpt lat="48.86038" lon="2.10047">
        <ele>135</ele>
        <time>2024-03-31T12:41:09Z</time>
      </trkpt>
      <trkpt lat="48.86036" lon="2.10053">
        <ele>135</ele>
        <time>2024-03-31T12:41:13Z</time>
      </trkpt>
      <trkpt lat="48.86034" lon="2.10061">
        <ele>135</ele>
        <time>2024-03-31T12:41:18Z</time>
      </trkpt>
      <trkpt lat="48.8603" lon="2.10078">
        <ele>137</ele>
        <time>2024-03-31T12:41:32Z</time>
      </trkpt>
      <trkpt lat="48.86013" lon="2.10121">
        <ele>140</ele>
        <time>2024-03-31T12:42:04Z</time>
      </trkpt>
      <trkpt lat="48.86009" lon="2.10139">
        <ele>142</ele>
        <time>2024-03-31T12:42:15Z</time>
      </trkpt>
      <trkpt lat="48.86008" lon="2.10147">
        <ele>142</ele>
        <time>2024-03-31T12:42:20Z</time>
      </trkpt>
      <trkpt lat="48.86002" lon="2.10161">
        <ele>144</ele>
        <time>2024-03-31T12:42:32Z</time>
      </trkpt>
      <trkpt lat="48.86" lon="2.10187">
        <ele>146</ele>
        <time>2024-03-31T12:42:46Z</time>
      </trkpt>
      <trkpt lat="48.85997" lon="2.10194">
        <ele>147</ele>
        <time>2024-03-31T12:42:52Z</time>
      </trkpt>
      <trkpt lat="48.85996" lon="2.10202">
        <ele>147</ele>
        <time>2024-03-31T12:42:57Z</time>
      </trkpt>
      <trkpt lat="48.85986" lon="2.10255">
        <ele>152</ele>
        <time>2024-03-31T12:43:31Z</time>
      </trkpt>
      <trkpt lat="48.85983" lon="2.1027">
        <ele>153</ele>
        <time>2024-03-31T12:43:41Z</time>
      </trkpt>
      <trkpt lat="48.8598" lon="2.10277">
        <ele>153</ele>
        <time>2024-03-31T12:43:45Z</time>
      </trkpt>
      <trkpt lat="48.85979" lon="2.10285">
        <ele>154</ele>
        <time>2024-03-31T12:43:50Z</time>
      </trkpt>
      <trkpt lat="48.85968" lon="2.10326">
        <ele>158</ele>
        <time>2024-03-31T12:44:21Z</time>
      </trkpt>
      <trkpt lat="48.85957" lon="2.10376">
        <ele>162</ele>
        <time>2024-03-31T12:44:56Z</time>
      </trkpt>
      <trkpt lat="48.85953" lon="2.10392">
        <ele>163</ele>
        <time>2024-03-31T12:45:06Z</time>
      </trkpt>
      <trkpt lat="48.85953" lon="2.10399">
        <ele>164</ele>
        <time>2024-03-31T12:45:11Z</time>
      </trkpt>
      <trkpt lat="48.85951" lon="2.10408">
        <ele>164</ele>
        <time>2024-03-31T12:45:17Z</time>
      </trkpt>
      <trkpt lat="48.85948" lon="2.10415">
        <ele>164</ele>
        <time>2024-03-31T12:45:20Z</time>
      </trkpt>
      <trkpt lat="48.85946" lon="2.10432">
        <ele>165</ele>
        <time>2024-03-31T12:45:31Z</time>
      </trkpt>
      <trkpt lat="48.85944" lon="2.10438">
        <ele>165</ele>
        <time>2024-03-31T12:45:35Z</time>
      </trkpt>
      <trkpt lat="48.8593" lon="2.10489">
        <ele>168</ele>
        <time>2024-03-31T12:46:07Z</time>
      </trkpt>
      <trkpt lat="48.85918" lon="2.1054">
        <ele>169</ele>
        <time>2024-03-31T12:46:41Z</time>
      </trkpt>
      <trkpt lat="48.85911" lon="2.10582">
        <ele>170</ele>
        <time>2024-03-31T12:47:13Z</time>
      </trkpt>
      <trkpt lat="48.85905" lon="2.10615">
        <ele>170</ele>
        <time>2024-03-31T12:47:36Z</time>
      </trkpt>
      <trkpt lat="48.85909" lon="2.10615">
        <ele>169</ele>
        <time>2024-03-31T12:50:07Z</time>
      </trkpt>
      <trkpt lat="48.859" lon="2.10619">
        <ele>169</ele>
        <time>2024-03-31T12:50:48Z</time>
      </trkpt>
      <trkpt lat="48.85895" lon="2.10617">
        <ele>168</ele>
        <time>2024-03-31T12:50:51Z</time>
      </trkpt>
      <trkpt lat="48.85891" lon="2.10619">
        <ele>168</ele>
        <time>2024-03-31T12:50:56Z</time>
      </trkpt>
      <trkpt lat="48.85882" lon="2.10624">
        <ele>169</ele>
        <time>2024-03-31T12:51:04Z</time>
      </trkpt>
      <trkpt lat="48.85877" lon="2.10631">
        <ele>169</ele>
        <time>2024-03-31T12:51:11Z</time>
      </trkpt>
      <trkpt lat="48.85874" lon="2.10638">
        <ele>169</ele>
        <time>2024-03-31T12:51:16Z</time>
      </trkpt>
      <trkpt lat="48.85873" lon="2.10646">
        <ele>169</ele>
        <time>2024-03-31T12:51:21Z</time>
      </trkpt>
      <trkpt lat="48.85874" lon="2.10661">
        <ele>169</ele>
        <time>2024-03-31T12:51:31Z</time>
      </trkpt>
      <trkpt lat="48.85876" lon="2.10668">
        <ele>169</ele>
        <time>2024-03-31T12:51:35Z</time>
      </trkpt>
      <trkpt lat="48.85883" lon="2.10674">
        <ele>169</ele>
        <time>2024-03-31T12:51:45Z</time>
      </trkpt>
      <trkpt lat="48.8589" lon="2.10663">
        <ele>169</ele>
        <time>2024-03-31T12:51:55Z</time>
      </trkpt>
      <trkpt lat="48.85894" lon="2.10666">
        <ele>169</ele>
        <time>2024-03-31T12:52:04Z</time>
      </trkpt>
      <trkpt lat="48.85897" lon="2.10678">
        <ele>168</ele>
        <time>2024-03-31T12:52:07Z</time>
      </trkpt>
      <trkpt lat="48.85891" lon="2.10718">
        <ele>168</ele>
        <time>2024-03-31T12:52:26Z</time>
      </trkpt>
      <trkpt lat="48.85893" lon="2.10731">
        <ele>167</ele>
        <time>2024-03-31T12:52:36Z</time>
      </trkpt>
      <trkpt lat="48.85896" lon="2.10739">
        <ele>167</ele>
        <time>2024-03-31T12:52:41Z</time>
      </trkpt>
      <trkpt lat="48.85905" lon="2.10753">
        <ele>166</ele>
        <time>2024-03-31T12:52:56Z</time>
      </trkpt>
      <trkpt lat="48.85908" lon="2.10761">
        <ele>166</ele>
        <time>2024-03-31T12:53:01Z</time>
      </trkpt>
      <trkpt lat="48.85909" lon="2.1077">
        <ele>165</ele>
        <time>2024-03-31T12:53:06Z</time>
      </trkpt>
      <trkpt lat="48.85913" lon="2.10778">
        <ele>165</ele>
        <time>2024-03-31T12:53:11Z</time>
      </trkpt>
      <trkpt lat="48.85914" lon="2.10787">
        <ele>165</ele>
        <time>2024-03-31T12:53:17Z</time>
      </trkpt>
      <trkpt lat="48.85914" lon="2.10797">
        <ele>165</ele>
        <time>2024-03-31T12:53:21Z</time>
      </trkpt>
      <trkpt lat="48.85911" lon="2.10805">
        <ele>164</ele>
        <time>2024-03-31T12:53:26Z</time>
      </trkpt>
      <trkpt lat="48.85907" lon="2.10811">
        <ele>164</ele>
        <time>2024-03-31T12:53:29Z</time>
      </trkpt>
      <trkpt lat="48.85902" lon="2.10827">
        <ele>164</ele>
        <time>2024-03-31T12:53:39Z</time>
      </trkpt>
      <trkpt lat="48.85897" lon="2.10833">
        <ele>164</ele>
        <time>2024-03-31T12:53:45Z</time>
      </trkpt>
      <trkpt lat="48.85894" lon="2.10842">
        <ele>164</ele>
        <time>2024-03-31T12:53:51Z</time>
      </trkpt>
      <trkpt lat="48.8589" lon="2.1085">
        <ele>164</ele>
        <time>2024-03-31T12:54:00Z</time>
      </trkpt>
      <trkpt lat="48.85887" lon="2.10875">
        <ele>163</ele>
        <time>2024-03-31T12:54:14Z</time>
      </trkpt>
      <trkpt lat="48.85886" lon="2.10903">
        <ele>162</ele>
        <time>2024-03-31T12:54:32Z</time>
      </trkpt>
      <trkpt lat="48.85885" lon="2.10912">
        <ele>161</ele>
        <time>2024-03-31T12:54:37Z</time>
      </trkpt>
      <trkpt lat="48.85883" lon="2.1092">
        <ele>161</ele>
        <time>2024-03-31T12:54:41Z</time>
      </trkpt>
      <trkpt lat="48.85857" lon="2.10962">
        <ele>158</ele>
        <time>2024-03-31T12:55:12Z</time>
      </trkpt>
      <trkpt lat="48.85837" lon="2.10994">
        <ele>156</ele>
        <time>2024-03-31T12:55:37Z</time>
      </trkpt>
      <trkpt lat="48.85829" lon="2.11003">
        <ele>155</ele>
        <time>2024-03-31T12:55:47Z</time>
      </trkpt>
      <trkpt lat="48.85826" lon="2.11011">
        <ele>155</ele>
        <time>2024-03-31T12:55:52Z</time>
      </trkpt>
      <trkpt lat="48.85825" lon="2.11018">
        <ele>154</ele>
        <time>2024-03-31T12:55:57Z</time>
      </trkpt>
      <trkpt lat="48.85821" lon="2.11033">
        <ele>154</ele>
        <time>2024-03-31T12:56:07Z</time>
      </trkpt>
      <trkpt lat="48.85812" lon="2.11075">
        <ele>155</ele>
        <time>2024-03-31T12:56:36Z</time>
      </trkpt>
      <trkpt lat="48.85806" lon="2.11089">
        <ele>154</ele>
        <time>2024-03-31T12:56:46Z</time>
      </trkpt>
      <trkpt lat="48.85803" lon="2.11094">
        <ele>154</ele>
        <time>2024-03-31T12:56:51Z</time>
      </trkpt>
      <trkpt lat="48.85797" lon="2.11098">
        <ele>154</ele>
        <time>2024-03-31T12:56:55Z</time>
      </trkpt>
      <trkpt lat="48.85784" lon="2.11114">
        <ele>155</ele>
        <time>2024-03-31T12:57:08Z</time>
      </trkpt>
      <trkpt lat="48.85782" lon="2.11119">
        <ele>155</ele>
        <time>2024-03-31T12:57:13Z</time>
      </trkpt>
      <trkpt lat="48.8578" lon="2.11127">
        <ele>154</ele>
        <time>2024-03-31T12:57:19Z</time>
      </trkpt>
      <trkpt lat="48.85781" lon="2.11144">
        <ele>152</ele>
        <time>2024-03-31T12:57:30Z</time>
      </trkpt>
      <trkpt lat="48.85784" lon="2.11154">
        <ele>150</ele>
        <time>2024-03-31T12:57:38Z</time>
      </trkpt>
      <trkpt lat="48.85785" lon="2.11177">
        <ele>148</ele>
        <time>2024-03-31T12:57:53Z</time>
      </trkpt>
      <trkpt lat="48.85784" lon="2.11189">
        <ele>146</ele>
        <time>2024-03-31T12:58:01Z</time>
      </trkpt>
      <trkpt lat="48.85785" lon="2.11209">
        <ele>145</ele>
        <time>2024-03-31T12:58:12Z</time>
      </trkpt>
      <trkpt lat="48.8579" lon="2.1122">
        <ele>144</ele>
        <time>2024-03-31T12:58:20Z</time>
      </trkpt>
      <trkpt lat="48.85793" lon="2.11245">
        <ele>142</ele>
        <time>2024-03-31T12:58:34Z</time>
      </trkpt>
      <trkpt lat="48.8579" lon="2.11279">
        <ele>142</ele>
        <time>2024-03-31T12:58:51Z</time>
      </trkpt>
      <trkpt lat="48.85785" lon="2.11328">
        <ele>141</ele>
        <time>2024-03-31T12:59:24Z</time>
      </trkpt>
      <trkpt lat="48.85786" lon="2.11348">
        <ele>140</ele>
        <time>2024-03-31T12:59:36Z</time>
      </trkpt>
      <trkpt lat="48.85786" lon="2.11357">
        <ele>140</ele>
        <time>2024-03-31T12:59:49Z</time>
      </trkpt>
      <trkpt lat="48.8579" lon="2.11373">
        <ele>139</ele>
        <time>2024-03-31T13:00:01Z</time>
      </trkpt>
      <trkpt lat="48.85792" lon="2.11384">
        <ele>139</ele>
        <time>2024-03-31T13:00:06Z</time>
      </trkpt>
      <trkpt lat="48.85791" lon="2.11394">
        <ele>138</ele>
        <time>2024-03-31T13:00:11Z</time>
      </trkpt>
      <trkpt lat="48.85787" lon="2.11422">
        <ele>137</ele>
        <time>2024-03-31T13:00:23Z</time>
      </trkpt>
      <trkpt lat="48.85788" lon="2.11455">
        <ele>138</ele>
        <time>2024-03-31T13:00:44Z</time>
      </trkpt>
      <trkpt lat="48.85785" lon="2.11468">
        <ele>139</ele>
        <time>2024-03-31T13:00:53Z</time>
      </trkpt>
      <trkpt lat="48.85778" lon="2.11487">
        <ele>141</ele>
        <time>2024-03-31T13:01:07Z</time>
      </trkpt>
      <trkpt lat="48.8577" lon="2.11499">
        <ele>142</ele>
        <time>2024-03-31T13:01:15Z</time>
      </trkpt>
      <trkpt lat="48.85766" lon="2.11506">
        <ele>142</ele>
        <time>2024-03-31T13:01:20Z</time>
      </trkpt>
      <trkpt lat="48.85765" lon="2.11513">
        <ele>142</ele>
        <time>2024-03-31T13:01:25Z</time>
      </trkpt>
      <trkpt lat="48.85759" lon="2.11536">
        <ele>139</ele>
        <time>2024-03-31T13:01:47Z</time>
      </trkpt>
      <trkpt lat="48.85759" lon="2.11545">
        <ele>137</ele>
        <time>2024-03-31T13:01:53Z</time>
      </trkpt>
      <trkpt lat="48.8576" lon="2.11553">
        <ele>136</ele>
        <time>2024-03-31T13:01:59Z</time>
      </trkpt>
      <trkpt lat="48.85761" lon="2.11564">
        <ele>135</ele>
        <time>2024-03-31T13:02:06Z</time>
      </trkpt>
      <trkpt lat="48.85759" lon="2.1157">
        <ele>135</ele>
        <time>2024-03-31T13:02:10Z</time>
      </trkpt>
      <trkpt lat="48.85753" lon="2.11584">
        <ele>134</ele>
        <time>2024-03-31T13:02:19Z</time>
      </trkpt>
      <trkpt lat="48.85753" lon="2.11599">
        <ele>133</ele>
        <time>2024-03-31T13:02:27Z</time>
      </trkpt>
      <trkpt lat="48.8575" lon="2.11606">
        <ele>133</ele>
        <time>2024-03-31T13:02:31Z</time>
      </trkpt>
      <trkpt lat="48.85748" lon="2.11634">
        <ele>133</ele>
        <time>2024-03-31T13:02:51Z</time>
      </trkpt>
      <trkpt lat="48.85746" lon="2.1164">
        <ele>133</ele>
        <time>2024-03-31T13:02:54Z</time>
      </trkpt>
      <trkpt lat="48.85742" lon="2.11646">
        <ele>133</ele>
        <time>2024-03-31T13:02:58Z</time>
      </trkpt>
      <trkpt lat="48.85737" lon="2.1166">
        <ele>133</ele>
        <time>2024-03-31T13:03:08Z</time>
      </trkpt>
      <trkpt lat="48.85735" lon="2.11669">
        <ele>133</ele>
        <time>2024-03-31T13:03:16Z</time>
      </trkpt>
      <trkpt lat="48.85736" lon="2.1168">
        <ele>134</ele>
        <time>2024-03-31T13:03:26Z</time>
      </trkpt>
      <trkpt lat="48.85723" lon="2.11712">
        <ele>140</ele>
        <time>2024-03-31T13:03:56Z</time>
      </trkpt>
      <trkpt lat="48.85721" lon="2.1172">
        <ele>141</ele>
        <time>2024-03-31T13:04:04Z</time>
      </trkpt>
      <trkpt lat="48.85717" lon="2.11725">
        <ele>142</ele>
        <time>2024-03-31T13:04:09Z</time>
      </trkpt>
      <trkpt lat="48.85712" lon="2.11728">
        <ele>142</ele>
        <time>2024-03-31T13:04:14Z</time>
      </trkpt>
      <trkpt lat="48.85701" lon="2.1175">
        <ele>144</ele>
        <time>2024-03-31T13:04:30Z</time>
      </trkpt>
      <trkpt lat="48.85698" lon="2.11757">
        <ele>144</ele>
        <time>2024-03-31T13:04:35Z</time>
      </trkpt>
      <trkpt lat="48.85695" lon="2.11765">
        <ele>143</ele>
        <time>2024-03-31T13:04:43Z</time>
      </trkpt>
      <trkpt lat="48.85682" lon="2.11788">
        <ele>139</ele>
        <time>2024-03-31T13:05:15Z</time>
      </trkpt>
      <trkpt lat="48.85684" lon="2.11803">
        <ele>138</ele>
        <time>2024-03-31T13:05:29Z</time>
      </trkpt>
      <trkpt lat="48.85682" lon="2.11811">
        <ele>138</ele>
        <time>2024-03-31T13:05:35Z</time>
      </trkpt>
      <trkpt lat="48.8568" lon="2.11821">
        <ele>138</ele>
        <time>2024-03-31T13:05:47Z</time>
      </trkpt>
      <trkpt lat="48.8569" lon="2.11823">
        <ele>138</ele>
        <time>2024-03-31T13:06:13Z</time>
      </trkpt>
      <trkpt lat="48.85684" lon="2.1183">
        <ele>138</ele>
        <time>2024-03-31T13:06:46Z</time>
      </trkpt>
      <trkpt lat="48.85679" lon="2.11832">
        <ele>138</ele>
        <time>2024-03-31T13:07:33Z</time>
      </trkpt>
      <trkpt lat="48.85673" lon="2.11832">
        <ele>138</ele>
        <time>2024-03-31T13:07:50Z</time>
      </trkpt>
      <trkpt lat="48.85669" lon="2.11838">
        <ele>139</ele>
        <time>2024-03-31T13:08:32Z</time>
      </trkpt>
      <trkpt lat="48.85676" lon="2.11856">
        <ele>140</ele>
        <time>2024-03-31T13:09:24Z</time>
      </trkpt>
      <trkpt lat="48.85679" lon="2.11865">
        <ele>140</ele>
        <time>2024-03-31T13:09:29Z</time>
      </trkpt>
      <trkpt lat="48.85682" lon="2.11873">
        <ele>141</ele>
        <time>2024-03-31T13:09:36Z</time>
      </trkpt>
      <trkpt lat="48.85687" lon="2.11884">
        <ele>144</ele>
        <time>2024-03-31T13:09:48Z</time>
      </trkpt>
      <trkpt lat="48.85689" lon="2.11895">
        <ele>146</ele>
        <time>2024-03-31T13:10:02Z</time>
      </trkpt>
      <trkpt lat="48.85689" lon="2.11925">
        <ele>149</ele>
        <time>2024-03-31T13:10:21Z</time>
      </trkpt>
      <trkpt lat="48.85692" lon="2.11946">
        <ele>151</ele>
        <time>2024-03-31T13:10:37Z</time>
      </trkpt>
      <trkpt lat="48.85689" lon="2.11955">
        <ele>152</ele>
        <time>2024-03-31T13:10:43Z</time>
      </trkpt>
      <trkpt lat="48.85693" lon="2.11962">
        <ele>153</ele>
        <time>2024-03-31T13:10:50Z</time>
      </trkpt>
      <trkpt lat="48.85693" lon="2.11972">
        <ele>154</ele>
        <time>2024-03-31T13:11:02Z</time>
      </trkpt>
      <trkpt lat="48.85688" lon="2.11978">
        <ele>155</ele>
        <time>2024-03-31T13:11:07Z</time>
      </trkpt>
      <trkpt lat="48.85685" lon="2.11986">
        <ele>155</ele>
        <time>2024-03-31T13:11:11Z</time>
      </trkpt>
      <trkpt lat="48.85675" lon="2.11991">
        <ele>156</ele>
        <time>2024-03-31T13:11:23Z</time>
      </trkpt>
      <trkpt lat="48.85676" lon="2.11983">
        <ele>157</ele>
        <time>2024-03-31T13:11:45Z</time>
      </trkpt>
      <trkpt lat="48.85685" lon="2.11989">
        <ele>156</ele>
        <time>2024-03-31T13:11:58Z</time>
      </trkpt>
      <trkpt lat="48.85686" lon="2.12">
        <ele>156</ele>
        <time>2024-03-31T13:12:04Z</time>
      </trkpt>
      <trkpt lat="48.85683" lon="2.12008">
        <ele>157</ele>
        <time>2024-03-31T13:12:10Z</time>
      </trkpt>
      <trkpt lat="48.85682" lon="2.12019">
        <ele>156</ele>
        <time>2024-03-31T13:12:17Z</time>
      </trkpt>
      <trkpt lat="48.85681" lon="2.12029">
        <ele>156</ele>
        <time>2024-03-31T13:12:21Z</time>
      </trkpt>
      <trkpt lat="48.85682" lon="2.12038">
        <ele>157</ele>
        <time>2024-03-31T13:12:25Z</time>
      </trkpt>
      <trkpt lat="48.85677" lon="2.12053">
        <ele>157</ele>
        <time>2024-03-31T13:12:32Z</time>
      </trkpt>
      <trkpt lat="48.85675" lon="2.1207">
        <ele>157</ele>
        <time>2024-03-31T13:12:41Z</time>
      </trkpt>
      <trkpt lat="48.85675" lon="2.12078">
        <ele>157</ele>
        <time>2024-03-31T13:12:48Z</time>
      </trkpt>
      <trkpt lat="48.85666" lon="2.12112">
        <ele>157</ele>
        <time>2024-03-31T13:13:08Z</time>
      </trkpt>
      <trkpt lat="48.85645" lon="2.12161">
        <ele>157</ele>
        <time>2024-03-31T13:13:42Z</time>
      </trkpt>
      <trkpt lat="48.85642" lon="2.12167">
        <ele>157</ele>
        <time>2024-03-31T13:13:46Z</time>
      </trkpt>
      <trkpt lat="48.85639" lon="2.12173">
        <ele>157</ele>
        <time>2024-03-31T13:13:51Z</time>
      </trkpt>
      <trkpt lat="48.85637" lon="2.1218">
        <ele>156</ele>
        <time>2024-03-31T13:13:55Z</time>
      </trkpt>
      <trkpt lat="48.85634" lon="2.12186">
        <ele>156</ele>
        <time>2024-03-31T13:14:00Z</time>
      </trkpt>
      <trkpt lat="48.85625" lon="2.12195">
        <ele>156</ele>
        <time>2024-03-31T13:14:10Z</time>
      </trkpt>
      <trkpt lat="48.8562" lon="2.12199">
        <ele>156</ele>
        <time>2024-03-31T13:14:14Z</time>
      </trkpt>
      <trkpt lat="48.85616" lon="2.12205">
        <ele>156</ele>
        <time>2024-03-31T13:14:18Z</time>
      </trkpt>
      <trkpt lat="48.85599" lon="2.12231">
        <ele>153</ele>
        <time>2024-03-31T13:14:42Z</time>
      </trkpt>
      <trkpt lat="48.85594" lon="2.12237">
        <ele>151</ele>
        <time>2024-03-31T13:14:53Z</time>
      </trkpt>
      <trkpt lat="48.85577" lon="2.12254">
        <ele>149</ele>
        <time>2024-03-31T13:15:13Z</time>
      </trkpt>
      <trkpt lat="48.8557" lon="2.12271">
        <ele>148</ele>
        <time>2024-03-31T13:15:34Z</time>
      </trkpt>
      <trkpt lat="48.85567" lon="2.12277">
        <ele>148</ele>
        <time>2024-03-31T13:15:40Z</time>
      </trkpt>
      <trkpt lat="48.8556" lon="2.12285">
        <ele>147</ele>
        <time>2024-03-31T13:15:49Z</time>
      </trkpt>
      <trkpt lat="48.85549" lon="2.1229">
        <ele>146</ele>
        <time>2024-03-31T13:16:00Z</time>
      </trkpt>
      <trkpt lat="48.85545" lon="2.12295">
        <ele>146</ele>
        <time>2024-03-31T13:16:07Z</time>
      </trkpt>
      <trkpt lat="48.85537" lon="2.123">
        <ele>147</ele>
        <time>2024-03-31T13:16:20Z</time>
      </trkpt>
      <trkpt lat="48.85524" lon="2.12313">
        <ele>146</ele>
        <time>2024-03-31T13:16:41Z</time>
      </trkpt>
      <trkpt lat="48.85515" lon="2.12321">
        <ele>147</ele>
        <time>2024-03-31T13:16:52Z</time>
      </trkpt>
      <trkpt lat="48.85511" lon="2.12326">
        <ele>147</ele>
        <time>2024-03-31T13:16:57Z</time>
      </trkpt>
      <trkpt lat="48.85508" lon="2.12333">
        <ele>147</ele>
        <time>2024-03-31T13:17:02Z</time>
      </trkpt>
      <trkpt lat="48.85503" lon="2.12336">
        <ele>147</ele>
        <time>2024-03-31T13:17:06Z</time>
      </trkpt>
      <trkpt lat="48.85499" lon="2.12333">
        <ele>147</ele>
        <time>2024-03-31T13:17:20Z</time>
      </trkpt>
      <trkpt lat="48.85493" lon="2.12338">
        <ele>147</ele>
        <time>2024-03-31T13:18:01Z</time>
      </trkpt>
      <trkpt lat="48.85488" lon="2.12344">
        <ele>146</ele>
        <time>2024-03-31T13:18:07Z</time>
      </trkpt>
      <trkpt lat="48.85485" lon="2.12353">
        <ele>145</ele>
        <time>2024-03-31T13:18:19Z</time>
      </trkpt>
      <trkpt lat="48.8547" lon="2.12374">
        <ele>137</ele>
        <time>2024-03-31T13:19:02Z</time>
      </trkpt>
      <trkpt lat="48.85462" lon="2.12382">
        <ele>135</ele>
        <time>2024-03-31T13:19:13Z</time>
      </trkpt>
      <trkpt lat="48.8545" lon="2.12395">
        <ele>134</ele>
        <time>2024-03-31T13:19:23Z</time>
      </trkpt>
      <trkpt lat="48.85446" lon="2.12401">
        <ele>134</ele>
        <time>2024-03-31T13:19:30Z</time>
      </trkpt>
      <trkpt lat="48.85438" lon="2.12411">
        <ele>134</ele>
        <time>2024-03-31T13:19:42Z</time>
      </trkpt>
      <trkpt lat="48.85429" lon="2.12417">
        <ele>134</ele>
        <time>2024-03-31T13:19:55Z</time>
      </trkpt>
      <trkpt lat="48.85423" lon="2.12425">
        <ele>136</ele>
        <time>2024-03-31T13:20:08Z</time>
      </trkpt>
      <trkpt lat="48.85419" lon="2.12439">
        <ele>138</ele>
        <time>2024-03-31T13:20:21Z</time>
      </trkpt>
      <trkpt lat="48.85414" lon="2.12447">
        <ele>139</ele>
        <time>2024-03-31T13:20:26Z</time>
      </trkpt>
      <trkpt lat="48.8541" lon="2.12451">
        <ele>139</ele>
        <time>2024-03-31T13:20:31Z</time>
      </trkpt>
      <trkpt lat="48.85395" lon="2.12463">
        <ele>136</ele>
        <time>2024-03-31T13:20:50Z</time>
      </trkpt>
      <trkpt lat="48.85385" lon="2.12475">
        <ele>133</ele>
        <time>2024-03-31T13:21:03Z</time>
      </trkpt>
      <trkpt lat="48.85366" lon="2.12504">
        <ele>132</ele>
        <time>2024-03-31T13:21:21Z</time>
      </trkpt>
      <trkpt lat="48.8536" lon="2.12507">
        <ele>132</ele>
        <time>2024-03-31T13:21:27Z</time>
      </trkpt>
      <trkpt lat="48.85358" lon="2.12518">
        <ele>132</ele>
        <time>2024-03-31T13:21:35Z</time>
      </trkpt>
      <trkpt lat="48.85364" lon="2.12529">
        <ele>131</ele>
        <time>2024-03-31T13:21:47Z</time>
      </trkpt>
      <trkpt lat="48.85366" lon="2.12536">
        <ele>130</ele>
        <time>2024-03-31T13:21:53Z</time>
      </trkpt>
      <trkpt lat="48.85366" lon="2.12547">
        <ele>130</ele>
        <time>2024-03-31T13:22:01Z</time>
      </trkpt>
      <trkpt lat="48.85371" lon="2.12559">
        <ele>130</ele>
        <time>2024-03-31T13:22:13Z</time>
      </trkpt>
      <trkpt lat="48.85373" lon="2.12566">
        <ele>130</ele>
        <time>2024-03-31T13:22:21Z</time>
      </trkpt>
      <trkpt lat="48.85374" lon="2.12575">
        <ele>129</ele>
        <time>2024-03-31T13:22:29Z</time>
      </trkpt>
      <trkpt lat="48.85372" lon="2.12584">
        <ele>129</ele>
        <time>2024-03-31T13:22:37Z</time>
      </trkpt>
      <trkpt lat="48.85373" lon="2.12601">
        <ele>128</ele>
        <time>2024-03-31T13:22:48Z</time>
      </trkpt>
      <trkpt lat="48.8537" lon="2.12611">
        <ele>128</ele>
        <time>2024-03-31T13:22:54Z</time>
      </trkpt>
      <trkpt lat="48.85372" lon="2.12619">
        <ele>128</ele>
        <time>2024-03-31T13:22:59Z</time>
      </trkpt>
      <trkpt lat="48.85369" lon="2.12627">
        <ele>128</ele>
        <time>2024-03-31T13:23:04Z</time>
      </trkpt>
      <trkpt lat="48.85364" lon="2.12645">
        <ele>128</ele>
        <time>2024-03-31T13:23:15Z</time>
      </trkpt>
      <trkpt lat="48.85359" lon="2.12661">
        <ele>128</ele>
        <time>2024-03-31T13:23:24Z</time>
      </trkpt>
      <trkpt lat="48.85358" lon="2.12669">
        <ele>128</ele>
        <time>2024-03-31T13:23:29Z</time>
      </trkpt>
      <trkpt lat="48.85354" lon="2.12679">
        <ele>128</ele>
        <time>2024-03-31T13:23:33Z</time>
      </trkpt>
      <trkpt lat="48.85353" lon="2.12687">
        <ele>128</ele>
        <time>2024-03-31T13:23:37Z</time>
      </trkpt>
      <trkpt lat="48.85355" lon="2.12696">
        <ele>128</ele>
        <time>2024-03-31T13:23:42Z</time>
      </trkpt>
      <trkpt lat="48.85362" lon="2.127">
        <ele>127</ele>
        <time>2024-03-31T13:23:52Z</time>
      </trkpt>
      <trkpt lat="48.85387" lon="2.12694">
        <ele>126</ele>
        <time>2024-03-31T13:24:16Z</time>
      </trkpt>
      <trkpt lat="48.85393" lon="2.12695">
        <ele>126</ele>
        <time>2024-03-31T13:24:20Z</time>
      </trkpt>
      <trkpt lat="48.85404" lon="2.12704">
        <ele>125</ele>
        <time>2024-03-31T13:24:29Z</time>
      </trkpt>
      <trkpt lat="48.8541" lon="2.12711">
        <ele>125</ele>
        <time>2024-03-31T13:24:37Z</time>
      </trkpt>
      <trkpt lat="48.85412" lon="2.12717">
        <ele>125</ele>
        <time>2024-03-31T13:24:41Z</time>
      </trkpt>
      <trkpt lat="48.85419" lon="2.12739">
        <ele>125</ele>
        <time>2024-03-31T13:24:54Z</time>
      </trkpt>
      <trkpt lat="48.8543" lon="2.12761">
        <ele>125</ele>
        <time>2024-03-31T13:25:05Z</time>
      </trkpt>
      <trkpt lat="48.85443" lon="2.12796">
        <ele>123</ele>
        <time>2024-03-31T13:25:25Z</time>
      </trkpt>
      <trkpt lat="48.85444" lon="2.12806">
        <ele>123</ele>
        <time>2024-03-31T13:25:28Z</time>
      </trkpt>
      <trkpt lat="48.85441" lon="2.12823">
        <ele>124</ele>
        <time>2024-03-31T13:25:35Z</time>
      </trkpt>
      <trkpt lat="48.85441" lon="2.12831">
        <ele>124</ele>
        <time>2024-03-31T13:25:39Z</time>
      </trkpt>
      <trkpt lat="48.85445" lon="2.12854">
        <ele>125</ele>
        <time>2024-03-31T13:25:52Z</time>
      </trkpt>
      <trkpt lat="48.85446" lon="2.12862">
        <ele>124</ele>
        <time>2024-03-31T13:25:56Z</time>
      </trkpt>
      <trkpt lat="48.8545" lon="2.12877">
        <ele>124</ele>
        <time>2024-03-31T13:26:06Z</time>
      </trkpt>
      <trkpt lat="48.85451" lon="2.1291">
        <ele>124</ele>
        <time>2024-03-31T13:26:21Z</time>
      </trkpt>
      <trkpt lat="48.85448" lon="2.12927">
        <ele>124</ele>
        <time>2024-03-31T13:26:28Z</time>
      </trkpt>
      <trkpt lat="48.85444" lon="2.12941">
        <ele>124</ele>
        <time>2024-03-31T13:26:35Z</time>
      </trkpt>
      <trkpt lat="48.85443" lon="2.12948">
        <ele>124</ele>
        <time>2024-03-31T13:26:38Z</time>
      </trkpt>
      <trkpt lat="48.85438" lon="2.12953">
        <ele>124</ele>
        <time>2024-03-31T13:26:42Z</time>
      </trkpt>
      <trkpt lat="48.85433" lon="2.12964">
        <ele>124</ele>
        <time>2024-03-31T13:26:56Z</time>
      </trkpt>
      <trkpt lat="48.85432" lon="2.12972">
        <ele>124</ele>
        <time>2024-03-31T13:27:04Z</time>
      </trkpt>
      <trkpt lat="48.85427" lon="2.12982">
        <ele>124</ele>
        <time>2024-03-31T13:27:41Z</time>
      </trkpt>
      <trkpt lat="48.85421" lon="2.12986">
        <ele>124</ele>
        <time>2024-03-31T13:27:47Z</time>
      </trkpt>
      <trkpt lat="48.85417" lon="2.12992">
        <ele>124</ele>
        <time>2024-03-31T13:27:52Z</time>
      </trkpt>
      <trkpt lat="48.8541" lon="2.13005">
        <ele>124</ele>
        <time>2024-03-31T13:28:00Z</time>
      </trkpt>
      <trkpt lat="48.85408" lon="2.13012">
        <ele>124</ele>
        <time>2024-03-31T13:28:03Z</time>
      </trkpt>
      <trkpt lat="48.85406" lon="2.13017">
        <ele>123</ele>
        <time>2024-03-31T13:28:07Z</time>
      </trkpt>
      <trkpt lat="48.85401" lon="2.13042">
        <ele>121</ele>
        <time>2024-03-31T13:28:22Z</time>
      </trkpt>
      <trkpt lat="48.85402" lon="2.13049">
        <ele>121</ele>
        <time>2024-03-31T13:28:26Z</time>
      </trkpt>
      <trkpt lat="48.85405" lon="2.13055">
        <ele>121</ele>
        <time>2024-03-31T13:28:30Z</time>
      </trkpt>
      <trkpt lat="48.8541" lon="2.1306">
        <ele>120</ele>
        <time>2024-03-31T13:28:34Z</time>
      </trkpt>
      <trkpt lat="48.85412" lon="2.13066">
        <ele>120</ele>
        <time>2024-03-31T13:28:39Z</time>
      </trkpt>
      <trkpt lat="48.85415" lon="2.13076">
        <ele>119</ele>
        <time>2024-03-31T13:28:43Z</time>
      </trkpt>
      <trkpt lat="48.85416" lon="2.13083">
        <ele>119</ele>
        <time>2024-03-31T13:28:46Z</time>
      </trkpt>
      <trkpt lat="48.85419" lon="2.1309">
        <ele>119</ele>
        <time>2024-03-31T13:28:51Z</time>
      </trkpt>
      <trkpt lat="48.85419" lon="2.13098">
        <ele>119</ele>
        <time>2024-03-31T13:28:56Z</time>
      </trkpt>
    </trkseg>
  </trk>
</gpx>